     2              OBSERVATION DATA    GPS                 RINEX VERSION / TYPE
FIC2RX 9.60 97/08/04                                        PGM / RUN BY / DATE
                                                            COMMENT
Operator input collection int (sec) 30.0000                 COMMENT
Operator input collection int (sec) 30.0000                 COMMENT
Operator input collection int (sec) 30.0000                 COMMENT
Operator input collection int (sec) 30.0000                 COMMENT
Original Marker Name: GLOC55460                             COMMENT
Campaign Name: STRC 1988 University                         COMMENT
4-Character Station Name: GLOC                              COMMENT
6-Character Antenna Code: TI4100                            COMMENT
Vertical Measurement Point: PAE                             COMMENT
Vertical Offset to Rinex Ref. Point: 0.0000                 COMMENT
Radial Measurement Point: PAE                               COMMENT
Radial Offset to Rinex Ref. Point: 0.0842                   COMMENT
Antenna Height from Field Measurement: 0.8450 m             COMMENT
Original XYZ: 0.0000 0.0000 0.0000                          COMMENT
New XYZ position is based on association with SCEC monument COMMENT
E1C9N8F2+0011. Position of that monument is believed to be  COMMENT
valid to within 1 m horizontally; vertical accuracy         COMMENT
should be no worse than 3-times this value.                 COMMENT
                                                            COMMENT
Revised Rinex header created by UCSD GPS archive for        COMMENT
GSAC on 26-May-1999 (1999:146) 23:25:40 GMT                 COMMENT
For assistance contact dagnew@ucsd.edu or hjohnson@ucsd.edu COMMENT
                                                            COMMENT
GLO CORNER                                                  MARKER NAME
ER MASS INST. OF TECHNOLOGY                                 OBSERVER / AGENCY
UN03 TI 4100 GES 1.50                                       REC # / TYPE / VERS
UN03 TI 4100                                                ANT # / TYPE
 -2287875.0000 -4851752.0000  3439018.0000                  APPROX POSITION XYZ
        0.8408        0.0000        0.0000                  ANTENNA: DELTA H/E/N
     1     1     0                                          WAVELENGTH FACT L1/2
     4    L1    L2    P1    P2                              # / TYPES OF OBSERV
    30                                                      INTERVAL
  1988     2    27     4    52   29.000000                  TIME OF FIRST OBS
  1988     2    27    12     3   59.000000                  TIME OF LAST OBS
     7                                                      # OF SATELLITES
           6   384   384   384   384                        PRN / # OF OBS
           8   288   288   288   288                        PRN / # OF OBS
          11   560   560   560   560                        PRN / # OF OBS
           9   627   627   627   627                        PRN / # OF OBS
          13   576   576   576   576                        PRN / # OF OBS
           3   480   480   480   480                        PRN / # OF OBS
                                                            END OF HEADER
 88  2 27  4 52 29.0800000  0  2  6  8
         -.465 7         -.045 7  21757039.340 0  21757039.264 0
          .234 7          .092 7  20276958.950 0  20276959.586 0
 88  2 27  4 52 59.0800000  0  2  6  8
    -58433.470 7    -45532.250 7  21745919.372 0  21745919.104 0
    -35078.218 7    -27333.769 7  20270283.756 0  20270283.387 0
 88  2 27  4 53 29.0800000  0  2  6  8
   -116736.060 8    -90962.845 7  21734824.525 0  21734825.152 0
    -69477.540 7    -54138.427 7  20263737.927 0  20263738.810 0
 88  2 27  4 53 59.0800000  0  2  6  8
   -174906.196 8   -136290.216 7  21723756.200 0  21723755.595 0
   -103196.401 7    -80412.844 6  20257321.612 0  20257321.654 0
 88  2 27  4 54 29.0800000  0  2  6  8
   -232941.346 8   -181512.409 7  21712712.357 0  21712711.874 0
   -136233.415 7   -106155.973 7  20251034.064 0  20251035.046 0
 88  2 27  4 54 59.0800000  0  2  6  8
   -290838.949 7   -226627.423 7  21701694.988 0  21701695.219 0
   -168587.013 7   -131366.555 7  20244878.052 0  20244877.510 0
 88  2 27  4 55 29.0800000  0  2  6  8
   -348597.734 7   -271634.270 7  21690703.717 0  21690702.569 0
   -200256.675 7   -156044.211 6  20238851.972 0  20238851.775 0
 88  2 27  4 55 59.0800000  0  2  6  8
   -406216.272 7   -316531.828 7  21679739.206 0  21679738.372 0
   -231241.965 7   -180188.586 6  20232954.626 0  20232954.369 0
 88  2 27  4 56 29.0800000  0  2  6  8
   -463691.884 8   -361318.012 7  21668802.360 0  21668802.378 0
   -261541.163 7   -203798.343 6  20227189.075 0  20227189.385 0
 88  2 27  4 56 59.0800000  0  2  6  8
   -521022.884 8   -405991.521 7  21657892.925 0  21657892.477 0
   -291153.975 7   -226873.252 7  20221553.802 0  20221554.197 0
 88  2 27  4 57 29.0800000  0  2  6  8
   -578207.361 8   -450550.859 7  21647010.154 0  21647010.472 0
   -320079.165 8   -249412.370 6  20216050.554 0  20216050.033 0
 88  2 27  4 57 59.0800000  0  2  6  8
   -635244.078 8   -494995.052 7  21636156.058 0  21636156.649 0
   -348317.259 7   -271416.053 6  20210676.446 0  20210675.505 0
 88  2 27  4 58 29.0800000  0  2  6  8
   -692130.697 7   -539322.274 7  21625332.663 0  21625331.529 0
   -375866.796 7   -292883.221 6  20205433.646 0  20205434.486 0
 88  2 27  4 58 59.0800000  0  2  6  8
   -748864.940 8   -583530.774 7  21614535.375 0  21614535.465 0
   -402726.557 7   -313812.901 6  20200321.101 0  20200322.467 0
 88  2 27  4 59 29.0800000  0  2  6  8
   -805444.756 7   -627618.949 7  21603767.902 0  21603768.506 0
   -428896.117 7   -334204.757 6  20195343.482 0  20195342.383 0
 88  2 27  4 59 59.0800000  0  2  6  8
   -861867.888 7   -671585.027 8  21593031.013 0  21593031.732 0
   -454374.393 7   -354057.951 7  20190494.578 0  20190495.071 0
 88  2 27  5  0 29.0800000  0  4  6  8 11  9
   -918133.284 8   -715428.188 7  21582324.801 0  21582324.392 0
   -479161.968 5   -373372.921 6  20185777.455 0  20185776.641 0
         -.076 7          .000 1  22392671.569 0          .000 0
         -.048 2          .000 1          .000 0          .000 0
 88  2 27  5  0 59.0800000  0  4  6  8 11  9
   -974239.154 7   -759147.048 7  21571647.568 0  21571648.242 0
   -503258.360 7   -392149.332 6  20181192.138 0  20181191.731 0
    -93322.350 8     23144.979 7  22374941.268 0  22374943.257 0
   -459239.157 2    228000.000 1          .000 0          .000 0
 88  2 27  5  1 29.0800000  0  4  6  8 11  9
  -1030181.497 8   -802738.472 7  21561002.525 0  21561002.764 0
   -526661.089 7   -410385.221 6  20176738.234 0  20176738.706 0
   -186298.129 7    -49303.659 7  22357249.067 0  22357250.513 0
  -1599213.305 2    456000.000 1          .000 0          .000 0
 88  2 27  5  1 59.0800000  0  3  6  8 11
  -1085959.662 8   -846201.986 7  21550388.909 0  21550387.833 0
   -549371.035 7   -428081.271 6  20172417.414 0  20172417.763 0
   -278926.938 7   -121481.930 7  22339621.415 0  22339623.759 0
 88  2 27  5  2 29.0800000  0  4  6  8 11  9
  -1141572.148 8   -889536.395 7  21539805.317 0  21539806.195 0
   -571388.248 7   -445237.554 7  20168227.057 0  20168227.868 0
   -371206.764 8   -193388.281 7  22322060.343 0  22322063.378 0
   -786346.501 2    912000.000 1          .000 0          .000 0
 88  2 27  5  2 59.0800000  0  4  6  8 11  9
  -1197015.978 8   -932739.378 7  21529254.998 0  21529255.045 0
   -592711.172 7   -461852.818 7  20164169.282 0  20164169.146 0
   -463134.009 8   -265019.884 7  22304568.693 0  22304570.348 0
   -876341.526 7   1139999.500 1  23879252.050 0          .000 0
 88  2 27  5  3 29.0800000  0  4  6  8 11  9
  -1252288.326 7   -975808.738 8  21518736.921 0  21518737.257 0
   -613338.960 7   -477926.409 7  20160244.095 0  20160244.575 0
   -554705.682 8   -336374.432 7  22287143.406 0  22287145.024 0
   -966376.554 7   1105339.178 7  23862119.497 0  23862120.182 0
 88  2 27  5  3 59.0800000  0  4  6  8 11  9
  -1307388.207 8  -1018743.708 7  21508252.123 0  21508251.195 0
   -633272.459 7   -493458.999 6  20156450.378 0  20156452.741 0
   -645920.006 7   -407450.526 7  22269785.173 0  22269787.320 0
  -1056457.508 7   1035146.234 7  23844977.954 0  23844976.919 0
 88  2 27  5  4 29.0800000  0  4  6  8 11  9
  -1362314.636 7  -1061543.526 7  21497799.630 0  21497799.164 0
   -652512.128 7   -508450.954 7  20152789.965 0  20152789.650 0
   -736775.716 7   -478247.167 7  22252495.710 0  22252497.646 0
  -1146584.414 6    964917.480 6  23827826.179 0  23827825.047 0
 88  2 27  5  4 59.0800000  0  4  6  8 11  9
  -1417065.432 7  -1104206.486 7  21487381.055 0  21487380.744 0
   -671057.426 7   -522901.819 6  20149260.996 0  20149260.327 0
   -827270.263 7   -548762.386 7  22235275.990 0  22235276.777 0
  -1236755.691 7    894654.146 7  23810666.131 0  23810666.678 0
 88  2 27  5  5 29.0800000  0  4  6  8 11  9
  -1471635.624 8  -1146728.709 8  21476996.649 0  21476996.327 0
   -688905.502 7   -536809.407 7  20145864.100 0  20145864.946 0
   -917398.816 7   -618992.410 7  22218125.354 0  22218125.822 0
  -1326967.477 6    824359.282 6  23793499.931 0  23793501.157 0
 88  2 27  5  5 59.0800000  0  4  6  8 11  9
  -1526023.798 8  -1189109.103 7  21466646.816 0  21466645.801 0
   -706056.998 8   -550174.202 6  20142600.992 0  20142601.540 0
  -1007159.152 7   -688935.525 7  22201043.975 0  22201044.905 0
  -1417219.349 6    754033.164 7  23776326.795 0  23776326.694 0
 88  2 27  5  6 29.0800000  0  4  6  8 11  9
  -1580230.500 8  -1231348.097 7  21456331.459 0  21456331.402 0
   -722514.288 8   -562998.067 6  20139469.075 0  20139469.287 0
  -1096551.077 7   -758591.544 7  22184032.702 0  22184034.887 0
  -1507512.399 7    683674.997 7  23759145.095 0  23759144.268 0
 88  2 27  5  6 59.0800000  0  4  6  8 11  9
  -1634252.355 8  -1273443.046 7  21446051.976 0  21446051.523 0
   -738276.152 7   -575280.025 6  20136468.976 0  20136469.763 0
  -1185571.538 8   -827958.125 7  22167093.747 0  22167094.672 0
  -1597844.443 7    613286.415 7  23741954.661 0  23741954.386 0
 88  2 27  5  7 29.0800000  0  4  6  8 11  9
  -1688086.989 7  -1315392.111 7  21435807.224 0  21435806.358 0
   -753341.614 7   -587019.342 6  20133602.838 0  20133603.835 0
  -1274217.740 7   -897033.083 7  22150225.021 0  22150225.151 0
  -1688213.750 8    542868.794 7  23724757.742 0  23724759.215 0
 88  2 27  5  7 59.0800000  0  4  6  8 11  9
  -1741733.046 7  -1357194.239 7  21425598.429 0  21425599.130 0
   -767712.013 8   -598217.046 7  20130869.090 0  20130867.878 0
  -1362487.929 8   -965815.027 7  22133426.812 0  22133428.458 0
  -1778619.784 7    472422.550 7  23707554.470 0  23707554.598 0
 88  2 27  5  8 29.0800000  0  4  6  8 11  9
  -1795187.736 7  -1398847.242 7  21415425.997 0  21415426.558 0
   -781386.061 7   -608872.146 7  20128265.978 0  20128266.694 0
  -1450378.912 7  -1034301.488 7  22116702.132 0  22116702.620 0
  -1869060.787 8    401949.055 7  23690343.499 0  23690343.571 0
 88  2 27  5  8 59.0800000  0  4  6  8 11  9
  -1848448.051 8  -1440348.780 8  21405291.710 0  21405291.831 0
   -794362.676 7   -618983.784 7  20125795.546 0  20125796.379 0
  -1537887.809 8  -1102490.225 7  22100050.029 0  22100051.027 0
  -1959534.634 7    331449.964 8  23673127.338 0  23673126.784 0
 88  2 27  5  9 29.0800000  0  4  6  8 11  9
  -1901512.609 8  -1481697.785 7  21395193.770 0  21395193.104 0
   -806643.024 7   -628552.881 7  20123460.765 0  20123461.556 0
  -1625012.983 7  -1170379.961 7  22083470.950 0  22083471.824 0
  -2050040.496 7    260925.938 7  23655904.124 0  23655904.903 0
 88  2 27  5  9 59.0800000  0  4  6  8 11  9
  -1954379.344 7  -1522892.649 7  21385133.330 0  21385133.182 0
   -818227.498 8   -637579.742 7  20121254.422 0  20121255.753 0
  -1711752.043 8  -1237968.830 7  22066964.238 0  22066965.064 0
  -2140577.302 8    190377.813 8  23638675.885 0  23638675.871 0
 88  2 27  5 10 29.0800000  0  4  6  8 11  9
  -2007046.692 7  -1563932.136 7  21375111.210 0  21375111.555 0
   -829116.612 7   -646064.779 7  20119182.642 0  20119183.576 0
  -1798103.158 7  -1305255.411 7  22050532.744 0  22050533.265 0
  -2231144.314 8    119806.136 7  23621441.544 0  23621441.896 0
 88  2 27  5 10 59.0800000  0  4  6  8 11  9
  -2059511.407 8  -1604813.737 7  21365126.487 0  21365127.891 0
   -839309.517 7   -654007.280 7  20117243.341 0  20117243.325 0
  -1884063.278 7  -1372237.330 7  22034175.029 0  22034176.365 0
  -2321739.340 8     49212.627 8  23604201.137 0  23604202.162 0
 88  2 27  5 11 29.0800000  0  4  6  8 11  9
  -2111771.244 7  -1645535.675 7  21355183.027 0  21355183.108 0
   -848805.906 7   -661407.064 6  20115436.312 0  20115435.924 0
  -1969629.712 7  -1438912.453 7  22017892.323 0  22017893.358 0
  -2412360.641 8    -21401.351 7  23586956.620 0  23586957.851 0
 88  2 27  5 11 59.0800000  0  4  6  8 11  9
  -2163824.797 8  -1686096.884 7  21345277.293 0  21345277.567 0
   -857606.774 8   -668264.882 7  20113762.300 0  20113761.546 0
  -2054800.978 7  -1505279.655 7  22001683.766 0  22001685.622 0
  -2503007.826 8    -92035.498 7  23569707.192 0  23569707.123 0
 88  2 27  5 12 29.0800000  0  4  6  8 11  9
  -2215669.834 7  -1726495.621 8  21335411.682 0  21335411.076 0
   -865712.473 7   -674581.015 7  20112219.962 0  20112219.119 0
  -2139574.878 7  -1571337.223 7  21985552.069 0  21985553.400 0
  -2593679.354 7   -162688.616 7  23552453.557 0  23552453.205 0
 88  2 27  5 12 59.0800000  0  4  6  8 11  9
  -2267303.220 8  -1766729.429 7  21325586.141 0  21325585.530 0
   -873122.602 7   -680355.119 7  20110808.807 0  20110809.740 0
  -2223948.195 7  -1637082.640 6  21969495.505 0  21969498.095 0
  -2684372.931 8   -233358.921 7  23535194.445 0  23535195.825 0
 88  2 27  5 13 29.0800000  0  4  6  8 11  9
  -2318723.992 7  -1806797.562 7  21315800.631 0  21315800.504 0
   -879838.552 7   -685588.326 7  20109531.303 0  20109532.069 0
  -2307919.790 7  -1702515.043 6  21953517.698 0  21953518.600 0
  -2775088.448 7   -304046.318 7  23517932.002 0  23517932.348 0
 88  2 27  5 13 59.0800000  0  4  6  8 11  9
  -2369928.713 7  -1846697.344 7  21306056.961 0  21306057.091 0
   -885859.338 8   -690279.843 7  20108385.788 0  20108386.335 0
  -2391486.406 7  -1767631.868 7  21937614.586 0  21937616.523 0
  -2865823.338 6   -374748.813 7  23500665.844 0  23500666.488 0
 88  2 27  5 14 29.0800000  0  4  6  8 11  9
  -2420915.727 8  -1886427.484 7  21296354.963 0  21296354.457 0
   -891185.602 7   -694430.180 7  20107371.456 0  20107371.996 0
  -2474646.376 8  -1832431.829 7  21921790.556 0  21921791.653 0
  -2956576.447 7   -445465.504 7  23483395.862 0  23483396.586 0
 88  2 27  5 14 59.0800000  0  4  6  8 11  9
  -2471684.248 8  -1925987.379 7  21286693.687 0  21286693.966 0
   -895819.487 7   -698040.994 6  20106489.406 0  20106490.139 0
  -2557398.905 7  -1896914.305 7  21906042.746 0  21906043.294 0
  -3047347.742 7   -516196.375 7  23466122.543 0  23466122.692 0
 88  2 27  5 15 29.0800000  0  4  6  8 11  9
  -2522230.640 8  -1965374.169 7  21277075.165 0  21277075.262 0
   -899760.036 7   -701111.542 7  20105740.109 0  20105740.697 0
  -2639740.573 7  -1961076.641 7  21890373.570 0  21890375.530 0
  -3138134.691 7   -586939.425 7  23448846.059 0  23448847.122 0
 88  2 27  5 15 59.0800000  0  4  6  8 11  9
  -2572552.074 7  -2004585.678 7  21267499.401 0  21267499.551 0
   -903006.762 7   -703641.459 7  20105121.945 0  20105121.879 0
  -2721668.577 7  -2024916.633 7  21874782.894 0  21874784.773 0
  -3228934.938 7   -657692.832 7  23431567.407 0  23431568.597 0
 88  2 27  5 16 29.0800000  0  4  6  8 11  9
  -2622646.997 8  -2043620.684 7  21257967.025 0  21257966.662 0
   -905561.274 7   -705631.992 7  20104635.968 0  20104637.076 0
  -2803181.275 7  -2088432.995 7  21859271.843 0  21859273.728 0
  -3319747.679 7   -728455.984 7  23414286.316 0  23414287.309 0
 88  2 27  5 16 59.0800000  0  4  6  8 11  9
  -2672513.260 8  -2082477.515 7  21248476.913 0  21248476.972 0
   -907424.039 8   -707083.481 7  20104281.893 0  20104280.767 0
  -2884276.582 8  -2151624.135 7  21843840.562 0  21843841.364 0
  -3410571.686 7   -799227.915 6  23397003.399 0  23397003.096 0
 88  2 27  5 17 29.0800000  0  4  6  8 11  9
  -2722148.100 8  -2121154.002 7  21239031.909 0  21239031.644 0
   -908595.425 7   -707996.240 6  20104059.461 0  20104058.634 0
  -2964951.953 7  -2214488.035 7  21828488.030 0  21828490.009 0
  -3501405.044 7   -870007.146 6  23379719.559 0  23379717.637 0
 88  2 27  5 17 59.0800000  0  4  6  8 11  9
  -2771549.897 7  -2159648.907 7  21229631.061 0  21229631.237 0
   -909076.503 8   -708371.107 7  20103967.332 0  20103967.498 0
  -3045205.910 7  -2277023.575 7  21813216.305 0  21813218.133 0
  -3592246.466 7   -940792.683 7  23362431.944 0  23362431.715 0
 88  2 27  5 18 29.0800000  0  4  6  8 11  9
  -2820716.915 7  -2197960.864 7  21220274.912 0  21220274.964 0
   -908868.288 7   -708208.854 6  20104006.935 0  20104006.780 0
  -3125036.749 7  -2339229.396 7  21798026.239 0  21798026.459 0
  -3683095.287 7  -1011583.973 6  23345143.676 0  23345143.506 0
 88  2 27  5 18 59.0800000  0  4  6  8 11  9
  -2869646.122 7  -2236087.524 7  21210963.727 0  21210963.138 0
   -907970.824 7   -707509.514 6  20104177.610 0  20104177.294 0
  -3204441.702 8  -2401103.380 7  21782914.291 0  21782916.490 0
  -3773948.926 7  -1082379.016 7  23327855.567 0  23327854.562 0
 88  2 27  5 19 29.0800000  0  4  6  8 11  9
  -2918334.652 8  -2274026.625 7  21201699.446 0  21201699.147 0
   -906383.973 7   -706272.998 6  20104479.869 0  20104479.596 0
  -3283418.277 8  -2462643.550 7  21767885.785 0  21767887.527 0
  -3864805.546 8  -1153176.367 8  23310566.005 0  23310566.205 0
 88  2 27  5 19 59.0800000  0  4  6  8 11  9
  -2966780.748 8  -2311776.833 7  21192479.751 0  21192479.567 0
   -904109.393 8   -704500.599 6  20104913.143 0  20104913.253 0
  -3361964.642 8  -2523848.508 7  21752939.309 0  21752940.110 0
  -3955663.896 8  -1223975.087 7  23293275.521 0  23293275.999 0
 88  2 27  5 20 29.0800000  0  4  6  8 11  9
  -3014982.587 7  -2349336.702 7  21183307.282 0  21183307.969 0
   -901147.948 7   -702192.972 6  20105475.948 0  20105476.572 0
  -3440079.058 7  -2584716.872 7  21738074.176 0  21738076.599 0
  -4046522.734 7  -1294774.189 7  23275985.793 0  23275986.451 0
 88  2 27  5 20 59.0800000  0  4  6  8 11  9
  -3062937.264 7  -2386703.978 7  21174181.631 0  21174181.256 0
   -897499.989 7   -699350.394 7  20106169.876 0  20106169.759 0
  -3517759.405 7  -2645247.013 7  21723292.637 0  21723294.369 0
  -4137380.175 8  -1365572.201 7  23258696.917 0  23258697.240 0
 88  2 27  5 21 29.0800000  0  4  6  8 11  9
  -3110643.831 7  -2423877.920 7  21165103.390 0  21165103.817 0
   -893167.790 7   -695974.658 6  20106994.761 0  20106995.205 0
  -3595004.911 7  -2705438.311 7  21708592.232 0  21708594.845 0
  -4228235.508 7  -1436368.564 7  23241407.206 0  23241407.446 0
 88  2 27  5 21 59.0800000  0  4  6  8 11  9
  -3158098.402 7  -2460855.503 8  21156073.071 0  21156073.242 0
   -888150.594 7   -692065.151 7  20107948.922 0  20107950.315 0
  -3671811.946 7  -2765287.935 7  21693976.765 0  21693978.678 0
  -4319085.778 8  -1507160.974 8  23224119.000 0  23224119.375 0
 88  2 27  5 22 29.0800000  0  4  6  8 11  9
  -3205298.058 8  -2497634.454 7  21147091.649 0  21147092.049 0
   -882448.627 7   -687622.069 7  20109034.864 0  20109034.562 0
  -3748177.778 7  -2824793.758 7  21679445.294 0  21679446.019 0
  -4409928.635 8  -1577947.595 8  23206832.975 0  23206832.394 0
 88  2 27  5 22 59.0800000  0  4  6  8 11  9
  -3252241.712 8  -2534213.918 7  21138158.511 0  21138158.362 0
   -876064.219 7   -682647.203 7  20110249.680 0  20110249.022 0
  -3824101.873 7  -2883955.380 6  21664996.672 0  21664997.712 0
  -4500763.733 7  -1648728.191 7  23189547.082 0  23189547.340 0
 88  2 27  5 23 29.0800000  0  4  6  8 11  9
  -3298927.092 7  -2570592.130 7  21129274.085 0  21129274.395 0
   -868998.077 7   -677141.108 7  20111594.509 0  20111594.411 0
  -3899582.215 8  -2942771.219 7  21650633.801 0  21650635.051 0
  -4591589.392 7  -1719501.417 7  23172263.054 0  23172263.009 0
 88  2 27  5 23 59.0800000  0  4  6  8 11  9
  -3345351.865 7  -2606767.280 7  21120440.170 0  21120439.339 0
   -861251.311 8   -671104.669 6  20113068.173 0  20113068.392 0
  -3974616.925 7  -3001239.805 7  21636354.944 0  21636357.029 0
  -4682404.021 7  -1790266.047 7  23154981.185 0  23154981.508 0
 88  2 27  5 24 29.0800000  0  4  6  8 11  9
  -3391513.880 7  -2642737.680 7  21111655.589 0  21111655.091 0
   -852824.933 7   -664538.651 7  20114672.399 0  20114671.401 0
  -4049204.123 7  -3059359.688 7  21622160.998 0  21622163.269 0
  -4773205.917 7  -1861020.744 7  23137701.931 0  23137702.798 0
 88  2 27  5 24 59.0800000  0  4  6  8 11  9
  -3437411.115 7  -2678501.755 7  21102921.812 0  21102921.506 0
   -843720.274 8   -657444.101 7  20116404.319 0  20116403.167 0
  -4123342.517 7  -3117129.858 6  21608052.516 0  21608055.297 0
  -4863993.904 7  -1931764.592 7  23120425.733 0  23120427.159 0
 88  2 27  5 25 29.0800000  0  4  6  8 11  9
  -3483039.875 8  -2714056.637 7  21094239.165 0  21094238.283 0
   -833937.682 8   -649821.292 7  20118265.626 0  20118264.882 0
  -4197028.511 7  -3174547.488 7  21594031.177 0  21594032.474 0
  -4954764.569 6  -2002494.973 7  23103153.107 0  23103153.409 0
 88  2 27  5 25 59.0800000  0  4  6  8 11  9
  -3528398.185 8  -2749400.776 7  21085607.319 0  21085607.694 0
   -823478.166 7   -641671.014 7  20120255.626 0  20120254.099 0
  -4270260.894 7  -3231611.672 7  21580095.950 0  21580097.114 0
  -5045516.649 7  -2073210.870 7  23085882.525 0  23085883.584 0
 88  2 27  5 26 29.0800000  0  4  6  8 11  9
  -3573483.584 8  -2784532.257 7  21077028.510 0  21077027.079 0
   -812342.662 7   -632993.983 6  20122374.663 0  20122374.584 0
  -4343037.548 8  -3288320.738 7  21566246.426 0  21566248.830 0
  -5136248.346 7  -2143910.853 7  23068617.912 0  23068618.865 0
 88  2 27  5 26 59.0800000  0  4  6  8 11  9
  -3618294.540 7  -2819449.875 7  21068501.009 0  21068500.214 0
   -800533.398 7   -623791.965 7  20124622.574 0  20124622.631 0
  -4415357.611 7  -3344674.017 7  21552484.379 0  21552487.027 0
  -5226958.818 7  -2214594.306 6  23051355.761 0  23051355.589 0
 88  2 27  5 27 29.0800000  0  4  6  8 11  9
  -3662829.022 8  -2854152.070 7  21060025.595 0  21060026.046 0
   -788051.855 7   -614066.080 6  20126996.923 0  20126997.390 0
  -4487219.516 7  -3400670.291 7  21538810.228 0  21538812.099 0
  -5317646.402 7  -2285259.945 7  23034099.665 0  23034099.456 0
 88  2 27  5 27 59.0800000  0  4  6  8 11  9
  -3707084.101 7  -2888636.546 7  21051604.779 0  21051604.571 0
   -774898.758 7   -603816.918 7  20129499.965 0  20129500.477 0
  -4558620.477 7  -3456307.389 7  21525223.536 0  21525224.080 0
  -5408308.655 7  -2355905.856 7  23016847.307 0  23016846.494 0
 88  2 27  5 28 29.0800000  0  4  6  8 11  9
  -3751057.236 8  -2922901.323 7  21043236.594 0  21043235.959 0
   -761075.055 7   -593045.194 7  20132131.472 0  20132131.232 0
  -4629559.438 7  -3511584.484 7  21511723.605 0  21511725.012 0
  -5498943.738 8  -2426530.595 7  22999599.173 0  22999599.727 0
 88  2 27  5 28 59.0800000  0  4  6  8 11  9
  -3794746.360 7  -2956944.794 7  21034922.767 0  21034923.055 0
   -746582.402 7   -581752.212 7  20134888.991 0  20134888.590 0
  -4700034.266 8  -3566499.921 7  21498312.924 0  21498314.060 0
  -5589549.983 8  -2497132.860 7  22982357.747 0  22982357.858 0
 88  2 27  5 29 29.0800000  0  4  6  8 11  9
  -3838148.753 7  -2990764.843 7  21026663.131 0  21026663.401 0
   -731421.492 7   -569938.523 7  20137772.944 0  20137773.483 0
  -4770042.948 7  -3621052.126 7  21484990.656 0  21484991.863 0
  -5680125.212 8  -2567710.962 7  22965121.861 0  22965121.417 0
 88  2 27  5 29 59.0800000  0  4  6  8 11  9
  -3881262.264 8  -3024359.791 7  21018459.251 0  21018458.438 0
   -715594.166 8   -557605.539 7  20140785.564 0  20140785.638 0
  -4839584.170 7  -3675240.075 7  21471757.496 0  21471759.132 0
  -5770668.061 8  -2638263.834 7  22947892.099 0  22947891.638 0
 88  2 27  5 30 29.0800000  0  4  6  8 11  9
  -3924085.069 7  -3057728.207 7  21010311.168 0  21010310.559 0
   -699102.068 8   -544754.545 7  20143923.820 0  20143924.094 0
  -4908656.624 7  -3729062.753 7  21458613.215 0  21458614.097 0
  -5861176.930 7  -2708790.231 7  22930668.388 0  22930669.269 0
 88  2 27  5 30 59.0800000  0  4  6  8 11  9
  -3966614.220 8  -3090867.818 7  21002217.042 0  21002217.032 0
   -681946.018 7   -531386.178 6  20147189.171 0  20147188.656 0
  -4977257.791 7  -3782518.201 7  21445558.662 0  21445559.764 0
  -5951649.057 8  -2779287.992 7  22913452.198 0  22913451.399 0
 88  2 27  5 31 29.0800000  0  4  6  8 11  9
  -4008847.603 7  -3123776.949 7  20994181.014 0  20994180.999 0
   -664127.934 8   -517501.952 7  20150580.039 0  20150579.183 0
  -5045386.803 7  -3835605.719 7  21432594.075 0  21432595.898 0
  -6042083.292 8  -2849756.225 6  22896243.671 0  22896243.654 0
 88  2 27  5 31 59.0800000  0  4  6  8 11  9
  -4050782.254 8  -3156453.307 7  20986200.515 0  20986201.201 0
   -645648.682 7   -503102.529 7  20154096.231 0  20154095.724 0
  -5113041.281 7  -3888323.478 7  21419720.648 0  21419721.641 0
  -6132477.077 8  -2920192.935 7  22879041.922 0  22879042.145 0
 88  2 27  5 32 29.0800000  0  4  6  8 11  9
  -4092416.727 7  -3188895.746 7  20978278.094 0  20978277.884 0
   -626510.610 8   -488189.745 7  20157737.713 0  20157737.729 0
  -5180220.310 7  -3940670.766 7  21406936.253 0  21406937.727 0
  -6222829.427 8  -2990597.379 7  22861847.991 0  22861847.487 0
 88  2 27  5 32 59.0800000  0  4  6  8 11  9
  -4133748.527 8  -3221102.339 7  20970414.001 0  20970412.648 0
   -606715.027 7   -472764.615 7  20161503.913 0  20161505.490 0
  -5246922.213 8  -3992646.264 7  21394243.493 0  21394244.143 0
  -6313138.002 7  -3060967.701 7  22844663.029 0  22844663.020 0
 88  2 27  5 33 29.0800000  0  4  6  8 11  9
  -4174775.263 7  -3253071.241 6  20962605.422 0  20962605.043 0
   -586263.649 7   -456828.479 7  20165395.889 0  20165395.544 0
  -5313145.122 8  -4044248.505 7  21381641.988 0  21381643.258 0
  -6403401.234 8  -3131302.676 7  22827487.305 0  22827486.073 0
 88  2 27  5 33 59.0800000  0  4  6  8 11  9
  -4215493.647 8  -3284799.847 7  20954857.748 0  20954857.294 0
   -565157.436 7   -440382.074 7  20169412.330 0  20169412.597 0
  -5378886.930 7  -4095475.878 7  21369130.393 0  21369131.672 0
  -6493615.991 7  -3201599.885 7  22810319.193 0  22810319.699 0
 88  2 27  5 34 29.0800000  0  4  6  8 11  9
  -4255901.102 8  -3316286.181 7  20947168.596 0  20947167.968 0
   -543397.502 7   -423426.294 7  20173553.287 0  20173553.563 0
  -5444145.771 8  -4146326.914 7  21356713.038 0  21356714.136 0
  -6583780.178 7  -3271857.678 8  22793161.711 0  22793161.754 0
 88  2 27  5 34 59.0800000  0  4  6  8 11  9
  -4295996.734 8  -3347529.533 6  20939538.569 0  20939538.026 0
   -520986.943 7   -405963.512 7  20177818.364 0  20177818.077 0
  -5508921.873 7  -4196801.800 7  21344385.688 0  21344387.362 0
  -6673893.554 7  -3342075.859 8  22776013.792 0  22776013.933 0
 88  2 27  5 35 29.0800000  0  4  6  8 11  9
  -4335778.863 7  -3378528.587 7  20931968.494 0  20931968.129 0
   -497928.246 7   -387995.689 7  20182206.247 0  20182206.519 0
  -5573214.084 7  -4246899.613 6  21332152.234 0  21332153.246 0
  -6763954.423 6  -3412253.125 8  22758874.391 0  22758875.768 0
 88  2 27  5 35 59.0800000  0  4  6  8 11  9
  -4375244.043 7  -3409280.667 7  20924457.148 0  20924458.302 0
   -474221.933 7   -369523.224 7  20186717.496 0  20186716.540 0
  -5637019.952 7  -4296618.458 7  21320011.333 0  21320010.646 0
  -6853959.745 7  -3482387.108 7  22741747.960 0  22741748.282 0
 88  2 27  5 36 29.0800000  0  4  6  8 11  9
  -4414389.103 8  -3439783.310 6  20917009.049 0  20917007.985 0
   -449868.823 7   -350546.761 6  20191351.606 0  20191351.881 0
  -5700336.911 7  -4345956.330 6  21307961.295 0  21307962.526 0
  -6943906.936 7  -3552475.815 8  22724631.533 0  22724632.535 0
 88  2 27  5 36 59.0800000  0  4  6  8 11  9
  -4453211.390 8  -3470034.445 7  20909621.189 0  20909621.033 0
   -424870.530 8   -331067.566 7  20196109.092 0  20196108.405 0
  -5763163.580 7  -4394912.160 7  21296005.087 0  21296006.756 0
  -7033793.522 7  -3622517.298 7  22707526.926 0  22707528.299 0
 88  2 27  5 37 29.0800000  0  4  6  8 11  9
  -4491709.104 7  -3500032.660 7  20902295.948 0  20902295.108 0
   -399229.485 8   -311087.534 6  20200988.232 0  20200988.063 0
  -5825498.740 7  -4443485.007 6  21284143.405 0  21284144.026 0
  -7123618.036 7  -3692510.425 8  22690434.922 0  22690433.909 0
 88  2 27  5 37 59.0800000  0  4  6  8 11  9
  -4529881.231 7  -3529777.173 7  20895031.553 0  20895031.230 0
   -372948.782 7   -290609.051 7  20205988.489 0  20205988.913 0
  -5887342.831 7  -4491675.194 6  21272374.963 0  21272375.745 0
  -7213379.777 7  -3762454.628 7  22673352.854 0  22673353.184 0
 88  2 27  5 38 29.0800000  0  4  6  8 11  9
  -4567723.976 7  -3559265.018 7  20887830.802 0  20887830.933 0
   -346028.930 7   -269632.542 7  20211111.799 0  20211111.430 0
  -5948693.044 8  -4539480.549 6  21260700.464 0  21260701.657 0
  -7303075.305 7  -3832347.262 7  22656284.953 0  22656284.084 0
 88  2 27  5 38 59.0800000  0  4  6  8 11  9
  -4605234.693 8  -3588494.149 7  20880691.178 0  20880692.477 0
   -318471.559 8   -248159.262 7  20216355.369 0  20216355.356 0
  -6009547.420 7  -4586899.537 6  21249120.779 0  21249120.855 0
  -7392702.407 7  -3902186.536 7  22639228.785 0  22639229.180 0
 88  2 27  5 39 29.0800000  0  4  6  8 11  9
  -4642412.589 7  -3617463.940 7  20873617.357 0  20873616.991 0
   -290279.726 7   -226191.610 7  20221720.104 0  20221721.079 0
  -6069906.065 7  -4633932.218 7  21237633.636 0  21237636.369 0
  -7482260.433 7  -3971972.003 7  22622187.109 0  22622186.718 0
 88  2 27  5 39 59.0800000  0  4  6  8 11  9
  -4679254.110 7  -3646171.615 7  20866607.315 0  20866605.822 0
   -261454.775 7   -203730.612 7  20227205.181 0  20227204.716 0
  -6129766.858 7  -4680576.993 6  21226243.700 0  21226243.247 0
  -7571745.982 8  -4041700.986 7  22605158.387 0  22605157.737 0
 88  2 27  5 40 29.0800000  0  4  6  8 11  9
  -4715757.508 7  -3674615.825 7  20859660.612 0  20859661.057 0
   -231998.889 7   -180777.969 7  20232811.090 0  20232810.621 0
  -6189129.289 7  -4726833.413 7  21214947.136 0  21214947.566 0
  -7661157.618 8  -4111372.393 7  22588143.848 0  22588144.165 0
 88  2 27  5 40 59.0800000  0  4  6  8 11  9
  -4751920.357 7  -3702794.665 7  20852778.780 0  20852778.062 0
   -201914.313 7   -157335.444 6  20238535.986 0  20238535.359 0
  -6247991.602 7  -4772700.146 6  21203745.366 0  21203747.255 0
  -7750493.404 8  -4180984.692 7  22571143.274 0  22571142.767 0
 88  2 27  5 41 29.0800000  0  4  6  8 11  9
  -4787739.682 7  -3730705.824 7  20845962.894 0  20845962.326 0
   -171201.951 7   -133403.738 6  20244379.740 0  20244379.171 0
  -6306352.036 8  -4818175.787 7  21192640.068 0  21192641.328 0
  -7839750.177 7  -4250535.439 7  22554158.664 0  22554157.453 0
 88  2 27  5 41 59.0800000  0  4  6  8 11  9
  -4823213.910 8  -3758348.088 7  20839212.084 0  20839212.754 0
   -139864.983 7   -108985.308 7  20250342.889 0  20250343.495 0
  -6364210.159 7  -4863260.044 6  21181630.595 0  21181632.045 0
  -7928926.661 7  -4320023.629 6  22537189.376 0  22537189.322 0
 88  2 27  5 42 29.0800000  0  4  6  8 11  9
  -4858339.267 8  -3785718.501 7  20832527.523 0  20832527.680 0
   -107904.112 7    -84080.733 6  20256425.406 0  20256425.555 0
  -6421563.059 7  -4907950.597 7  21170715.981 0  21170717.957 0
  -8018019.439 8  -4389446.584 7  22520234.632 0  22520234.643 0
 88  2 27  5 42 59.0800000  0  4  6  8 11  9
  -4893114.857 7  -3812816.356 7  20825910.869 0  20825910.743 0
    -75322.493 7    -58692.449 8  20262624.798 0  20262624.974 0
  -6478411.131 7  -4952247.789 6  21159898.699 0  21159900.226 0
  -8107027.761 7  -4458803.698 7  22503297.178 0  22503297.371 0
 88  2 27  5 43 29.0800000  0  4  6  8 11  9
  -4927539.141 7  -3839640.471 7  20819360.607 0  20819359.309 0
    -42123.088 7    -32822.802 7  20268942.134 0  20268943.416 0
  -6534754.244 8  -4996151.493 7  21149175.972 0  21149178.248 0
  -8195950.383 7  -4528094.038 7  22486376.123 0  22486375.488 0
 88  2 27  5 43 59.0800000  0  4  6  8 11  9
  -4961608.327 7  -3866187.895 7  20812876.389 0  20812876.914 0
     -8306.616 7     -6472.291 7  20275377.138 0  20275378.198 0
  -6590589.523 7  -5039659.481 7  21138551.521 0  21138551.931 0
  -8284783.441 7  -4597314.592 7  22469471.124 0  22469471.458 0
 88  2 27  5 44 29.0800000  0  4  6  8 11  9
  -4995319.702 8  -3892456.499 7  20806461.149 0  20806461.769 0
     26125.000 7     20357.543 7  20281929.084 0  20281929.342 0
  -6645915.739 7  -5082770.811 7  21128023.561 0  21128024.653 0
  -8373524.599 8  -4666463.521 7  22452585.322 0  22452585.103 0
 88  2 27  5 44 59.0800000  0  4  6  8 11  9
  -5028672.210 7  -3918445.471 7  20800114.428 0  20800114.373 0
     61168.185 7     47663.918 6  20288597.016 0  20288598.375 0
  -6700733.059 7  -5125485.594 7  21117591.635 0  21117592.217 0
  -8462172.589 7  -4735539.869 7  22435715.430 0  22435715.926 0
 88  2 27  5 45 29.0800000  0  4  6  8 11  9
  -5061662.414 8  -3944152.114 7  20793836.768 0  20793837.283 0
     96822.116 7     75446.207 7  20295383.199 0  20295383.961 0
  -6755038.804 7  -5167801.737 7  21107257.641 0  21107260.297 0
  -8550724.407 7  -4804541.271 7  22418864.720 0  22418864.972 0
 88  2 27  5 45 59.0800000  0  4  6  8 11  9
  -5094288.485 8  -3969575.027 7  20787628.336 0  20787628.124 0
    133084.205 7    103702.381 7  20302283.519 0  20302283.560 0
  -6808832.519 8  -5209718.912 6  21097021.102 0  21097022.051 0
  -8639177.947 7  -4873466.096 7  22402033.006 0  22402031.830 0
 88  2 27  5 46 29.0800000  0  4  6  8 11  9
  -5126548.335 7  -3994712.578 7  20781489.550 0  20781489.669 0
    169951.461 7    132430.113 7  20309298.787 0  20309299.065 0
  -6862113.949 7  -5251236.897 6  21086882.304 0  21086882.405 0
  -8727531.728 7  -4942313.208 7  22385219.757 0  22385220.209 0
 88  2 27  5 46 59.0800000  0  4  6  8 11  9
  -5158439.309 7  -4019562.670 7  20775420.284 0  20775420.901 0
    207421.973 7    161627.919 7  20316429.258 0  20316429.844 0
  -6914881.520 8  -5292354.461 7  21076840.542 0  21076842.102 0
  -8815782.870 7  -5011080.321 7  22368425.706 0  22368425.608 0
 88  2 27  5 47 29.0800000  0  4  6  8 11  9
  -5189959.540 7  -4044123.901 7  20769423.657 0  20769423.251 0
    245493.455 7    191294.003 6  20323674.620 0  20323674.166 0
  -6967134.701 7  -5333071.223 7  21066897.475 0  21066898.272 0
  -8903929.321 8  -5079765.863 7  22351652.069 0  22351652.488 0
 88  2 27  5 47 59.0800000  0  4  6  8 11  9
  -5221106.123 8  -4068393.957 7  20763495.857 0  20763495.305 0
    284164.016 7    221426.914 7  20331032.801 0  20331033.722 0
  -7018871.546 7  -5373385.637 7  21057052.092 0  21057053.195 0
  -8991968.417 8  -5148367.743 7  22334899.778 0  22334898.945 0
 88  2 27  5 48 29.0800000  0  4  6  8 11  9
  -5251875.744 7  -4092370.278 7  20757640.445 0  20757640.146 0
    323432.360 7    252025.607 7  20338504.739 0  20338505.556 0
  -7070090.418 7  -5413296.439 7  21047305.605 0  21047307.385 0
  -9079897.017 8  -5216883.527 7  22318166.494 0  22318166.688 0
 88  2 27  5 48 59.0800000  0  4  6  8 11  9
  -5282267.434 8  -4116052.123 7  20751856.719 0  20751857.021 0
    363294.702 7    283087.166 6  20346091.668 0  20346090.526 0
  -7120791.613 7  -5452803.847 7  21037656.888 0  21037658.615 0
  -9167713.843 7  -5285312.204 7  22301455.418 0  22301455.358 0
 88  2 27  5 49 29.0800000  0  4  6  8 11  9
  -5312279.480 7  -4139438.131 8  20746146.378 0  20746146.501 0
    403748.094 7    314609.289 7  20353788.696 0  20353790.211 0
  -7170975.119 7  -5491907.861 7  21028107.181 0  21028109.003 0
  -9255417.376 8  -5353652.607 7  22284766.407 0  22284765.684 0
 88  2 27  5 49 59.0800000  0  4  6  8 11  9
  -5341908.538 7  -4162525.711 7  20740507.337 0  20740507.675 0
    444790.578 7    346590.450 7  20361598.584 0  20361598.899 0
  -7220638.645 7  -5530606.707 6  21018657.562 0  21018657.820 0
  -9343004.177 8  -5421902.068 7  22268098.918 0  22268098.276 0
 88  2 27  5 50 29.0800000  0  4  6  8 11  9
  -5371152.417 7  -4185313.145 7  20734942.957 0  20734942.668 0
    486420.159 7    379029.076 7  20369521.834 0  20369521.155 0
  -7269781.608 7  -5568899.893 7  21009304.568 0  21009307.073 0
  -9430471.904 8  -5490058.743 7  22251454.293 0  22251453.856 0
 88  2 27  5 50 59.0800000  0  4  6  8 11  9
  -5400008.993 7  -4207798.801 7  20729451.871 0  20729451.193 0
    528634.482 7    411923.364 7  20377554.494 0  20377554.983 0
  -7318403.215 7  -5606786.848 6  21000052.673 0  21000054.729 0
  -9517818.317 8  -5558120.868 7  22234832.066 0  22234832.519 0
 88  2 27  5 51 29.0800000  0  4  6  8 11  9
  -5428476.324 7  -4229981.139 6  20724034.249 0  20724034.527 0
    571430.569 7    445270.965 7  20385697.531 0  20385698.410 0
  -7366502.944 7  -5644267.146 7  20990899.999 0  20990901.124 0
  -9605041.740 7  -5626087.149 7  22218233.884 0  22218234.477 0
 88  2 27  5 51 59.0800000  0  4  6  8 11  9
  -5456551.914 7  -4251858.216 7  20718691.912 0  20718691.577 0
    614806.059 7    479070.046 6  20393951.182 0  20393951.801 0
  -7414079.728 7  -5681339.954 7  20981846.410 0  20981848.171 0
  -9692139.215 7  -5693955.286 7  22201659.839 0  22201659.887 0
 88  2 27  5 52 29.0800000  0  4  6  8 11  9
  -5484233.724 7  -4273428.465 8  20713424.230 0  20713424.308 0
    658758.395 7    513318.613 6  20402315.960 0  20402314.593 0
  -7461133.468 7  -5718005.169 7  20972891.784 0  20972893.659 0
  -9779109.051 8  -5761723.975 6  22185110.841 0  22185110.197 0
 88  2 27  5 52 59.0800000  0  4  6  8 11  9
  -5511519.019 7  -4294689.736 7  20708231.393 0  20708231.486 0
    703285.686 7    548015.211 7  20410789.053 0  20410789.415 0
  -7507662.643 7  -5754261.664 7  20964038.143 0  20964040.113 0
  -9865947.688 7  -5829390.446 6  22168586.111 0  22168584.997 0
 88  2 27  5 53 29.0800000  0  4  6  8 11  9
  -5538405.934 7  -4315640.584 7  20703114.838 0  20703115.894 0
    748384.777 7    583157.358 7  20419371.645 0  20419371.442 0
  -7553666.775 7  -5790109.026 7  20955283.664 0  20955284.933 0
  -9952653.502 7  -5896953.435 7  22152086.147 0  22152086.420 0
 88  2 27  5 53 59.0800000  0  4  6  8 11  9
  -5564891.662 7  -4336278.807 7  20698076.121 0  20698075.760 0
    794053.611 7    618743.467 7  20428061.928 0  20428061.154 0
  -7599145.015 7  -5825546.602 7  20946629.245 0  20946631.669 0
 -10039223.905 7  -5964410.886 6  22135611.740 0  22135612.341 0
 88  2 27  5 54 29.0800000  0  4  6  8 11  9
  -5590973.920 7  -4356602.652 7  20693111.787 0  20693111.555 0
    840290.147 8    654771.938 6  20436861.010 0  20436860.210 0
  -7644096.057 7  -5860573.370 7  20938075.487 0  20938076.856 0
 -10125655.478 7  -6031760.143 7  22119164.370 0  22119164.975 0
 88  2 27  5 54 59.0800000  0  4  6  8 11  9
  -5616651.135 7  -4376610.869 7  20688225.661 0  20688225.837 0
    887090.755 7    691239.949 7  20445765.847 0  20445766.491 0
  -7688520.059 7  -5895189.457 7  20929622.226 0  20929623.543 0
 -10211947.379 8  -6099000.566 7  22102744.504 0  22102743.660 0
 88  2 27  5 55 29.0800000  0  4  6  8 11  9
  -5641921.523 7  -4396302.086 7  20683417.231 0  20683417.680 0
    934452.748 8    728145.404 7  20454778.484 0  20454778.472 0
  -7732416.845 7  -5929394.733 7  20921268.529 0  20921269.002 0
 -10298096.928 8  -6166130.082 7  22086350.514 0  22086350.198 0
 88  2 27  5 55 59.0800000  0  4  6  8 11  9
  -5666781.392 7  -4415673.415 7  20678686.027 0  20678685.831 0
    982374.697 7    765487.189 6  20463898.556 0  20463898.985 0
  -7775784.659 7  -5963187.818 7  20913016.208 0  20913017.348 0
 -10384100.535 8  -6233145.880 7  22069984.044 0  22069984.456 0
 88  2 27  5 56 29.0800000  0  4  6  8 11  9
  -5691229.320 7  -4434723.750 7  20674033.748 0  20674034.597 0
   1030852.909 7    803262.419 7  20473122.857 0  20473122.956 0
  -7818623.561 6  -5996568.754 6  20904863.469 0  20904865.448 0
 -10469956.682 8  -6300046.766 7  22053646.341 0  22053645.987 0
 88  2 27  5 56 59.0800000  0  4  6  8 11  9
  -5715262.641 7  -4453451.011 7  20669461.224 0  20669460.780 0
   1079885.484 7    841469.614 7  20482453.874 0  20482453.549 0
  -7860932.229 7  -6029536.541 8  20896813.527 0  20896813.441 0
 -10555661.981 8  -6366830.113 7  22037337.829 0  22037337.257 0
 88  2 27  5 57 29.0800000  0  4  6  8 11  9
  -5738879.789 7  -4471853.981 7  20664966.487 0  20664967.374 0
   1129468.787 8    880105.944 7  20491889.264 0  20491889.126 0
  -7902710.907 7  -6062091.337 6  20888862.481 0  20888864.761 0
 -10641214.652 7  -6433494.528 8  22021057.328 0  22021057.889 0
 88  2 27  5 57 59.0800000  0  4  6  8 11  9
  -5762077.522 7  -4489930.136 7  20660551.877 0  20660551.800 0
   1179601.400 7    919170.314 8  20501428.650 0  20501429.614 0
  -7943958.358 7  -6094232.199 7  20881013.784 0  20881014.987 0
 -10726611.479 8  -6500037.496 7  22004807.014 0  22004806.805 0
 88  2 27  5 58 29.0800000  0  4  6  8 11  9
  -5784855.566 7  -4507679.265 7  20656217.811 0  20656217.703 0
   1230278.697 8    958659.120 6  20511073.014 0  20511073.333 0
  -7984675.573 7  -6125959.896 7  20873264.984 0  20873266.496 0
 -10811851.679 7  -6566458.413 7  21988586.789 0  21988586.280 0
 88  2 27  5 58 59.0800000  0  4  6  8 11  9
  -5807210.562 7  -4525098.751 7  20651964.069 0  20651964.653 0
   1281499.118 8    998571.139 6  20520819.571 0  20520819.613 0
  -8024860.846 7  -6157273.074 7  20865618.113 0  20865619.206 0
 -10896931.328 7  -6632754.234 7  21972395.641 0  21972395.638 0
 88  2 27  5 59 29.0800000  0  4  6  8 11  9
  -5829139.208 7  -4542186.007 7  20647790.820 0  20647790.106 0
   1333260.733 7   1038904.879 6  20530669.925 0  20530669.317 0
  -8064512.607 7  -6188170.541 6  20858073.210 0  20858074.698 0
 -10981846.720 7  -6698922.063 7  21956236.648 0  21956237.925 0
 88  2 27  5 59 59.0800000  0  4  6  8 11  9
  -5850640.611 7  -4558940.354 7  20643699.382 0  20643699.065 0
   1385560.027 7   1079657.576 7  20540621.221 0  20540621.262 0
  -8103632.049 7  -6218653.207 7  20850628.833 0  20850629.864 0
 -11066596.805 8  -6764961.091 8  21940109.782 0  21940109.430 0
 88  2 27  6  0 29.0800000  0  4  6  8 11  9
  -5871713.683 7  -4575360.926 7  20639688.725 0  20639688.892 0
   1438392.835 7   1120826.001 7  20550676.340 0  20550674.900 0
  -8142219.510 7  -6248721.346 7  20843285.708 0  20843287.001 0
 -11151180.569 7  -6830870.506 7  21924013.653 0  21924013.845 0
 88  2 27  6  0 59.0800000  0  4  6  8 11  9
  -5892355.337 7  -4591445.333 7  20635760.511 0  20635761.357 0
   1491757.108 7   1162408.562 7  20560830.567 0  20560828.984 0
  -8180273.618 7  -6278373.903 7  20836044.904 0  20836045.963 0
 -11235593.548 8  -6896646.855 8  21907950.051 0  21907951.711 0
 88  2 27  6  1 29.0800000  0  4  6  8 11  9
  -5912562.243 7  -4607190.977 7  20631915.816 0  20631914.986 0
   1545651.660 8   1204404.333 6  20571085.872 0  20571085.212 0
  -8217792.829 7  -6307609.638 7  20828904.502 0  20828905.676 0
 -11319832.436 8  -6962287.525 7  21891920.493 0  21891921.347 0
 88  2 27  6  1 59.0800000  0  4  6  8 11  9
  -5932333.532 7  -4622597.168 7  20628153.312 0  20628153.660 0
   1600072.592 8   1246810.241 7  20581442.061 0  20581440.642 0
  -8254777.906 7  -6336429.169 6  20821866.612 0  20821868.439 0
 -11403896.082 8  -7027791.651 7  21875923.452 0  21875922.968 0
 88  2 27  6  2 29.0800000  0  4  6  8 11  9
  -5951667.716 7  -4637662.776 7  20624474.421 0  20624474.375 0
   1655015.948 8   1289623.239 7  20591896.975 0  20591897.366 0
  -8291229.540 7  -6364833.033 8  20814930.202 0  20814931.795 0
 -11487781.891 8  -7093157.195 7  21859960.707 0  21859960.919 0
 88  2 27  6  2 59.0800000  0  4  6  8 11  9
  -5970561.542 7  -4652385.241 7  20620878.556 0  20620878.628 0
   1710480.544 7   1332842.411 7  20602452.095 0  20602452.650 0
  -8327146.079 7  -6392819.944 7  20808095.473 0  20808096.470 0
 -11571487.034 8  -7158381.990 7  21844031.984 0  21844032.078 0
 88  2 27  6  3 29.0800000  0  4  6  8 11  9
  -5989013.191 7  -4666763.141 6  20617367.379 0  20617367.839 0
   1766463.027 7   1376465.119 7  20613105.162 0  20613105.639 0
  -8362527.620 7  -6420389.955 6  20801362.130 0  20801363.150 0
 -11655008.612 8  -7223463.742 7  21828138.283 0  21828138.281 0
 88  2 27  6  3 59.0800000  0  4  6  8 11  9
  -6007020.730 7  -4680794.998 7  20613941.719 0  20613940.617 0
   1822960.475 7   1420489.105 7  20623855.738 0  20623856.486 0
  -8397373.916 7  -6447542.916 7  20794731.994 0  20794733.010 0
 -11738344.059 8  -7288400.439 8  21812280.168 0  21812280.545 0
 88  2 27  6  4 29.0800000  0  4  6  8 11  9
  -6024581.357 7  -4694478.612 7  20610598.632 0  20610599.425 0
   1879970.481 7   1464912.483 7  20634704.533 0  20634704.400 0
  -8431684.251 7  -6474278.225 7  20788201.879 0  20788203.568 0
 -11821490.344 8  -7353189.730 7  21796458.150 0  21796458.474 0
 88  2 27  6  4 59.0800000  0  4  6  8 11  9
  -6041694.078 7  -4707813.201 7  20607343.071 0  20607343.616 0
   1937489.231 7   1509732.280 7  20645650.232 0  20645650.292 0
  -8465459.162 6  -6500596.329 7  20781775.201 0  20781775.449 0
 -11904445.447 8  -7417830.061 7  21780672.347 0  21780672.485 0
 88  2 27  6  5 29.0800000  0  4  6  8 11  9
  -6058356.179 7  -4720796.653 7  20604172.196 0  20604172.029 0
   1995514.799 8   1554947.019 7  20656692.253 0  20656692.251 0
  -8498697.953 7  -6526496.668 7  20775450.538 0  20775451.033 0
 -11987206.541 8  -7482319.235 7  21764924.343 0  21764923.425 0
 88  2 27  6  5 59.0800000  0  4  6  8 11  9
  -6074565.787 7  -4733427.521 7  20601087.883 0  20601088.200 0
   2054043.891 7   1600554.103 7  20667828.952 0  20667829.512 0
  -8531400.701 7  -6551979.322 7  20769226.763 0  20769228.395 0
 -12069770.869 8  -7546655.076 7  21749212.112 0  21749211.383 0
 88  2 27  6  6 29.0800000  0  4  6  8 11  9
  -6090321.458 6  -4745704.667 7  20598090.145 0  20598089.313 0
   2113072.659 7   1646550.540 7  20679063.179 0  20679063.081 0
  -8563567.823 7  -6577044.590 7  20763106.846 0  20763106.260 0
 -12152136.175 7  -7610835.836 7  21733538.653 0  21733537.940 0
 88  2 27  6  6 59.0800000  0  4  6  8 11  9
  -6105620.613 7  -4757626.092 7  20595177.640 0  20595178.582 0
   2172599.106 7   1692934.787 7  20690389.815 0  20690390.501 0
  -8595198.337 7  -6601691.741 7  20757087.130 0  20757086.391 0
 -12234299.626 8  -7674859.305 6  21717903.400 0  21717902.592 0
 88  2 27  6  7 29.0800000  0  4  6  8 11  9
  -6120460.678 7  -4769189.770 7  20592355.075 0  20592354.922 0
   2232620.269 7   1739704.521 7  20701811.581 0  20701812.150 0
  -8626292.092 7  -6625920.633 6  20751170.432 0  20751170.704 0
 -12316257.924 8  -7738722.900 7  21702306.810 0  21702307.297 0
 88  2 27  6  7 59.0800000  0  4  6  8 11  9
  -6134840.225 7  -4780394.611 7  20589618.159 0  20589617.686 0
   2293133.248 7   1786857.481 7  20713327.069 0  20713326.242 0
  -8656849.185 7  -6649731.330 7  20745355.968 0  20745355.615 0
 -12398008.574 8  -7802424.711 6  21686750.607 0  21686749.980 0
 88  2 27  6  8 29.0800000  0  4  6  8 11  9
  -6148757.763 7  -4791239.443 7  20586969.171 0  20586969.500 0
   2354134.448 7   1834390.896 7  20724935.027 0  20724934.858 0
  -8686870.158 7  -6673124.282 6  20739642.030 0  20739642.679 0
 -12479549.457 7  -7865963.060 7  21671233.655 0  21671232.883 0
 88  2 27  6  8 59.0800000  0  4  6  8 11  9
  -6162210.563 7  -4801722.145 7  20584409.924 0  20584408.741 0
   2415621.527 8   1882302.900 7  20736635.847 0  20736635.862 0
  -8716354.155 7  -6696098.818 6  20734030.747 0  20734032.664 0
 -12560876.910 8  -7929335.104 7  21655757.595 0  21655757.295 0
 88  2 27  6  9 29.0800000  0  4  6  8 11  9
  -6175197.736 8  -4811842.028 7  20581937.880 0  20581938.101 0
   2477590.730 7   1930590.595 6  20748428.157 0  20748428.730 0
  -8745302.262 7  -6718655.775 7  20728522.376 0  20728524.183 0
 -12641990.060 8  -7992540.142 7  21640322.116 0  21640322.610 0
 88  2 27  6  9 59.0800000  0  4  6  8 11  9
  -6187716.173 7  -4821596.662 7  20579556.067 0  20579556.312 0
   2540039.858 7   1979252.243 7  20760311.769 0  20760312.010 0
  -8773713.358 6  -6740794.282 7  20723115.523 0  20723117.302 0
 -12722884.313 8  -8055574.620 7  21624928.665 0  21624928.994 0
 88  2 27  6 10 29.0800000  0  4  6  8 11  9
  -6199764.102 7  -4830984.653 7  20577262.942 0  20577263.004 0
   2602965.852 7   2028285.486 7  20772285.408 0  20772286.039 0
  -8801587.763 7  -6762514.579 6  20717812.212 0  20717813.380 0
 -12803557.570 7  -8118436.894 7  21609576.899 0  21609577.197 0
 88  2 27  6 10 59.0800000  0  4  6  8 11  9
  -6211339.999 7  -4840004.841 7  20575060.307 0  20575060.935 0
   2666365.182 7   2077687.567 7  20784350.598 0  20784350.498 0
  -8828925.936 7  -6783817.047 7  20712609.160 0  20712610.806 0
 -12884007.160 7  -8181124.874 7  21594267.460 0  21594267.460 0
 88  2 27  6 11 29.0800000  0  4  6  8 11  9
  -6222441.784 7  -4848655.591 7  20572948.329 0  20572948.257 0
   2730235.117 8   2127456.326 7  20796504.305 0  20796504.748 0
  -8855727.444 7  -6804701.325 7  20707508.410 0  20707510.466 0
 -12964229.880 7  -8243636.087 8  21579001.636 0  21579001.759 0
 88  2 27  6 11 59.0800000  0  4  6  8 11  9
  -6233067.154 7  -4856935.105 7  20570925.312 0  20570925.703 0
   2794573.128 8   2177589.838 7  20808747.959 0  20808747.872 0
  -8881992.139 7  -6825167.312 7  20702510.637 0  20702513.295 0
 -13044223.038 7  -8305968.408 7  21563779.552 0  21563779.526 0
 88  2 27  6 12 29.0800000  0  4  6  8 11  9
  -6243215.210 7  -4864842.688 7  20568995.476 0  20568995.333 0
   2859374.590 7   2228084.477 7  20821079.158 0  20821079.018 0
  -8907721.096 7  -6845215.843 7  20697614.795 0  20697616.665 0
 -13123984.924 7  -8368120.512 7  21548601.495 0  21548601.217 0
 88  2 27  6 12 59.0800000  0  4  6  8 11  9
  -6252884.126 7  -4872376.908 7  20567155.462 0  20567155.385 0
   2924637.038 8   2278938.338 8  20833497.617 0  20833498.303 0
  -8932914.522 7  -6864847.059 7  20692821.206 0  20692822.513 0
 -13203512.357 8  -8430089.938 7  21533468.546 0  21533468.502 0
 88  2 27  6 13 29.0800000  0  4  6  8 11  9
  -6262071.539 6  -4879535.932 8  20565406.447 0  20565406.684 0
   2990357.820 7   2330149.330 7  20846004.992 0  20846004.175 0
  -8957572.295 7  -6884060.898 7  20688128.458 0  20688129.827 0
 -13282802.616 7  -8491874.539 7  21518379.681 0  21518379.818 0
 88  2 27  6 13 59.0800000  0  4  6  8 11  9
  -6270775.106 7  -4886317.938 7  20563750.245 0  20563750.484 0
   3056534.462 7   2381715.535 7  20858597.505 0  20858598.261 0
  -8981693.831 7  -6902856.882 6  20683537.938 0  20683539.895 0
 -13361851.799 8  -8553471.305 7  21503336.588 0  21503337.932 0
 88  2 27  6 14 29.0800000  0  4  6  8 11  9
  -6278993.324 7  -4892721.734 7  20562186.631 0  20562185.707 0
   3123163.366 7   2433634.162 7  20871276.098 0  20871277.066 0
  -9005279.858 7  -6921235.593 7  20679050.395 0  20679051.181 0
 -13440657.806 7  -8614878.578 7  21488340.702 0  21488339.981 0
 88  2 27  6 14 59.0800000  0  4  6  8 11  9
  -6286725.010 7  -4898746.428 8  20560714.991 0  20560715.513 0
   3190241.144 8   2485902.554 7  20884041.344 0  20884041.849 0
  -9028331.405 7  -6939197.840 7  20674663.339 0  20674665.332 0
 -13519218.229 7  -8676094.485 7  21473390.803 0  21473390.586 0
 88  2 27  6 15 29.0800000  0  4  6  8 11  9
  -6293968.506 7  -4904390.721 7  20559336.348 0  20559337.288 0
   3257764.216 8   2538517.932 7  20896889.999 0  20896890.508 0
  -9050848.668 7  -6956743.746 7  20670377.716 0  20670379.189 0
 -13597530.508 7  -8737117.042 7  21458488.812 0  21458488.852 0
 88  2 27  6 15 59.0800000  0  4  6  8 11  9
  -6300721.350 7  -4909652.679 8  20558051.825 0  20558052.017 0
   3325730.233 8   2591478.459 7  20909823.198 0  20909823.610 0
  -9072831.084 7  -6973872.880 7  20666195.817 0  20666196.857 0
 -13675591.328 7  -8797943.645 7  21443633.870 0  21443634.598 0
 88  2 27  6 16 29.0800000  0  4  6  8 11  9
  -6306982.641 7  -4914531.607 7  20556860.817 0  20556860.651 0
   3394135.572 8   2644781.326 7  20922840.827 0  20922840.827 0
  -9094280.041 7  -6990586.332 6  20662114.844 0  20662115.134 0
 -13753398.558 8  -8858572.658 7  21428828.576 0  21428828.591 0
 88  2 27  6 16 59.0800000  0  4  6  8 11  9
  -6312749.270 7  -4919025.085 7  20555763.212 0  20555763.593 0
   3462978.370 8   2698425.063 7  20935941.746 0  20935940.904 0
  -9115194.375 8  -7006883.211 6  20658133.814 0  20658135.796 0
 -13830948.061 8  -8919000.853 7  21414070.910 0  21414070.826 0
 88  2 27  6 17 29.0800000  0  4  6  8 11  9
  -6318020.471 7  -4923132.518 7  20554759.912 0  20554760.804 0
   3532254.153 8   2752406.202 7  20949124.053 0  20949124.846 0
  -9135575.544 7  -7022764.629 6  20654256.341 0  20654256.931 0
 -13908237.669 7  -8979226.522 7  21399363.351 0  21399363.188 0
 88  2 27  6 17 59.0800000  0  4  6  8 11  9
  -6322794.874 7  -4926852.837 7  20553851.249 0  20553851.941 0
   3601959.969 7   2806722.420 7  20962388.440 0  20962388.575 0
  -9155424.420 7  -7038231.277 7  20650479.418 0  20650480.196 0
 -13985265.372 8  -9039248.101 6  21384706.679 0  21384705.172 0
 88  2 27  6 18 29.0800000  0  4  6  8 11  9
  -6327070.380 7  -4930184.416 7  20553038.418 0  20553038.090 0
   3672092.664 8   2861371.279 7  20975734.238 0  20975733.701 0
  -9174740.723 7  -7053282.932 6  20646803.459 0  20646804.683 0
 -14062027.620 8  -9099062.845 7  21370098.400 0  21370097.721 0
 88  2 27  6 18 59.0800000  0  4  6  8 11  9
  -6330844.755 7  -4933125.495 7  20552319.390 0  20552319.510 0
   3742649.689 7   2916350.763 8  20989160.718 0  20989161.551 0
  -9193524.480 7  -7067919.618 6  20643228.406 0  20643229.697 0
 -14138521.206 8  -9158668.224 7  21355542.691 0  21355541.625 0
 88  2 27  6 19 29.0800000  0  4  6  8 11  9
  -6334116.929 7  -4935675.248 7  20551697.869 0  20551696.420 0
   3813627.732 7   2971658.319 7  21002667.125 0  21002666.871 0
  -9211776.658 7  -7082142.092 7  20639754.784 0  20639755.787 0
 -14214743.690 8  -9218062.368 7  21341037.405 0  21341037.083 0
 88  2 27  6 19 59.0800000  0  4  6  8 11  9
  -6336884.889 8  -4937832.105 7  20551170.789 0  20551171.196 0
   3885023.702 8   3027291.548 7  21016253.831 0  21016253.925 0
  -9229497.507 7  -7095950.523 6  20636383.554 0  20636384.105 0
 -14290691.851 8  -9277242.756 7  21326584.152 0  21326584.105 0
 88  2 27  6 20 29.0800000  0  4  6  8 11  9
  -6339147.658 7  -4939595.311 7  20550739.719 0  20550739.906 0
   3956834.078 7   3083247.673 7  21029918.792 0  21029918.511 0
  -9246687.834 6  -7109345.585 7  20633110.923 0  20633113.445 0
 -14366363.543 8  -9336207.717 7  21312184.814 0  21312184.610 0
 88  2 27  6 20 59.0800000  0  4  6  8 11  9
  -6340902.593 7  -4940962.804 7  20550406.351 0  20550406.796 0
   4029056.399 8   3139524.802 7  21043662.519 0  21043662.177 0
  -9263347.254 7  -7122326.940 6  20629942.418 0  20629942.939 0
 -14441754.809 8  -9394954.156 7  21297838.223 0  21297837.976 0
 88  2 27  6 21 29.0800000  0  4  6  8 11  9
  -6342148.895 7  -4941933.949 7  20550168.861 0  20550169.130 0
   4101686.757 7   3196119.872 7  21057483.590 0  21057484.353 0
  -9279476.909 7  -7134895.501 7  20626872.348 0  20626873.977 0
 -14516863.523 7  -9453480.425 7  21283545.001 0  21283545.737 0
 88  2 27  6 21 59.0800000  0  4  6  8 11  9
  -6342886.160 7  -4942508.443 7  20550028.101 0  20550029.003 0
   4174720.792 8   3253029.514 7  21071381.104 0  21071381.470 0
  -9295078.973 7  -7147052.941 7  20623903.149 0  20623905.034 0
 -14591688.360 8  -9511785.486 7  21269307.616 0  21269307.152 0
 88  2 27  6 22 29.0800000  0  4  6  8 11  9
  -6343111.264 7  -4942683.850 7  20549986.097 0  20549985.588 0
   4248157.043 7   3310252.560 6  21085355.168 0  21085356.035 0
  -9310152.063 7  -7158798.191 6  20621035.019 0  20621037.782 0
 -14666224.444 8  -9569865.541 7  21255122.484 0  21255122.950 0
 88  2 27  6 22 59.0800000  0  4  6  8 11  9
  -6342822.034 7  -4942458.476 6  20550041.058 0  20550041.078 0
   4321992.627 8   3367786.770 7  21099406.061 0  21099406.158 0
  -9324696.296 7  -7170131.359 7  20618266.542 0  20618268.477 0
 -14740468.306 7  -9627717.899 8  21240996.110 0  21240993.701 0
 88  2 27  6 23 29.0800000  0  4  6  8 11  9
  -6342018.489 7  -4941832.346 7  20550193.540 0  20550193.221 0
   4396223.028 8   3425628.652 7  21113532.207 0  21113530.310 0
  -9338714.022 7  -7181054.255 7  20615598.658 0  20615601.065 0
 -14814419.027 7  -9685341.843 7  21226923.050 0  21226922.674 0
 88  2 27  6 23 59.0800000  0  4  6  8 11  9
  -6340699.118 8  -4940804.267 8  20550444.528 0  20550444.204 0
   4470845.160 7   3483775.766 7  21127731.457 0  21127731.622 0
  -9352205.752 7  -7191567.279 6  20613031.961 0  20613034.446 0
 -14888073.489 8  -9742734.918 7  21212905.999 0  21212906.763 0
 88  2 27  6 24 29.0800000  0  4  6  8 11  9
  -6338861.486 7  -4939372.344 7  20550794.419 0  20550793.978 0
   4545856.811 8   3542226.416 7  21142006.188 0  21142005.725 0
  -9365171.067 6  -7201670.123 7  20610564.774 0  20610566.116 0
 -14961427.550 7  -9799893.919 7  21198948.012 0  21198947.221 0
 88  2 27  6 24 59.0800000  0  4  6  8 11  9
  -6336503.401 7  -4937534.880 7  20551243.766 0  20551242.417 0
   4621255.611 7   3600978.726 7  21156354.556 0  21156353.289 0
  -9377609.861 7  -7211362.673 6  20608197.395 0  20608198.838 0
 -15034477.794 7  -9856816.180 7  21185045.921 0  21185046.356 0
 88  2 27  6 25 29.0800000  0  4  6  8 11  9
  -6333625.134 7  -4935292.100 7  20551790.248 0  20551790.582 0
   4697036.580 8   3660028.827 7  21170774.145 0  21170774.374 0
  -9389524.572 7  -7220646.865 7  20605930.108 0  20605933.238 0
 -15107223.034 7  -9913500.779 7  21171203.866 0  21171203.260 0
 88  2 27  6 25 59.0800000  0  4  6  8 11  9
  -6330224.741 8  -4932642.446 8  20552437.389 0  20552437.318 0
   4773196.917 8   3719374.532 8  21185267.518 0  21185267.612 0
  -9400915.443 7  -7229522.852 7  20603762.707 0  20603764.016 0
 -15179660.143 8  -9969945.279 7  21157418.450 0  21157420.139 0
 88  2 27  6 26 29.0800000  0  4  6  8 11  9
  -6326301.153 8  -4929585.112 7  20553184.447 0  20553184.467 0
   4849733.264 8   3779013.240 7  21199831.460 0  21199832.241 0
  -9411783.971 6  -7237991.824 7  20601695.077 0  20601697.319 0
 -15251786.110 7 -10026147.313 7  21143694.566 0  21143694.186 0
 88  2 27  6 26 59.0800000  0  4  6  8 11  9
  -6321852.664 7  -4926118.766 7  20554030.524 0  20554031.064 0
   4926642.750 8   3838942.690 7  21214466.926 0  21214468.015 0
  -9422129.873 7  -7246053.572 7  20599726.373 0  20599727.321 0
 -15323598.020 8 -10082104.644 7  21130029.492 0  21130028.484 0
 88  2 27  6 27 29.0800000  0  4  6  8 11  9
  -6316877.098 6  -4922241.709 7  20554977.978 0  20554977.684 0
   5003922.761 8   3899160.875 7  21229173.359 0  21229173.516 0
  -9431953.485 7  -7253708.324 7  20597856.403 0  20597859.115 0
 -15395092.056 7 -10137814.284 7  21116424.626 0  21116423.781 0
 88  2 27  6 27 59.0800000  0  4  6  8 11  9
  -6311374.440 7  -4917953.945 7  20556024.642 0  20556024.753 0
   5081568.948 7   3959664.395 7  21243948.973 0  21243949.332 0
  -9441257.066 7  -7260957.864 7  20596085.652 0  20596087.847 0
 -15466266.753 7 -10193275.078 7  21102879.950 0  21102879.631 0
 88  2 27  6 28 29.0800000  0  4  6  8 11  9
  -6305343.197 7  -4913254.264 7  20557173.130 0  20557172.463 0
   5159578.100 8   4020450.738 8  21258793.176 0  21258794.403 0
  -9450041.564 7  -7267802.922 7  20594414.506 0  20594416.112 0
 -15537118.831 7 -10248484.480 7  21089396.630 0  21089397.813 0
 88  2 27  6 28 59.0800000  0  4  6  8 11  9
  -6298781.512 7  -4908141.275 7  20558420.772 0  20558421.092 0
   5237948.049 8   4081518.228 8  21273707.491 0  21273707.016 0
  -9458306.502 7  -7274243.134 7  20592842.028 0  20592843.894 0
 -15607645.104 7 -10303440.021 7  21075976.530 0  21075975.980 0
 88  2 27  6 29 29.0800000  0  4  6  8 11  9
  -6291687.773 7  -4902613.688 7  20559770.089 0  20559771.068 0
   5316675.450 7   4142864.249 7  21288688.773 0  21288688.443 0
  -9466052.705 7  -7280279.116 7  20591367.617 0  20591369.241 0
 -15677841.973 7 -10358138.873 7  21062618.215 0  21062617.893 0
 88  2 27  6 29 59.0800000  0  4  6  8 11  9
  -6284061.167 7  -4896670.889 7  20561222.456 0  20561223.164 0
   5395756.720 8   4204486.017 7  21303736.915 0  21303737.244 0
  -9473281.949 7  -7285912.305 7  20589991.996 0  20589994.479 0
 -15747707.298 7 -10412579.397 7  21049322.915 0  21049323.499 0
 88  2 27  6 30 29.0800000  0  4  6  8 11  9
  -6275901.447 7  -4890312.669 7  20562774.374 0  20562775.443 0
   5475187.633 8   4266380.224 7  21318852.082 0  21318852.646 0
  -9479995.914 7  -7291143.946 7  20588715.088 0  20588716.639 0
 -15817238.915 7 -10466759.866 7  21036092.667 0  21036092.551 0
 88  2 27  6 30 59.0800000  0  4  6  8 11  9
  -6267206.234 8  -4883537.187 7  20564430.171 0  20564430.319 0
   5554966.042 7   4328545.211 7  21334033.037 0  21334033.498 0
  -9486194.588 6  -7295974.082 7  20587535.463 0  20587536.478 0
 -15886433.095 8 -10520677.404 7  21022925.038 0  21022924.732 0
 88  2 27  6 31 29.0800000  0  4  6  8 11  9
  -6257974.875 7  -4876343.930 7  20566186.451 0  20566185.951 0
   5635088.628 8   4390978.399 7  21349280.813 0  21349280.109 0
  -9491879.030 7  -7300403.507 7  20586452.543 0  20586454.701 0
 -15955287.297 7 -10574330.026 7  21009822.371 0  21009821.362 0
 88  2 27  6 31 59.0800000  0  4  6  8 11  9
  -6248205.018 8  -4868731.060 8  20568045.577 0  20568045.487 0
   5715552.898 7   4453677.817 7  21364590.645 0  21364591.569 0
  -9497049.411 7  -7304432.374 6  20585469.338 0  20585470.713 0
 -16023797.305 8 -10627714.465 7  20996784.952 0  20996785.078 0
 88  2 27  6 32 29.0800000  0  4  6  8 11  9
  -6237895.844 7  -4860697.957 7  20570007.451 0  20570008.020 0
   5796355.579 7   4516640.936 8  21379967.040 0  21379966.860 0
  -9501707.090 7  -7308061.734 7  20584582.650 0  20584584.005 0
 -16091960.900 8 -10680828.937 7  20983814.186 0  20983813.572 0
 88  2 27  6 32 59.0800000  0  4  6  8 11  9
  -6227046.919 7  -4852244.257 7  20572071.962 0  20572072.206 0
   5877492.929 8   4579864.853 7  21395408.019 0  21395408.047 0
  -9505853.489 7  -7311292.689 7  20583793.743 0  20583796.206 0
 -16159775.474 7 -10733671.449 7  20970909.387 0  20970908.854 0
 88  2 27  6 33 29.0800000  0  4  6  8 11  9
  -6215657.327 7  -4843369.251 7  20574238.492 0  20574239.446 0
   5958961.418 8   4643346.794 7  21410910.821 0  21410911.073 0
  -9509489.881 7  -7314126.238 7  20583102.560 0  20583104.068 0
 -16227238.612 8 -10786240.138 7  20958071.702 0  20958070.794 0
 88  2 27  6 33 59.0800000  0  4  6  8 11  9
  -6203725.852 7  -4834072.020 7  20576509.670 0  20576509.320 0
   6040757.856 8   4707084.288 7  21426476.358 0  21426476.831 0
  -9512617.552 7  -7316563.377 7  20582506.498 0  20582507.880 0
 -16294347.192 7 -10838532.546 7  20945301.380 0  20945301.417 0
 88  2 27  6 34 29.0800000  0  4  6  8 11  9
  -6191251.276 7  -4824351.569 7  20578883.076 0  20578883.247 0
   6122879.467 8   4771075.141 7  21442103.934 0  21442103.722 0
  -9515237.049 7  -7318604.537 6  20582008.784 0  20582008.951 0
 -16361098.175 7 -10890546.284 7  20932599.314 0  20932598.810 0
 88  2 27  6 34 59.0800000  0  4  6  8 11  9
  -6178232.626 7  -4814207.174 7  20581360.673 0  20581361.421 0
   6205322.556 7   4835316.510 7  21457791.838 0  21457791.365 0
  -9517349.785 7  -7320250.821 7  20581606.214 0  20581606.716 0
 -16427488.624 8 -10942279.090 7  20919965.587 0  20919965.686 0
 88  2 27  6 35 29.0800000  0  4  6  8 11  9
  -6164668.015 7  -4803637.358 7  20583941.712 0  20583941.520 0
   6288085.312 8   4899806.971 8  21473541.125 0  21473541.626 0
  -9518955.952 7  -7321502.374 7  20581301.466 0  20581302.882 0
 -16493514.825 8 -10993728.087 7  20907400.918 0  20907399.405 0
 88  2 27  6 35 59.0800000  0  4  6  8 11  9
  -6150555.930 7  -4792640.925 7  20586626.516 0  20586627.199 0
   6371164.511 8   4964544.006 7  21489351.399 0  21489350.657 0
  -9520056.249 7  -7322359.740 7  20581090.679 0  20581093.335 0
 -16559173.409 7 -11044890.622 7  20894905.760 0  20894906.959 0
 88  2 27  6 36 29.0800000  0  4  6  8 11  9
  -6135897.644 7  -4781218.897 7  20589417.633 0  20589417.475 0
   6454554.731 8   5029523.394 7  21505219.489 0  21505219.082 0
  -9520654.243 6  -7322825.701 7  20580977.521 0  20580978.669 0
 -16624463.646 7 -11095766.129 7  20882482.553 0  20882482.666 0
 88  2 27  6 36 59.0800000  0  4  6  8 11  9
  -6120691.433 7  -4769369.905 7  20592310.464 0  20592309.505 0
   6538253.752 7   5094743.416 7  21521147.381 0  21521146.363 0
  -9520750.152 7  -7322900.423 7  20580958.285 0  20580960.936 0
 -16689382.122 7 -11146351.957 7  20870128.800 0  20870129.097 0
 88  2 27  6 37 29.0800000  0  4  6  8 11  9
  -6104934.877 7  -4757092.083 7  20595308.770 0  20595308.950 0
   6622259.746 7   5160202.626 7  21537133.342 0  21537132.069 0
  -9520343.676 4  -7322583.683 5  20581038.021 0  20581038.696 0
 -16753924.240 7 -11196644.521 7  20857847.294 0  20857847.785 0
 88  2 27  6 37 59.0800000  0  4  6  8 11  9
  -6088628.356 7  -4744385.701 8  20598412.778 0  20598411.827 0
   6706568.014 8   5225897.379 7  21553175.918 0  21553175.167 0
  -9519437.316 7  -7321877.422 7  20581209.095 0  20581210.421 0
 -16818088.724 8 -11246642.820 7  20845636.870 0  20845636.543 0
 88  2 27  6 38 29.0800000  0  4  6  8 11  9
  -6071772.250 7  -4731251.100 7  20601619.096 0  20601620.607 0
   6791174.584 7   5291824.568 7  21569275.626 0  21569275.871 0
  -9518033.628 7  -7320783.629 7  20581476.681 0  20581477.320 0
 -16881873.510 8 -11296345.245 7  20833499.138 0  20833498.831 0
 88  2 27  6 38 59.0800000  0  4  6  8 11  9
  -6054363.599 7  -4717685.914 7  20604932.304 0  20604933.085 0
   6876078.028 8   5357983.104 7  21585432.350 0  21585432.988 0
  -9516131.540 7  -7319301.480 7  20581837.455 0  20581839.755 0
 -16945273.739 8 -11345748.029 7  20821434.611 0  20821434.552 0
 88  2 27  6 39 29.0800000  0  4  6  8 11  9
  -6036401.702 7  -4703689.633 7  20608350.656 0  20608350.450 0
   6961274.970 7   5424370.341 7  21601644.930 0  21601644.473 0
  -9513732.697 7  -7317432.252 7  20582294.238 0  20582296.837 0
 -17008286.651 8 -11394848.978 7  20809443.912 0  20809443.710 0
 88  2 27  6 39 59.0800000  0  4  6  8 11  9
  -6017886.067 8  -4689261.879 6  20611873.924 0  20611874.461 0
   7046762.245 8   5490983.804 7  21617912.672 0  21617912.973 0
  -9510838.887 7  -7315177.330 7  20582845.571 0  20582847.133 0
 -17070909.883 8 -11443646.311 7  20797527.035 0  20797526.124 0
 88  2 27  6 40 29.0800000  0  4  6  8 11  9
  -5998817.099 7  -4674402.950 7  20615502.163 0  20615503.344 0
   7132535.570 8   5557820.173 7  21634234.144 0  21634235.025 0
  -9507452.425 7  -7312538.529 7  20583488.938 0  20583491.251 0
 -17133141.706 8 -11492138.652 7  20785684.079 0  20785684.395 0
 88  2 27  6 40 59.0800000  0  4  6  8 11  9
  -5979193.205 7  -4659111.608 7  20619236.948 0  20619237.257 0
   7218592.161 7   5624877.260 7  21650610.629 0  21650611.180 0
  -9503573.491 7  -7309515.972 7  20584226.695 0  20584228.332 0
 -17194978.452 7 -11540323.108 7  20773917.126 0  20773917.564 0
 88  2 27  6 41 29.0800000  0  4  6  8 11  9
  -5959012.871 8  -4643386.689 7  20623076.792 0  20623077.315 0
   7304929.870 8   5692153.394 7  21667040.307 0  21667040.874 0
  -9499202.854 7  -7306110.285 6  20585059.058 0  20585061.382 0
 -17256416.214 8 -11588196.686 7  20762226.212 0  20762225.824 0
 88  2 27  6 41 59.0800000  0  4  6  8 11  9
  -5938275.033 7  -4627227.342 7  20627023.210 0  20627022.760 0
   7391545.721 8   5759646.269 7  21683523.538 0  21683522.810 0
  -9494341.909 7  -7302322.533 7  20585984.548 0  20585986.071 0
 -17317452.058 7 -11635757.089 6  20750610.597 0  20750611.392 0
 88  2 27  6 42 29.0800000  0  4  6  8 11  9
  -5916980.347 7  -4610634.076 7  20631076.117 0  20631076.140 0
   7478435.587 7   5827352.668 7  21700057.896 0  21700057.654 0
  -9488992.983 7  -7298154.526 7  20587002.483 0  20587004.524 0
 -17378084.376 7 -11683003.055 7  20739072.420 0  20739073.694 0
 88  2 27  6 42 59.0800000  0  4  6  8 11  9
  -5895128.947 7  -4593607.032 7  20635232.595 0  20635233.633 0
   7565595.286 8   5895269.305 8  21716643.989 0  21716642.987 0
  -9483158.722 7  -7293608.338 7  20588112.773 0  20588112.811 0
 -17438311.348 7 -11729933.151 7  20727612.374 0  20727612.425 0
 88  2 27  6 43 29.0800000  0  4  6  8 11  9
  -5872718.177 7  -4576144.111 7  20639497.993 0  20639497.801 0
   7653023.211 8   5963394.960 7  21733280.049 0  21733281.223 0
  -9476838.175 7  -7288683.236 7  20589315.711 0  20589316.497 0
 -17498127.820 8 -11776543.392 7  20716229.974 0  20716230.340 0
 88  2 27  6 43 59.0800000  0  4  6  8 11  9
  -5849746.633 8  -4558244.208 7  20643870.025 0  20643870.562 0
   7740717.135 7   6031727.869 7  21749967.843 0  21749968.524 0
  -9470032.335 7  -7283379.966 7  20590611.412 0  20590611.697 0
 -17557530.413 7 -11822831.136 7  20704924.904 0  20704925.910 0
 88  2 27  6 44 29.0800000  0  4  6  8 11  9
  -5826214.882 8  -4539907.784 7  20648348.430 0  20648348.395 0
   7828672.869 8   6100264.809 7  21766705.184 0  21766705.421 0
  -9462743.455 7  -7277700.327 7  20591997.437 0  20591999.689 0
 -17616517.058 7 -11868794.737 7  20693700.974 0  20693700.600 0
 88  2 27  6 44 59.0800000  0  4  6  8 11  9
  -5802123.621 8  -4521135.384 7  20652932.294 0  20652931.830 0
   7916886.199 8   6169002.461 7  21783492.128 0  21783492.951 0
  -9454974.377 7  -7271646.488 7  20593475.938 0  20593477.003 0
 -17675086.598 7 -11914433.342 7  20682556.078 0  20682555.803 0
 88  2 27  6 45 29.0800000  0  4  6  8 11  9
  -5777471.886 7  -4501926.244 7  20657622.934 0  20657623.042 0
   8005354.001 7   6237938.414 7  21800326.607 0  21800326.750 0
  -9446726.155 7  -7265219.305 7  20595045.535 0  20595046.814 0
 -17733235.635 7 -11959744.279 7  20671489.717 0  20671490.319 0
 88  2 27  6 45 59.0800000  0  4  6  8 11  9
  -5752257.662 7  -4482278.803 7  20662421.465 0  20662421.501 0
   8094075.062 7   6307071.724 7  21817209.493 0  21817209.623 0
  -9437998.854 7  -7258418.808 7  20596706.625 0  20596707.712 0
 -17790959.825 7 -12004724.158 7  20660505.184 0  20660505.993 0
 88  2 27  6 46 29.0800000  0  4  6  8 11  9
  -5726479.354 7  -4462191.816 7  20667326.914 0  20667325.720 0
   8183046.408 8   6376400.049 7  21834140.630 0  21834140.546 0
  -9428793.490 7  -7251245.797 7  20598457.466 0  20598460.176 0
 -17848256.149 7 -12049370.643 7  20649602.252 0  20649603.015 0
 88  2 27  6 46 59.0800000  0  4  6  8 11  9
  -5700138.888 7  -4441666.794 7  20672339.367 0  20672339.189 0
   8272263.335 8   6445919.742 7  21851118.086 0  21851118.223 0
  -9419113.545 7  -7243702.981 7  20600300.562 0  20600302.049 0
 -17905123.296 7 -12093682.690 6  20638779.899 0  20638781.245 0
 88  2 27  6 47 29.0800000  0  4  6  8 11  9
  -5673237.641 8  -4420704.800 7  20677457.965 0  20677458.918 0
   8361721.230 7   6515627.197 7  21868141.690 0  21868140.732 0
  -9408961.911 6  -7235792.607 7  20602231.953 0  20602233.626 0
 -17961559.591 7 -12137659.030 7  20628041.191 0  20628041.282 0
 88  2 27  6 47 59.0800000  0  4  6  8 11  9
  -5645771.776 7  -4399302.825 7  20682684.828 0  20682685.179 0
   8451419.773 7   6585522.178 7  21885209.716 0  21885210.210 0
  -9398337.329 7  -7227513.709 7  20604253.910 0  20604254.549 0
 -18017559.865 7 -12181295.616 7  20617385.131 0  20617384.453 0
 88  2 27  6 48 29.0800000  0  4  6  8 11  9
  -5617741.290 7  -4377460.901 7  20688018.808 0  20688019.374 0
   8541356.267 7   6655602.585 7  21902324.490 0  21902323.596 0
  -9387241.677 7  -7218867.739 7  20606365.199 0  20606365.931 0
 -18073121.478 8 -12224590.358 7  20606811.895 0  20606812.071 0
 88  2 27  6 48 59.0800000  0  4  6  8 11  9
  -5589146.370 7  -4355179.147 7  20693459.478 0  20693459.844 0
   8631526.493 8   6725865.106 7  21919483.529 0  21919483.051 0
  -9375677.071 7  -7209856.358 7  20608566.490 0  20608566.550 0
 -18128242.043 7 -12267541.447 6  20596322.584 0  20596322.579 0
 88  2 27  6 49 29.0800000  0  4  6  8 11  9
  -5559986.344 7  -4332457.053 7  20699008.955 0  20699008.936 0
   8721927.568 8   6796307.495 7  21936686.842 0  21936686.306 0
  -9363644.859 7  -7200480.586 7  20610855.618 0  20610857.548 0
 -18182918.723 7 -12310146.665 7  20585917.903 0  20585918.863 0
 88  2 27  6 49 59.0800000  0  4  6  8 11  9
  -5530261.169 8  -4309294.585 7  20704665.208 0  20704665.917 0
   8812556.217 7   6866927.220 7  21953931.794 0  21953932.124 0
  -9351146.773 7  -7190741.827 7  20613233.709 0  20613234.867 0
 -18237149.077 7 -12352404.076 7  20575597.741 0  20575597.524 0
 88  2 27  6 50 29.0800000  0  4  6  8 11  9
  -5499971.242 8  -4285692.056 7  20710429.323 0  20710429.202 0
   8903408.813 7   6937721.460 7  21971220.382 0  21971220.418 0
  -9338185.369 7  -7180642.022 7  20615699.713 0  20615702.008 0
 -18290931.114 7 -12394312.161 7  20565364.219 0  20565363.323 0
 88  2 27  6 50 59.0800000  0  4  6  8 11  9
  -5469115.700 7  -4261648.774 7  20716301.444 0  20716300.508 0
   8994482.471 7   7008687.947 7  21988550.230 0  21988550.467 0
  -9324761.705 7  -7170182.012 7  20618254.358 0  20618255.040 0
 -18344261.221 8 -12435868.093 6  20555215.364 0  20555216.064 0
 88  2 27  6 51 29.0800000  0  4  6  8 11  9
  -5437693.330 8  -4237163.819 6  20722281.141 0  20722281.264 0
   9085775.405 7   7079825.276 7  22005923.336 0  22005924.238 0
  -9310876.470 7  -7159362.340 7  20620897.413 0  20620897.873 0
 -18397135.938 7 -12477069.170 7  20545154.024 0  20545154.276 0
 88  2 27  6 51 59.0800000  0  4  6  8 11  9
  -5405704.223 7  -4212237.253 7  20728367.729 0  20728368.624 0
   9177284.095 7   7151130.750 7  22023336.893 0  22023338.110 0
  -9296531.671 7  -7148184.564 7  20623626.935 0  20623628.472 0
 -18449552.798 8 -12517913.470 7  20535179.763 0  20535179.893 0
 88  2 27  6 52 29.0800000  0  4  6  8 11  9
  -5373149.155 7  -4186869.669 7  20734564.353 0  20734562.629 0
   9269004.510 7   7222601.199 7  22040791.095 0  22040791.504 0
  -9281730.028 7  -7136650.819 6  20626443.084 0  20626444.432 0
 -18501509.999 8 -12558399.594 7  20525292.368 0  20525292.206 0
 88  2 27  6 52 59.0800000  0  4  6  8 11  9
  -5340027.503 7  -4161060.618 7  20740866.064 0  20740866.445 0
   9360933.814 8   7294234.413 7  22058284.612 0  22058284.205 0
  -9266472.683 7  -7124761.992 7  20629346.548 0  20629347.724 0
 -18553004.424 8 -12598525.120 6  20515493.778 0  20515491.958 0
 88  2 27  6 53 29.0800000  0  4  6  8 11  9
  -5306337.642 8  -4134808.779 7  20747276.840 0  20747277.979 0
   9453070.676 8   7366029.362 7  22075817.837 0  22075817.638 0
  -9250759.843 7  -7112518.196 7  20632336.286 0  20632337.430 0
 -18604031.635 7 -12638286.584 7  20505782.651 0  20505782.570 0
 88  2 27  6 53 59.0800000  0  4  6  8 11  9
  -5272079.886 8  -4108114.438 7  20753796.252 0  20753796.475 0
   9545411.670 7   7437983.394 7  22093390.213 0  22093389.792 0
  -9234594.156 7  -7099921.556 7  20635412.384 0  20635413.903 0
 -18654590.065 8 -12677682.752 6  20496162.374 0  20496162.137 0
 88  2 27  6 54 29.0800000  0  4  6  8 11  9
  -5237256.088 7  -4080979.017 7  20760423.011 0  20760422.203 0
   9637951.782 7   7510092.580 7  22110999.620 0  22110999.542 0
  -9217979.128 7  -7086974.780 7  20638574.279 0  20638575.916 0
 -18704678.537 7 -12716712.731 6  20486630.625 0  20486629.631 0
 88  2 27  6 54 59.0800000  0  4  6  8 11  9
  -5201866.245 7  -4053402.522 7  20767156.173 0  20767157.527 0
   9730687.910 7   7582354.504 7  22128646.832 0  22128646.804 0
  -9200916.473 7  -7073679.202 7  20641821.536 0  20641823.330 0
 -18754294.381 7 -12755374.436 7  20477189.238 0  20477188.821 0
 88  2 27  6 55 29.0800000  0  4  6  8 11  9
  -5165907.450 8  -4025382.704 7  20774000.375 0  20774000.125 0
   9823619.950 8   7654769.073 7  22146330.589 0  22146331.549 0
  -9183405.016 7  -7060033.914 7  20645153.861 0  20645155.745 0
 -18803432.151 7 -12793663.591 6  20467838.513 0  20467837.514 0
 88  2 27  6 55 59.0800000  0  4  6  8 11  9
  -5129379.846 7  -3996919.635 7  20780950.951 0  20780950.844 0
   9916744.909 8   7727333.973 7  22164052.474 0  22164052.060 0
  -9165446.726 7  -7046040.447 7  20648571.469 0  20648573.643 0
 -18852089.486 8 -12831578.402 6  20458579.415 0  20458578.279 0
 88  2 27  6 56 29.0800000  0  4  6  8 11  9
  -5092285.769 7  -3968015.169 7  20788010.134 0  20788009.656 0
  10010057.026 7   7800044.714 7  22181809.674 0  22181808.616 0
  -9147045.976 7  -7031702.190 7  20652071.548 0  20652073.174 0
 -18900266.090 7 -12869118.617 6  20449412.342 0  20449410.973 0
 88  2 27  6 56 59.0800000  0  4  6  8 11  9
  -5054625.505 8  -3938669.516 7  20795176.178 0  20795175.542 0
  10103553.347 8   7872899.009 7  22199600.607 0  22199600.258 0
  -9128205.026 7  -7017020.910 6  20655657.103 0  20655659.101 0
 -18947959.378 8 -12906282.226 6  20440335.478 0  20440335.472 0
 88  2 27  6 57 29.0800000  0  4  6  8 11  9
  -5016396.646 7  -3908880.805 7  20802451.143 0  20802450.793 0
  10197233.620 7   7945896.623 7  22217427.385 0  22217426.979 0
  -9108922.860 7  -7001995.844 6  20659327.722 0  20659329.080 0
 -18995164.499 7 -12943065.434 7  20431352.876 0  20431352.799 0
 88  2 27  6 57 59.0800000  0  4  6  8 11  9
  -4977600.155 8  -3878649.782 7  20809833.427 0  20809834.079 0
  10291093.551 7   8019034.221 7  22235288.420 0  22235288.070 0
  -9089202.432 7  -6986629.272 7  20663079.918 0  20663080.818 0
 -19041879.470 7 -12979466.703 7  20422463.419 0  20422463.249 0
 88  2 27  6 58 29.0800000  0  4  6  8 11  9
  -4938236.136 8  -3847976.534 7  20817325.206 0  20817324.656 0
  10385130.071 7   8092309.422 7  22253182.695 0  22253182.481 0
  -9069045.883 7  -6970922.868 6  20666915.383 0  20666916.121 0
 -19088102.034 7 -13015484.280 6  20413667.388 0  20413666.910 0
 88  2 27  6 58 59.0800000  0  4  6  8 11  9
  -4898304.837 8  -3816861.234 7  20824923.588 0  20824923.324 0
  10479340.104 8   8165719.830 7  22271110.309 0  22271110.089 0
  -9048454.847 7  -6954877.900 7  20670833.383 0  20670834.870 0
 -19133829.502 8 -13051116.081 7  20404966.036 0  20404966.135 0
 88  2 27  6 59 29.0800000  0  4  6  8 11  9
  -4857806.347 7  -3785303.986 7  20832630.547 0  20832630.155 0
  10573720.926 8   8239263.326 7  22289070.993 0  22289069.434 0
  -9027431.204 7  -6938495.839 7  20674834.978 0  20674835.280 0
 -19179059.541 7 -13086360.277 7  20396357.730 0  20396358.948 0
 88  2 27  6 59 59.0800000  0  4  6  8 11  9
  -4816740.175 8  -3753304.367 7  20840445.170 0  20840445.221 0
  10668270.434 7   8312938.267 7  22307062.963 0  22307062.972 0
  -9005976.373 7  -6921777.774 7  20678917.337 0  20678918.362 0
 -19223788.493 7 -13121213.990 6  20387847.285 0  20387847.838 0
 88  2 27  7  0 29.0800000  0  4  6  8 11  9
  -4775107.609 7  -3720863.424 7  20848366.653 0  20848367.519 0
  10762984.555 7   8386741.467 7  22325085.219 0  22325086.322 0
  -8984092.949 7  -6904725.745 6  20683081.813 0  20683082.981 0
 -19268015.020 7 -13155676.228 6  20379431.535 0  20379430.820 0
 88  2 27  7  0 59.0800000  0  4  6  8 11  9
  -4732908.346 8  -3687980.888 7  20856397.602 0  20856397.524 0
  10857860.614 7   8460670.858 7  22343139.979 0  22343141.267 0
  -8961782.684 7  -6887341.113 7  20687327.726 0  20687328.365 0
 -19311736.291 7 -13189744.755 7  20371110.396 0  20371111.850 0
 88  2 27  7  1 29.0800000  0  4  6  8 11  9
  -4690142.719 8  -3654657.040 7  20864535.869 0  20864535.162 0
  10952895.669 7   8534724.132 7  22361224.859 0  22361225.110 0
  -8939047.318 7  -6869625.238 7  20691653.492 0  20691654.932 0
 -19354949.738 8 -13223417.552 7  20362887.247 0  20362888.407 0
 88  2 27  7  1 59.0800000  0  4  6  8 11  9
  -4646811.199 8  -3620892.231 7  20872781.341 0  20872780.692 0
  11048087.103 8   8608899.281 7  22379340.526 0  22379339.389 0
  -8915889.311 7  -6851580.045 6  20696060.237 0  20696061.720 0
 -19397653.020 7 -13256692.838 6  20354762.438 0  20354761.914 0
 88  2 27  7  2 29.0800000  0  4  6  8 11  9
  -4602913.320 7  -3586686.102 7  20881134.047 0  20881134.270 0
  11143432.608 8   8683194.476 7  22397483.028 0  22397482.629 0
  -8892309.555 7  -6833206.211 7  20700547.521 0  20700548.153 0
 -19439842.626 7 -13289567.860 7  20346732.953 0  20346733.226 0
 88  2 27  7  2 59.0800000  0  4  6  8 11  9
  -4558449.592 8  -3552039.053 6  20889596.389 0  20889594.894 0
  11238928.604 7   8757606.933 8  22415655.138 0  22415656.076 0
  -8868310.606 7  -6814505.717 6  20705113.853 0  20705116.237 0
 -19481516.831 7 -13322041.266 7  20338801.615 0  20338803.212 0
 88  2 27  7  3 29.0800000  0  4  6  8 11  9
  -4513419.763 8  -3516950.878 7  20898165.048 0  20898164.785 0
  11334573.479 7   8832135.412 7  22433856.201 0  22433855.801 0
  -8843893.686 7  -6795479.553 7  20709761.214 0  20709761.427 0
 -19522671.999 7 -13354110.228 7  20330972.001 0  20330971.971 0
 88  2 27  7  3 59.0800000  0  4  6  8 11  9
  -4467825.073 8  -3481422.554 7  20906841.055 0  20906839.890 0
  11430363.490 8   8906776.962 8  22452083.730 0  22452083.960 0
  -8819061.509 7  -6776129.800 7  20714486.034 0  20714487.414 0
 -19563306.923 7 -13385773.793 6  20323239.082 0  20323239.158 0
 88  2 27  7  4 29.0800000  0  4  6  8 11  9
  -4421666.595 7  -3445454.923 7  20915624.153 0  20915624.575 0
  11526294.787 7   8981528.625 7  22470339.047 0  22470339.541 0
  -8793816.723 7  -6756458.538 7  20719290.507 0  20719290.878 0
 -19603419.643 7 -13417030.447 7  20315605.217 0  20315605.705 0
 88  2 27  7  4 59.0800000  0  4  6  8 11  9
  -4374942.843 8  -3409046.814 7  20924516.600 0  20924515.836 0
  11622366.556 7   9056389.744 7  22488621.029 0  22488621.330 0
  -8768159.355 7  -6736465.780 7  20724172.088 0  20724173.686 0
 -19643005.888 7 -13447876.872 7  20308073.310 0  20308072.728 0
 88  2 27  7  5 29.0800000  0  4  6  8 11  9
  -4327654.498 7  -3372198.763 7  20933514.479 0  20933515.789 0
  11718575.853 7   9131357.999 7  22506928.610 0  22506929.555 0
  -8742091.669 7  -6716153.301 7  20729133.425 0  20729135.034 0
 -19682063.566 7 -13478311.430 6  20300640.046 0  20300640.155 0
 88  2 27  7  5 59.0800000  0  4  6  8 11  9
  -4279803.997 7  -3334912.656 7  20942620.105 0  20942619.870 0
  11814917.773 7   9206429.626 7  22525261.948 0  22525262.765 0
  -8715617.609 7  -6695524.147 7  20734171.789 0  20734172.478 0
 -19720592.176 7 -13508333.714 7  20293307.784 0  20293307.803 0
 88  2 27  7  6 29.0800000  0  4  6  8 11  9
  -4231390.901 8  -3297188.166 7  20951832.850 0  20951833.086 0
  11911390.013 7   9281602.790 7  22543620.835 0  22543620.886 0
  -8688738.355 8  -6674579.257 7  20739285.912 0  20739286.316 0
 -19758588.364 7 -13537941.126 7  20286078.215 0  20286078.614 0
 88  2 27  7  6 59.0800000  0  4  6  8 11  9
  -4182414.363 8  -3259024.646 7  20961153.257 0  20961152.893 0
  12007991.449 7   9356876.651 7  22562003.339 0  22562003.669 0
  -8661454.547 8  -6653319.146 7  20744477.903 0  20744478.435 0
 -19796048.476 7 -13567130.826 6  20278950.285 0  20278950.562 0
 88  2 27  7  7 29.0800000  0  4  6  8 11  9
  -4132876.586 8  -3220423.794 7  20970579.867 0  20970579.446 0
  12104717.799 7   9432247.833 7  22580409.475 0  22580409.626 0
  -8633769.983 7  -6631746.745 6  20749745.943 0  20749746.757 0
 -19832971.640 7 -13595902.117 7  20271922.472 0  20271923.636 0
 88  2 27  7  7 59.0800000  0  4  6  8 11  9
  -4082776.953 7  -3181385.118 7  20980113.567 0  20980112.574 0
  12201567.363 7   9507715.011 7  22598839.099 0  22598839.722 0
  -8605685.774 7  -6609862.938 7  20755090.627 0  20755091.305 0
 -19869354.698 7 -13624252.549 7  20264999.489 0  20264999.748 0
 88  2 27  7  8 29.0800000  0  4  6  8 11  9
  -4032117.197 8  -3141909.999 7  20989753.928 0  20989753.407 0
  12298536.394 7   9583275.292 7  22617291.554 0  22617291.583 0
  -8577204.634 8  -6587669.836 6  20760510.080 0  20760511.492 0
 -19905196.132 7 -13652180.945 6  20258179.313 0  20258178.968 0
 88  2 27  7  8 59.0800000  0  4  6  8 11  9
  -3980896.334 7  -3101997.645 7  20999500.119 0  20999500.485 0
  12395623.839 7   9658927.836 7  22635766.889 0  22635767.741 0
  -8548327.542 7  -6565168.215 7  20766005.586 0  20766006.680 0
 -19940492.079 7 -13679684.275 6  20251462.396 0  20251463.449 0
 88  2 27  7  9 29.0800000  0  4  6  8 11  9
  -3929115.651 7  -3061649.087 6  21009354.488 0  21009353.352 0
  12492826.255 7   9734669.996 7  22654263.416 0  22654264.568 0
  -8519056.635 8  -6542359.718 7  20771573.812 0  20771576.172 0
 -19975241.114 7 -13706761.443 7  20244851.321 0  20244849.716 0
 88  2 27  7  9 59.0800000  0  4  6  8 11  9
  -3876776.719 7  -3020865.505 7  21019313.715 0  21019313.122 0
  12590140.210 7   9810499.055 7  22672782.122 0  22672782.366 0
  -8489394.871 7  -6519246.652 7  20777219.794 0  20777220.841 0
 -20009441.708 8 -13733411.259 6  20238342.109 0  20238341.209 0
 88  2 27  7 10 29.0800000  0  4  6  8 11  9
  -3823880.495 7  -2979647.679 7  21029379.316 0  21029378.623 0
  12687562.140 8   9886412.260 7  22691321.527 0  22691321.248 0
  -8459345.067 8  -6495831.200 7  20782938.402 0  20782938.269 0
 -20043091.785 7 -13759632.101 6  20231940.166 0  20231937.911 0
 88  2 27  7 10 59.0800000  0  4  6  8 11  9
  -3770426.830 8  -2937995.482 7  21039551.178 0  21039551.759 0
  12785090.792 7   9962408.605 7  22709880.763 0  22709880.013 0
  -8428908.263 8  -6472114.208 7  20788730.338 0  20788730.887 0
 -20076188.434 7 -13785421.692 6  20225641.818 0  20225641.100 0
 88  2 27  7 11 29.0800000  0  4  6  8 11  9
  -3716415.606 8  -2895908.822 7  21049829.099 0  21049828.821 0
  12882724.210 7  10038486.585 7  22728459.375 0  22728459.161 0
  -8398085.892 7  -6448096.776 7  20794595.268 0  20794595.245 0
 -20108728.489 8 -13810777.572 6  20219448.582 0  20219447.635 0
 88  2 27  7 11 59.0800000  0  4  6  8 11  9
  -3661847.698 8  -2853388.393 7  21060213.538 0  21060213.489 0
  12980459.839 7  10114644.208 7  22747057.662 0  22747057.799 0
  -8366880.182 8  -6423780.630 7  20800533.418 0  20800534.369 0
 -20140709.709 7 -13835698.012 7  20213362.676 0  20213361.529 0
 88  2 27  7 12 29.0800000  0  4  6  8 11  9
  -3606724.037 8  -2810434.899 7  21070702.719 0  21070703.242 0
  13078294.304 7  10190878.863 7  22765674.729 0  22765674.973 0
  -8335293.178 8  -6399167.380 7  20806543.920 0  20806545.464 0
 -20172130.201 7 -13860181.521 7  20207385.065 0  20207384.054 0
 88  2 27  7 12 59.0800000  0  4  6  8 11  9
  -3551046.194 7  -2767049.571 7  21081298.820 0  21081298.499 0
  13176224.361 7  10267187.998 7  22784310.685 0  22784310.586 0
  -8303328.125 8  -6374259.539 6  20812627.781 0  20812626.906 0
 -20202988.692 7 -13884227.081 6  20201511.757 0  20201510.903 0
 88  2 27  7 13 29.0800000  0  4  6  8 11  9
  -3494815.268 8  -2723233.276 7  21091998.748 0  21091998.198 0
  13274247.434 7  10343569.619 7  22802964.026 0  22802963.319 0
  -8270987.128 8  -6349058.753 7  20818780.959 0  20818782.059 0
 -20233283.084 7 -13907833.109 6  20195747.203 0  20195746.005 0
 88  2 27  7 13 59.0800000  0  4  6  8 11  9
  -3438031.708 8  -2678986.344 7  21102803.991 0  21102804.958 0
  13372361.020 7  10420021.765 8  22821634.618 0  22821634.805 0
  -8238271.777 7  -6323566.259 7  20825006.377 0  20825008.612 0
 -20263010.991 7 -13930997.720 6  20190090.343 0  20190089.579 0
 88  2 27  7 14 29.0800000  0  4  6  8 11  9
  -3380696.070 7  -2634309.226 8  21113714.493 0  21113715.803 0
  13470563.439 7  10496543.101 7  22840320.563 0  22840321.257 0
  -8205183.819 7  -6297783.427 7  20831302.730 0  20831304.224 0
 -20292169.722 7 -13953718.820 7  20184541.260 0  20184541.537 0
 88  2 27  7 14 59.0800000  0  4  6  8 11  9
  -3322808.467 7  -2589202.021 7  21124730.425 0  21124730.433 0
  13568852.078 7  10573131.653 8  22859024.573 0  22859025.339 0
  -8171724.882 8  -6271711.541 7  20837670.317 0  20837671.353 0
 -20320756.601 8 -13975994.292 6  20179101.492 0  20179101.028 0
 88  2 27  7 15 29.0800000  0  4  6  8 11  9
  -3264370.213 8  -2543665.720 7  21135851.415 0  21135849.849 0
  13667224.404 7  10649785.411 7  22877744.430 0  22877744.717 0
  -8137897.230 7  -6245352.326 7  20844107.751 0  20844108.379 0
 -20348769.932 7 -13997822.866 6  20173770.818 0  20173770.100 0
 88  2 27  7 15 59.0800000  0  4  6  8 11  9
  -3205383.118 8  -2497701.762 7  21147075.832 0  21147076.312 0
  13765677.090 7  10726501.785 8  22896479.348 0  22896479.972 0
  -8103704.149 7  -6218708.364 7  20850614.534 0  20850616.050 0
 -20376208.402 7 -14019203.498 7  20168548.753 0  20168549.198 0
 88  2 27  7 16 29.0800000  0  4  6 13 11  9
  -3145848.713 8  -2451311.311 7  21158404.929 0  21158405.624 0
          .038 8         -.215 8  21408640.202 0          .000 0
  -8069148.226 7  -6191781.666 7  20857189.950 0  20857190.809 0
 -20403070.638 7 -14040135.110 6  20163437.363 0  20163437.806 0
 88  2 27  7 16 59.0800000  0  4  6 13 11  9
  -3085767.078 7  -2404494.468 7  21169837.309 0  21169837.280 0
    -55226.134 8  55642281.004 7  21398161.022 0  21398162.582 0
  -8034230.551 7  -6164573.086 7  20863833.408 0  20863835.311 0
 -20429353.714 7 -14060615.442 7  20158435.471 0  20158435.596 0
 88  2 27  7 17 29.0800000  0  4  6 13 11  9
  -3025138.659 7  -2357251.561 7  21181375.519 0  21181375.127 0
   -110009.136 8  55599592.955 7  21387736.441 0  21387737.038 0
  -7998952.837 8  -6137083.937 7  20870547.510 0  20870548.412 0
 -20455055.078 7 -14080642.476 6  20153544.740 0  20153543.623 0
 88  2 27  7 17 59.0800000  0  4  6 13 11  9
  -2963963.829 8  -2309582.866 8  21193016.212 0  21193016.513 0
   -164348.158 8  55557250.886 7  21377395.180 0  21377396.511 0
  -7963316.549 8  -6109315.404 7  20877328.808 0  20877328.565 0
 -20480171.919 6 -14100214.032 6  20148765.241 0  20148765.125 0
 88  2 27  7 18 29.0800000  0  4  6 13 11  9
  -2902245.512 8  -2261490.682 7  21204760.453 0  21204760.897 0
   -218245.178 8  55515253.231 7  21367138.841 0  21367140.122 0
  -7927325.850 7  -6081270.683 7  20884177.746 0  20884178.204 0
 -20504704.447 7 -14119330.296 6  20144096.824 0  20144096.677 0
 88  2 27  7 18 59.0800000  0  4  6 13 11  9
  -2839984.265 8  -2212975.429 7  21216608.758 0  21216608.752 0
   -271699.489 8  55473600.548 7  21356966.641 0  21356968.960 0
  -7890982.205 7  -6052950.964 7  20891093.751 0  20891094.781 0
 -20528649.736 7 -14137988.948 6  20139540.367 0  20139539.704 0
 88  2 27  7 19 29.0800000  0  4  6 13 11  9
  -2777180.415 7  -2164037.371 7  21228559.881 0  21228560.176 0
   -324710.283 8  55432293.462 7  21346879.831 0  21346880.074 0
  -7854287.195 7  -6024357.449 8  20898076.064 0  20898077.638 0
 -20552005.539 7 -14156188.294 5  20135096.247 0  20135094.179 0
 88  2 27  7 19 59.0800000  0  4  6 13 11  9
  -2713836.675 8  -2114678.626 6  21240613.616 0  21240614.061 0
   -377278.514 8  55391331.218 7  21336876.450 0  21336877.180 0
  -7817244.304 8  -5995492.872 7  20905124.458 0  20905127.721 0
 -20574771.424 6 -14173927.928 6  20130763.517 0  20130764.501 0
 88  2 27  7 20 29.0800000  0  4  6 13 11  9
  -2649953.533 8  -2064899.561 8  21252770.535 0  21252770.278 0
   -429403.879 7  55350714.070 7  21326957.852 0  21326957.937 0
  -7779855.233 7  -5966358.531 7  20912239.575 0  20912241.479 0
 -20596944.703 7 -14191205.812 6  20126544.212 0  20126543.958 0
 88  2 27  7 20 59.0800000  0  4  6 13 11  9
  -2585531.035 8  -2014700.214 7  21265030.164 0  21265030.645 0
   -481085.104 8  55310443.010 7  21317122.192 0  21317123.645 0
  -7742121.150 7  -5936955.344 7  20919421.402 0  20919421.688 0
 -20618522.340 7 -14208019.559 6  20122438.991 0  20122438.140 0
 88  2 27  7 21 29.0800000  0  4  6 13 11  9
  -2520570.047 7  -1964081.274 7  21277391.253 0  21277391.848 0
   -532321.378 8  55270518.657 6  21307373.053 0  21307373.190 0
  -7704043.721 8  -5907284.611 7  20926667.119 0  20926668.493 0
 -20639502.511 7 -14224367.743 6  20118446.305 0  20118445.385 0
 88  2 27  7 21 59.0800000  0  4  6 13 11  9
  -2455074.321 7  -1913045.653 7  21289855.540 0  21289853.896 0
   -583115.199 7  55230939.081 7  21297706.704 0  21297707.395 0
  -7665627.986 7  -5877350.267 7  20933976.798 0  20933978.344 0
 -20659885.598 7 -14240250.679 6  20114566.847 0  20114568.962 0
 88  2 27  7 22 29.0800000  0  4  6 13 11  9
  -2389043.776 8  -1861593.283 7  21302420.693 0  21302420.608 0
   -633465.488 8  55191705.108 7  21288124.658 0  21288126.096 0
  -7626874.821 7  -5847152.994 7  20941351.814 0  20941353.188 0
 -20679668.595 7 -14255665.986 7  20110802.039 0  20110803.437 0
 88  2 27  7 22 59.0800000  0  4  6 13 11  9
  -2322478.737 7  -1809724.421 7  21315087.219 0  21315087.270 0
   -683371.050 8  55152817.678 7  21278628.070 0  21278630.209 0
  -7587785.087 7  -5816693.453 7  20948789.246 0  20948791.535 0
 -20698848.678 7 -14270611.500 6  20107153.088 0  20107152.984 0
 88  2 27  7 23 29.0800000  0  4  6 13 11  9
  -2255381.483 8  -1757440.852 7  21327855.483 0  21327854.232 0
   -732833.299 7  55114275.675 7  21269216.077 0  21269217.132 0
  -7548362.563 7  -5785974.598 7  20956291.899 0  20956293.186 0
 -20717425.314 7 -14285086.802 6  20103617.916 0  20103618.106 0
 88  2 27  7 23 59.0800000  0  4  6 13 11  9
  -2187753.937 8  -1704744.075 7  21340724.298 0  21340724.220 0
   -781852.082 8  55076079.247 7  21259887.339 0  21259889.807 0
  -7508609.428 7  -5754998.127 7  20963856.825 0  20963857.456 0
 -20735397.396 7 -14299091.019 6  20100196.875 0  20100198.696 0
 88  2 27  7 24 29.0800000  0  4  6 13 11  9
  -2119596.932 8  -1651634.727 7  21353694.630 0  21353693.994 0
   -830427.363 8  55038228.393 7  21250644.452 0  21250646.113 0
  -7468527.728 7  -5723765.624 7  20971484.770 0  20971484.627 0
 -20752762.548 6 -14312622.300 7  20096892.701 0  20096893.362 0
 88  2 27  7 24 59.0800000  0  4  6 13 11  9
  -2050911.253 8  -1598113.429 7  21366765.519 0  21366764.561 0
   -878558.661 7  55000723.510 7  21241485.465 0  21241486.581 0
  -7428118.927 8  -5692278.246 7  20979173.628 0  20979174.959 0
 -20769518.635 7 -14325678.992 7  20093704.763 0  20093704.513 0
 88  2 27  7 25 29.0800000  0  4  6 13 11  9
  -1981698.328 8  -1544181.288 7  21379935.228 0  21379934.978 0
   -926245.762 8  54963564.744 7  21232411.180 0  21232412.743 0
  -7387385.374 7  -5660537.830 7  20986924.403 0  20986926.163 0
 -20785664.104 7 -14338259.884 7  20090630.799 0  20090631.728 0
 88  2 27  7 25 59.0800000  0  4  6 13 11  9
  -1911959.791 8  -1489839.569 6  21393206.195 0  21393205.696 0
   -973488.935 8  54926751.890 7  21223420.039 0  21223423.477 0
  -7346329.403 7  -5628546.165 7  20994736.821 0  20994738.180 0
 -20801197.565 6 -14350363.876 7  20087675.553 0  20087675.918 0
 88  2 27  7 26 29.0800000  0  4  6 13 11  9
  -1841696.462 7  -1435088.942 7  21406576.662 0  21406577.514 0
  -1020287.865 8  54890285.215 7  21214515.579 0  21214516.201 0
  -7304953.191 8  -5596304.935 7  21002611.185 0  21002612.616 0
 -20816116.883 6 -14361989.298 7  20084836.725 0  20084836.900 0
 88  2 27  7 26 59.0800000  0  4  6 13 11  9
  -1770911.099 8  -1379931.527 7  21420046.599 0  21420046.421 0
  -1066643.907 8  54854163.642 7  21205694.800 0  21205694.910 0
  -7263259.887 8  -5563816.645 7  21010544.916 0  21010546.090 0
 -20830421.533 7 -14373135.798 6  20082114.867 0  20082114.265 0
 88  2 27  7 27 29.0800000  0  4  6 13 11  9
  -1699604.954 7  -1324368.283 7  21433615.899 0  21433615.743 0
  -1112557.213 7  54818387.068 7  21196957.496 0  21196958.255 0
  -7221251.456 7  -5531082.796 7  21018538.833 0  21018540.321 0
 -20844109.932 7 -14383802.072 7  20079510.408 0  20079510.283 0
 88  2 27  7 27 59.0800000  0  4  6 13 11  9
  -1627778.472 8  -1268399.606 7  21447283.897 0  21447284.184 0
  -1158026.482 7  54782956.492 7  21188305.561 0  21188305.071 0
  -7178928.913 8  -5498104.196 7  21026592.505 0  21026594.336 0
 -20857179.490 6 -14393986.142 7  20077022.753 0  20077023.260 0
 88  2 27  7 28 29.0800000  0  4  6 13 11  9
  -1555433.478 8  -1212026.896 7  21461051.415 0  21461052.024 0
  -1203052.255 7  54747871.497 7  21179736.345 0  21179736.931 0
  -7136294.776 7  -5464882.783 7  21034705.502 0  21034707.763 0
 -20869628.688 7 -14403686.810 6  20074653.322 0  20074653.951 0
 88  2 27  7 28 59.0800000  0  4  6 13 11  9
  -1482571.254 8  -1155251.151 7  21474916.278 0  21474916.301 0
  -1247634.735 7  54713131.934 6  21171252.343 0  21171253.688 0
  -7093351.367 7  -5431420.387 7  21042877.424 0  21042878.712 0
 -20881456.336 7 -14412903.169 6  20072403.692 0  20072403.767 0
 88  2 27  7 29 29.0800000  0  4  6 13 11  9
  -1409194.516 8  -1098074.490 7  21488878.588 0  21488879.218 0
  -1291774.880 7  54678737.040 7  21162852.529 0  21162854.006 0
  -7050101.793 8  -5397719.410 7  21051107.600 0  21051108.673 0
 -20892661.818 6 -14421634.720 6  20070271.469 0  20070271.694 0
 88  2 27  7 29 59.0800000  0  4  6 13 11  9
  -1335304.536 8  -1040497.881 7  21502940.195 0  21502940.203 0
  -1335472.496 7  54644686.959 7  21154537.711 0  21154538.413 0
  -7006548.021 8  -5363781.406 7  21059395.441 0  21059396.414 0
 -20903243.547 7 -14429880.217 6  20068256.739 0  20068257.057 0
 88  2 27  7 30 29.0800000  0  4  6 13 11  9
  -1260902.735 7   -982522.458 7  21517098.133 0  21517097.511 0
  -1378728.073 7  54610981.325 7  21146305.981 0  21146306.753 0
  -6962692.390 7  -5329608.186 7  21067741.550 0  21067741.821 0
 -20913199.934 6 -14437638.444 7  20066362.370 0  20066362.603 0
 88  2 27  7 30 59.0800000  0  4  6 13 11  9
  -1185990.483 7   -924149.277 7  21531354.052 0  21531354.031 0
  -1421541.252 7  54577620.425 6  21138158.577 0  21138160.337 0
  -6918536.586 8  -5295201.057 7  21076143.764 0  21076145.382 0
 -20922529.345 6 -14444908.121 6  20064587.691 0  20064588.288 0
 88  2 27  7 31 29.0800000  0  4  6 13 11  9
  -1110569.619 8   -865379.771 7  21545705.507 0  21545706.273 0
  -1463912.383 7  54544603.977 7  21130095.230 0  21130096.725 0
  -6874083.209 7  -5260562.066 6  21084602.629 0  21084603.888 0
 -20931230.614 7 -14451688.332 7  20062931.649 0  20062931.019 0
 88  2 27  7 31 59.0800000  0  4  6 13 11  9
  -1034641.717 8   -806215.196 7  21560154.028 0  21560154.687 0
  -1505842.060 7  54511931.518 7  21122117.469 0  21122118.790 0
  -6829334.295 8  -5225692.771 6  21093118.416 0  21093119.031 0
 -20939302.457 7 -14457978.072 6  20061396.367 0  20061395.504 0
 88  2 27  7 32 29.0800000  0  4  6 13 11  9
   -958208.549 7   -746656.885 7  21574698.685 0  21574699.080 0
  -1547330.743 8  54479602.693 7  21114221.621 0  21114222.848 0
  -6784292.332 7  -5190595.146 6  21101689.393 0  21101690.724 0
 -20946743.511 7 -14463776.305 6  20059978.838 0  20059979.206 0
 88  2 27  7 32 59.0800000  0  4  6 13 11  9
   -881271.445 7   -686705.917 7  21589339.901 0  21589340.010 0
  -1588377.909 8  54447617.904 7  21106410.445 0  21106410.867 0
  -6738959.025 8  -5155270.481 7  21110315.633 0  21110317.708 0
 -20953552.345 6 -14469081.878 6  20058682.887 0  20058684.854 0
 88  2 27  7 33 29.0800000  0  4  6 13 11  9
   -803832.455 8   -626363.841 7  21604075.980 0  21604076.325 0
  -1628984.430 7  54415976.476 7  21098683.789 0  21098684.909 0
  -6693336.943 7  -5119720.814 7  21118997.793 0  21118999.038 0
 -20959727.700 6 -14473893.846 7  20057509.197 0  20057509.443 0
 88  2 27  7 33 59.0800000  0  4  6 13 11  9
   -725894.375 7   -565632.885 7  21618907.057 0  21618907.137 0
  -1669151.650 7  54384677.366 6  21091041.082 0  21091041.368 0
  -6647429.488 8  -5083948.748 6  21127733.641 0  21127734.256 0
 -20965269.737 7 -14478212.314 7  20056453.083 0  20056454.406 0
 88  2 27  7 34 29.0800000  0  4  6 13 11  9
   -647456.585 8   -504512.548 7  21633833.878 0  21633833.400 0
  -1708877.704 8  54353722.028 7  21083480.949 0  21083482.273 0
  -6601236.345 8  -5047954.096 6  21136524.350 0  21136524.508 0
 -20970174.859 6 -14482034.490 6  20055521.222 0  20055521.011 0
 88  2 27  7 34 59.0800000  0  4  6 13 11  9
   -568522.187 7   -443005.225 7  21648853.915 0  21648853.680 0
  -1748163.883 8  54323109.417 7  21076004.994 0  21076005.366 0
  -6554761.165 7  -5011739.661 7  21145367.273 0  21145368.161 0
 -20974442.986 6 -14485360.307 6  20054708.611 0  20054709.305 0
 88  2 27  7 35 29.0800000  0  4  6 13 11  9
   -489094.093 8   -381113.216 7  21663968.522 0  21663969.110 0
  -1787012.596 8  54292837.729 7  21068612.147 0  21068612.572 0
  -6508007.206 7  -4975308.004 7  21154265.087 0  21154265.502 0
 -20978074.466 7 -14488190.018 6  20054017.824 0  20054016.918 0
 88  2 27  7 35 59.0800000  0  4  6 13 11  9
   -409173.101 7   -318837.122 7  21679177.384 0  21679177.335 0
  -1825422.332 7  54262908.082 7  21061303.541 0  21061304.099 0
  -6460975.697 7  -4938660.074 7  21163214.299 0  21163215.788 0
 -20981066.869 6 -14490521.769 7  20053448.795 0  20053448.927 0
 88  2 27  7 36 29.0800000  0  4  6 13 11  9
   -328759.390 8   -256177.108 7  21694479.191 0  21694479.385 0
  -1863391.747 7  54233321.556 7  21054077.825 0  21054078.669 0
  -6413666.816 8  -4901796.011 7  21172216.613 0  21172218.760 0
 -20983416.766 7 -14492352.852 7  20053001.375 0  20053001.486 0
 88  2 27  7 36 59.0800000  0  4  6 13 11  9
   -247855.463 8   -193135.086 7  21709874.279 0  21709875.410 0
  -1900923.479 7  54204076.069 7  21046936.150 0  21046936.669 0
  -6366084.661 8  -4864718.999 7  21181271.771 0  21181273.359 0
 -20985125.418 7 -14493684.270 6  20052676.007 0  20052676.238 0
 88  2 27  7 37 29.0800000  0  4  6 13 11  9
   -166466.047 8   -129714.771 7  21725362.585 0  21725363.673 0
  -1938019.591 8  54175170.021 7  21039877.387 0  21039877.004 0
  -6318233.695 8  -4827432.542 7  21190376.924 0  21190378.556 0
 -20986193.788 7 -14494516.771 7  20052472.856 0  20052472.004 0
 88  2 27  7 37 59.0800000  0  4  6 13 11  9
    -84591.775 7    -65916.645 7  21740943.242 0  21740943.006 0
  -1974679.057 8  54146604.229 7  21032900.354 0  21032901.670 0
  -6270114.547 7  -4789937.099 7  21199534.593 0  21199535.666 0
 -20986619.667 6 -14494848.634 7  20052391.769 0  20052391.207 0
 88  2 27  7 38 29.0800000  0  4  6 13 11  9
     -2233.085 8     -1741.037 7  21756615.407 0  21756614.470 0
  -2010901.204 7  54118379.190 7  21026007.445 0  21026008.407 0
  -6221728.006 7  -4752233.302 6  21208741.685 0  21208742.315 0
 -20986400.703 7 -14494678.013 6  20052433.181 0  20052433.449 0
 88  2 27  7 38 59.0800000  0  4  6 13 11  9
     80608.226 7     62810.624 7  21772378.878 0  21772379.638 0
  -2046686.470 7  54090494.581 6  21019197.264 0  21019199.145 0
  -6173076.373 8  -4714322.931 7  21218000.620 0  21218000.363 0
 -20985535.510 6 -14494003.835 6  20052598.495 0  20052597.629 0
 88  2 27  7 39 29.0800000  0  4  6 13 11  9
    163928.754 8    127735.708 7  21788235.195 0  21788235.475 0
  -2082036.660 7  54062948.992 7  21012470.191 0  21012471.976 0
  -6124163.224 8  -4676208.799 7  21227308.149 0  21227308.378 0
 -20984025.028 7 -14492826.831 6  20052884.014 0  20052885.484 0
 88  2 27  7 39 59.0800000  0  4  6 13 11  9
    247725.581 8    193031.920 7  21804181.016 0  21804181.074 0
  -2116953.325 8  54035741.231 7  21005826.376 0  21005826.780 0
  -6074991.444 8  -4637893.124 7  21236665.445 0  21236665.102 0
 -20981869.059 6 -14491146.848 6  20053294.978 0  20053296.112 0
 88  2 27  7 40 29.0800000  0  4  6 13 11  9
    331998.845 8    258699.393 7  21820218.043 0  21820218.559 0
  -2151435.238 7  54008872.215 7  20999265.108 0  20999265.387 0
  -6025561.497 7  -4599376.274 7  21246070.763 0  21246071.908 0
 -20979064.815 7 -14488961.729 7  20053829.119 0  20053829.573 0
 88  2 27  7 40 59.0800000  0  4  6 13 11  9
    416746.936 7    324736.869 7  21836344.539 0  21836344.776 0
  -2185482.602 8  53982341.811 7  20992786.013 0  20992786.581 0
  -5975875.140 8  -4560659.624 7  21255526.163 0  21255526.735 0
 -20975610.826 7 -14486270.314 6  20054485.218 0  20054487.790 0
 88  2 27  7 41 29.0800000  0  4  6 13 11  9
    501966.105 7    391141.401 7  21852561.476 0  21852561.791 0
  -2219097.319 8  53956148.551 7  20986388.649 0  20986389.844 0
  -5925936.224 7  -4521746.189 7  21265029.227 0  21265030.042 0
 -20971508.206 6 -14483073.465 6  20055266.686 0  20055267.387 0
 88  2 27  7 41 59.0800000  0  4  6 13 11  9
    587653.712 7    457910.942 7  21868867.037 0  21868866.551 0
  -2252280.616 8  53930291.445 7  20980074.475 0  20980074.650 0
  -5875747.780 8  -4482638.328 7  21274579.196 0  21274580.713 0
 -20966756.743 6 -14479371.020 6  20056171.010 0  20056170.730 0
 88  2 27  7 42 29.0800000  0  4  6 13 11  9
    673809.135 8    525045.037 7  21885261.336 0  21885261.960 0
  -2285031.851 8  53904771.021 7  20973841.795 0  20973843.513 0
  -5825310.674 7  -4443336.676 6  21284177.445 0  21284178.404 0
 -20961354.653 7 -14475161.610 6  20057199.812 0  20057199.419 0
 88  2 27  7 42 59.0800000  0  4  6 13 11  9
    760431.274 7    592542.794 7  21901745.440 0  21901745.792 0
  -2317350.311 8  53879587.827 7  20967692.595 0  20967692.624 0
  -5774626.031 8  -4403842.165 7  21293822.112 0  21293823.314 0
 -20955299.500 7 -14470443.317 6  20058352.809 0  20058351.413 0
 88  2 27  7 43 29.0800000  0  4  6 13 11  9
    847515.905 8    660400.944 7  21918316.579 0  21918317.324 0
  -2349239.077 8  53854739.451 7  20961623.549 0  20961625.094 0
  -5723697.735 8  -4364157.767 7  21303513.900 0  21303515.388 0
 -20948593.159 7 -14465217.593 6  20059629.067 0  20059627.904 0
 88  2 27  7 43 59.0800000  0  4  6 13 11  9
    935061.151 8    728618.006 7  21934975.699 0  21934977.002 0
  -2380698.985 8  53830225.243 6  20955637.652 0  20955638.387 0
  -5672528.168 8  -4324285.382 6  21313251.205 0  21313252.392 0
 -20941234.846 7 -14459483.849 6  20061028.438 0  20061028.234 0
 88  2 27  7 44 29.0800000  0  4  6 13 11  9
   1023065.903 8    797193.137 7  21951722.570 0  21951722.735 0
  -2411729.080 8  53806045.971 7  20949731.931 0  20949733.458 0
  -5621118.314 8  -4284225.751 7  21323034.672 0  21323034.042 0
 -20933222.840 6 -14453240.737 6  20062551.832 0  20062553.355 0
 88  2 27  7 44 59.0800000  0  4  6 13 11  9
   1111528.053 8    866124.675 8  21968557.035 0  21968557.100 0
  -2442330.350 8  53782200.844 6  20943909.757 0  20943910.269 0
  -5569470.384 7  -4243980.607 7  21332863.184 0  21332863.857 0
 -20924556.602 7 -14446487.835 7  20064202.118 0  20064202.339 0
 88  2 27  7 45 29.0800000  0  4  6 13 11  9
   1200445.539 8    935411.024 7  21985477.597 0  21985476.890 0
  -2472503.358 8  53758689.440 7  20938167.532 0  20938167.936 0
  -5517586.325 8  -4203551.462 7  21342736.169 0  21342736.828 0
 -20915235.068 7 -14439224.301 6  20065975.804 0  20065976.290 0
 88  2 27  7 45 59.0800000  0  4  6 13 11  9
   1289814.906 8   1005049.476 7  22002484.173 0  22002483.658 0
  -2502250.009 8  53735510.246 7  20932506.970 0  20932508.247 0
  -5465469.610 8  -4162941.037 7  21352653.756 0  21352654.757 0
 -20905259.333 7 -14431450.991 6  20067872.828 0  20067875.578 0
 88  2 27  7 46 29.0800000  0  4  6 13 11  9
   1379634.684 8   1075038.907 7  22019576.117 0  22019575.960 0
  -2531570.447 8  53712663.166 7  20926927.058 0  20926928.088 0
  -5413121.915 7  -4122150.629 7  21362614.914 0  21362615.415 0
 -20894628.329 7 -14423167.092 6  20069897.000 0  20069897.060 0
 88  2 27  7 46 59.0800000  0  4  6 13 11  9
   1469903.251 8   1145378.028 7  22036753.058 0  22036754.289 0
  -2560464.652 8  53690148.221 7  20921428.497 0  20921430.050 0
  -5360544.899 7  -4081181.523 6  21372619.858 0  21372620.345 0
 -20883340.695 6 -14414371.541 7  20072044.234 0  20072046.101 0
 88  2 27  7 47 29.0800000  0  4  6 13 11  9
   1560617.498 8   1216064.453 7  22054016.211 0  22054017.006 0
  -2588934.406 8  53667964.019 7  20916011.155 0  20916012.007 0
  -5307741.302 7  -4040035.854 7  21382668.418 0  21382668.375 0
 -20871396.893 6 -14405064.684 6  20074316.684 0  20074317.817 0
 88  2 27  7 47 59.0800000  0  4  6 13 11  9
   1651775.627 8   1287096.755 7  22071363.188 0  22071362.767 0
  -2616979.846 7  53646110.459 7  20910674.234 0  20910675.157 0
  -5254713.089 7  -3998715.158 7  21392758.759 0  21392759.217 0
 -20858796.266 6 -14395246.013 6  20076715.317 0  20076715.492 0
 88  2 27  7 48 29.0800000  0  4  6 13 11  9
   1743374.885 8   1358472.774 7  22088793.630 0  22088793.989 0
  -2644602.246 8  53624586.522 7  20905417.449 0  20905419.338 0
  -5201462.757 7  -3957221.393 7  21402891.299 0  21402893.159 0
 -20845538.887 7 -14384915.589 7  20079238.142 0  20079237.942 0
 88  2 27  7 48 59.0800000  0  4  6 13 11  9
   1835412.618 8   1430190.495 7  22106307.731 0  22106307.689 0
  -2671803.161 8  53603391.031 7  20900241.303 0  20900241.947 0
  -5147992.791 8  -3915556.492 7  21413067.696 0  21413068.283 0
 -20831624.654 6 -14374073.331 6  20081886.213 0  20081885.715 0
 88  2 27  7 49 29.0800000  0  4  6 13 11  9
   1927887.441 8   1502248.783 7  22123905.097 0  22123904.905 0
  -2698582.433 7  53582524.091 7  20895145.096 0  20895147.095 0
  -5094304.731 8  -3873721.635 7  21423283.586 0  21423284.588 0
 -20817052.424 6 -14362718.367 6  20084658.880 0  20084658.719 0
 88  2 27  7 49 59.0800000  0  4  6 13 11  9
   2020797.745 8   1574646.406 7  22141585.700 0  22141585.694 0
  -2724940.228 8  53561985.566 7  20890130.164 0  20890130.002 0
  -5040399.816 8  -3831717.806 7  21433541.259 0  21433541.617 0
 -20801821.234 7 -14350849.897 6  20087557.429 0  20087557.246 0
 88  2 27  7 50 29.0800000  0  4  6 13 11  9
   2114140.167 7   1647380.757 8  22159347.736 0  22159348.975 0
  -2750878.599 8  53541773.875 7  20885194.609 0  20885195.282 0
  -4986281.302 7  -3789547.537 7  21443839.314 0  21443840.430 0
 -20785931.692 7 -14338468.454 7  20090581.763 0  20090581.111 0
 88  2 27  7 50 59.0800000  0  4  6 13 11  9
   2207911.416 7   1720449.262 7  22177191.743 0  22177192.216 0
  -2776398.716 8  53521888.087 7  20880337.715 0  20880339.468 0
  -4931952.192 8  -3747213.172 7  21454177.805 0  21454178.564 0
 -20769384.943 7 -14325574.880 6  20093729.901 0  20093730.984 0
 88  2 27  7 51 29.0800000  0  4  6 13 11  9
   2302110.741 7   1793851.322 6  22195117.111 0  22195117.878 0
  -2801500.387 7  53502328.363 7  20875561.207 0  20875562.244 0
  -4877413.208 8  -3704715.262 7  21464557.193 0  21464557.450 0
 -20752178.873 6 -14312167.554 6  20097004.656 0  20097004.774 0
 88  2 27  7 51 59.0800000  0  4  6 13 11  9
   2396735.108 8   1867584.574 7  22213124.028 0  22213124.051 0
  -2826185.102 7  53483093.534 7  20870862.662 0  20870865.328 0
  -4822666.669 7  -3662055.616 6  21474974.671 0  21474975.831 0
 -20734314.119 7 -14298246.980 6  20100402.682 0  20100404.242 0
 88  2 27  7 52 29.0800000  0  4  6 13 11  9
   2491782.116 8   1941647.169 8  22231210.962 0  22231210.398 0
  -2850453.646 8  53464182.996 7  20866245.448 0  20866246.428 0
  -4767714.828 8  -3619235.991 7  21485431.500 0  21485432.788 0
 -20715790.498 7 -14283812.986 6  20103928.911 0  20103928.116 0
 88  2 27  7 52 59.0800000  0  4  6 13 11  9
   2587248.916 7   2016036.877 7  22249377.512 0  22249377.227 0
  -2874307.369 8  53445595.695 7  20861705.581 0  20861707.341 0
  -4712560.335 8  -3576258.460 7  21495927.421 0  21495927.550 0
 -20696608.449 6 -14268865.921 6  20107579.694 0  20107579.025 0
 88  2 27  7 53 29.0800000  0  4  6 13 11  9
   2683133.839 8   2090752.386 7  22267623.886 0  22267624.295 0
  -2897746.562 8  53427331.398 7  20857245.861 0  20857246.669 0
  -4657204.824 8  -3533124.287 7  21506460.275 0  21506461.892 0
 -20676766.971 7 -14253405.045 7  20111354.034 0  20111354.982 0
 88  2 27  7 53 59.0800000  0  4  6 13 11  9
   2779434.504 8   2165791.853 7  22285949.210 0  22285949.620 0
  -2920772.417 7  53409389.200 7  20852864.165 0  20852865.571 0
  -4601650.587 8  -3489835.277 7  21517032.364 0  21517034.410 0
 -20656266.154 7 -14237430.392 6  20115256.949 0  20115255.636 0
 88  2 27  7 54 29.0800000  0  4  6 13 11  9
   2876148.570 8   2241153.458 7  22304352.928 0  22304352.837 0
  -2943385.528 7  53391768.615 7  20848561.190 0  20848562.375 0
  -4545899.219 7  -3446392.638 7  21527641.599 0  21527642.272 0
 -20635105.912 7 -14220941.897 7  20119282.318 0  20119283.059 0
 88  2 27  7 54 59.0800000  0  4  6 13 11  9
   2973273.289 7   2316835.023 7  22322835.576 0  22322835.706 0
  -2965587.194 7  53374468.619 7  20844336.316 0  20844337.278 0
  -4489953.409 8  -3402798.495 6  21538287.811 0  21538287.939 0
 -20613286.501 6 -14203939.753 7  20123433.787 0  20123434.102 0
 88  2 27  7 55 29.0800000  0  4  6 13 11  9
   3070805.991 8   2392834.524 7  22341395.944 0  22341394.886 0
  -2987379.160 8  53357487.883 7  20840189.101 0  20840190.160 0
  -4433815.280 7  -3359054.480 7  21548969.852 0  21548971.497 0
 -20590808.189 6 -14186424.205 6  20127711.232 0  20127712.862 0
 88  2 27  7 55 59.0800000  0  4  6 13 11  9
   3168744.148 8   2469149.966 7  22360033.116 0  22360032.337 0
  -3008762.224 7  53340825.777 7  20836120.501 0  20836121.030 0
  -4377486.812 7  -3315162.165 7  21559689.340 0  21559690.198 0
 -20567671.054 6 -14168395.261 6  20132115.436 0  20132114.657 0
 88  2 27  7 56 29.0800000  0  4  6 13 11  9
   3267085.167 8   2545779.320 7  22378746.084 0  22378746.600 0
  -3029737.023 7  53324481.795 7  20832129.345 0  20832129.996 0
  -4320970.100 8  -3271123.169 7  21570444.558 0  21570445.588 0
 -20543875.367 7 -14149853.187 6  20136641.821 0  20136643.169 0
 88  2 27  7 56 59.0800000  0  4  6 13 11  9
   3365827.243 8   2622721.192 7  22397536.400 0  22397536.437 0
  -3050304.222 8  53308455.416 7  20828214.372 0  20828216.168 0
  -4264266.831 8  -3226938.793 7  21581235.063 0  21581234.948 0
 -20519420.556 6 -14130797.487 6  20141295.647 0  20141296.963 0
 88  2 27  7 57 29.0800000  0  4  6 13 11  9
   3464966.466 8   2699972.520 7  22416402.054 0  22416402.757 0
  -3070466.325 7  53292744.699 7  20824378.136 0  20824379.573 0
  -4207380.486 7  -3182611.761 7  21592059.638 0  21592060.539 0
 -20494308.405 7 -14111229.580 6  20146076.266 0  20146076.244 0
 88  2 27  7 57 59.0800000  0  4  6 13 11  9
   3564501.463 8   2777532.238 7  22435341.995 0  22435343.498 0
  -3090223.193 8  53277349.749 7  20820618.195 0  20820618.831 0
  -4150311.956 7  -3138142.777 7  21602919.685 0  21602919.929 0
 -20468537.602 7 -14091148.433 7  20150979.358 0  20150980.684 0
 88  2 27  7 58 29.0800000  0  4  6 13 11  9
   3664430.255 8   2855398.816 7  22454358.504 0  22454359.363 0
  -3109575.219 7  53262270.268 7  20816937.095 0  20816937.831 0
  -4093062.560 8  -3093532.851 7  21613813.187 0  21613814.346 0
 -20442107.827 7 -14070553.818 6  20156009.383 0  20156009.182 0
 88  2 27  7 58 59.0800000  0  4  6 13 11  9
   3764748.846 7   2933569.136 8  22473448.333 0  22473448.592 0
  -3128525.282 7  53247503.989 7  20813329.705 0  20813330.760 0
  -4035636.025 8  -3048784.882 6  21624742.048 0  21624741.990 0
 -20415021.124 7 -14049447.308 6  20161163.737 0  20161163.787 0
 88  2 27  7 59 29.0800000  0  4  6 13 11  9
   3865454.948 7   3012041.407 7  22492611.604 0  22492612.735 0
  -3147073.756 7  53233050.640 7  20809799.660 0  20809801.799 0
  -3978033.811 8  -3003900.039 7  21635702.474 0  21635703.833 0
 -20387277.188 7 -14027828.662 6  20166442.620 0  20166442.280 0
 88  2 27  7 59 59.0800000  0  4  6 13 11  9
   3966547.000 8   3090814.426 8  22511848.847 0  22511849.713 0
  -3165220.506 7  53218910.337 7  20806347.166 0  20806347.334 0
  -3920257.282 7  -2958879.344 7  21646697.429 0  21646697.643 0
 -20358875.629 7 -14005697.573 6  20171847.585 0  20171846.826 0
 88  2 27  8  0 29.0800000  0  4  6 13 11  9
   4068021.827 8   3169885.705 7  22531158.930 0  22531159.517 0
  -3182967.841 8  53205081.259 6  20802969.364 0  20802971.074 0
  -3862308.545 8  -2913724.477 6  21657724.121 0  21657725.423 0
 -20329817.088 7 -13983054.564 6  20177376.038 0  20177376.056 0
 88  2 27  8  0 59.0800000  0  4  6 13 11  9
   4169877.199 7   3249253.518 8  22550541.239 0  22550542.384 0
  -3200316.092 7  53191563.159 7  20799669.221 0  20799669.117 0
  -3804189.408 8  -2868436.821 7  21668784.740 0  21668784.568 0
 -20300101.718 7 -13959899.740 7  20183030.735 0  20183031.346 0
 88  2 27  8  1 29.0800000  0  4  6 13 11  9
   4272109.197 7   3328914.803 7  22569996.504 0  22569995.610 0
  -3217268.271 8  53178353.681 7  20796442.781 0  20796443.890 0
  -3745903.274 8  -2823019.045 7  21679875.781 0  21679876.597 0
 -20269731.268 7 -13936234.447 6  20188811.349 0  20188810.919 0
 88  2 27  8  1 59.0800000  0  4  6 13 11  9
   4374714.597 8   3408867.057 7  22589521.411 0  22589521.455 0
  -3233825.811 8  53165451.719 7  20793292.244 0  20793293.235 0
  -3687453.019 7  -2777473.387 7  21690998.058 0  21690998.702 0
 -20238706.835 7 -13912059.584 7  20194714.513 0  20194714.931 0
 88  2 27  8  2 29.0800000  0  4  6 13 11  9
   4477693.004 8   3489109.960 7  22609117.635 0  22609118.266 0
  -3249987.707 7  53152858.047 7  20790216.133 0  20790217.797 0
  -3628838.487 8  -2731799.717 7  21702151.645 0  21702152.889 0
 -20207026.780 7 -13887373.834 6  20200742.354 0  20200743.688 0
 88  2 27  8  2 59.0800000  0  4  6 13 11  9
   4581041.707 7   3569641.404 8  22628784.418 0  22628784.290 0
  -3265755.483 7  53140571.478 7  20787215.263 0  20787216.397 0
  -3570061.380 7  -2685999.380 7  21713337.284 0  21713337.670 0
 -20174691.466 7 -13862177.488 6  20206896.051 0  20206896.909 0
 88  2 27  8  3 29.0800000  0  4  6 13 11  9
   4684756.688 7   3650458.257 8  22648519.835 0  22648520.644 0
  -3281131.492 7  53128590.178 7  20784289.327 0  20784290.221 0
  -3511124.975 7  -2640074.906 7  21724551.727 0  21724552.843 0
 -20141702.785 7 -13836472.028 6  20213173.619 0  20213174.378 0
 88  2 27  8  3 59.0800000  0  4  6 13 11  9
   4788835.287 7   3731558.445 7  22668325.925 0  22668326.291 0
  -3296116.655 7  53116913.432 7  20781438.242 0  20781440.213 0
  -3452031.410 8  -2594027.963 7  21735797.721 0  21735798.952 0
 -20108061.371 7 -13810257.953 6  20219574.454 0  20219575.238 0
 88  2 27  8  4 29.0800000  0  4  3 13 11  9
         -.444 7         -.055 7  24127073.910 0          .000 0
  -3310711.169 8  53105541.102 7  20778661.582 0  20778663.216 0
  -3392781.736 7  -2547859.383 7  21747071.510 0  21747073.457 0
 -20073766.789 6 -13783534.902 6  20226102.151 0  20226101.978 0
 88  2 27  8  4 59.0800000  0  4  3 13 11  9
    -77758.067 6  84637812.877 7  24112307.564 0  24112308.694 0
  -3324916.965 8  53094471.660 7  20775957.779 0  20775958.364 0
  -3333377.936 7  -2501570.704 7  21758376.867 0  21758377.111 0
 -20038820.098 6 -13756303.729 7  20232751.368 0  20232752.244 0
 88  2 27  8  5 29.0800000  0  4  3 13 11  9
   -155293.059 6  84577395.999 6  24097553.427 0  24097555.688 0
  -3338736.211 7  53083703.423 8  20773328.251 0  20773329.029 0
  -3273822.885 7  -2455164.162 7  21769709.819 0  21769710.199 0
 -20003222.640 6 -13728565.447 7  20239526.295 0  20239526.126 0
 88  2 27  8  5 59.0800000  0  4  3 13 11  9
   -232604.678 7  84517153.188 6  24082841.603 0  24082842.604 0
  -3352169.304 8  53073236.095 7  20770772.289 0  20770772.728 0
  -3214118.291 7  -2408641.096 7  21781070.924 0  21781071.876 0
 -19966974.468 7 -13700320.117 6  20246423.952 0  20246424.405 0
 88  2 27  8  6 29.0800000  0  4  3 13 11  9
   -309692.779 6  84457084.573 7  24068171.276 0  24068173.422 0
  -3365217.412 7  53063068.758 7  20768289.544 0  20768289.675 0
  -3154265.775 8  -2362002.773 8  21792460.497 0  21792462.194 0
 -19930076.539 6 -13671568.492 6  20253444.607 0  20253445.844 0
 88  2 27  8  6 59.0800000  0  4  3 13 11  9
   -386557.810 7  84397189.765 7  24053543.776 0  24053545.478 0
  -3377882.251 7  53053200.065 7  20765879.480 0  20765879.600 0
  -3094268.115 7  -2315251.346 7  21803877.380 0  21803877.817 0
 -19892530.233 6 -13642311.645 7  20260589.918 0  20260589.799 0
 88  2 27  8  7 29.0800000  0  4  3 13 11  9
   -463198.529 7  84337469.730 6  24038961.235 0  24038961.664 0
  -3390164.427 7  53043629.550 7  20763541.504 0  20763542.151 0
  -3034126.278 7  -2268387.576 7  21815322.272 0  21815323.153 0
 -19854335.512 7 -13612549.536 7  20267858.376 0  20267859.166 0
 88  2 27  8  7 59.0800000  0  4  3 13 11  9
   -539612.980 8  84277926.022 6  24024419.862 0  24024421.007 0
  -3402064.315 7  53034356.914 7  20761277.490 0  20761278.541 0
  -2973841.019 7  -2221412.047 6  21826793.931 0  21826794.990 0
 -19815491.974 7 -13582281.847 6  20275250.416 0  20275251.137 0
 88  2 27  8  8 29.0800000  0  4  3 13 11  9
   -615802.592 7  84218557.491 6  24009921.002 0  24009922.819 0
  -3413584.760 7  53025379.948 6  20759084.958 0  20759086.237 0
  -2913415.923 8  -2174327.563 7  21838292.747 0  21838293.528 0
 -19776001.945 7 -13551510.404 7  20282765.028 0  20282764.988 0
 88  2 27  8  8 59.0800000  0  4  3 13 11  9
   -691767.754 7  84159363.856 6  23995465.598 0  23995467.100 0
  -3424727.644 7  53016697.199 6  20756964.299 0  20756965.192 0
  -2852853.398 8  -2127135.973 7  21849817.199 0  21849817.572 0
 -19735866.817 7 -13520236.288 7  20290402.567 0  20290401.571 0
 88  2 27  8  9 29.0800000  0  4  3 13 11  9
   -767508.275 7  84100345.272 6  23981052.622 0  23981053.938 0
  -3435493.995 7  53008307.842 7  20754915.370 0  20754915.927 0
  -2792155.321 7  -2079838.772 7  21861367.336 0  21861369.104 0
 -19695087.560 7 -13488460.239 6  20298161.859 0  20298161.590 0
 88  2 27  8  9 59.0800000  0  4  3 13 11  9
   -843021.780 7  84041503.605 7  23966682.845 0  23966684.189 0
  -3445883.551 8  53000212.098 7  20752937.851 0  20752938.679 0
  -2731322.064 8  -2032436.245 7  21872943.401 0  21872945.312 0
 -19653663.652 6 -13456181.887 7  20306044.024 0  20306044.435 0
 88  2 27  8 10 29.0800000  0  4  3 13 11  9
   -918309.118 7  83982838.146 7  23952356.181 0  23952356.997 0
  -3455899.043 7  52992407.834 7  20751032.125 0  20751033.529 0
  -2670356.274 8  -1984930.429 7  21884545.609 0  21884546.010 0
 -19611596.834 6 -13423402.552 7  20314049.559 0  20314050.250 0
 88  2 27  8 10 59.0800000  0  4  3 13 11  9
   -993371.185 7  83924348.228 7  23938070.596 0  23938073.662 0
  -3465542.632 7  52984893.368 6  20749197.958 0  20749197.395 0
  -2609261.166 8  -1937323.839 7  21896171.384 0  21896172.437 0
 -19568889.566 6 -13390124.169 6  20322176.724 0  20322176.677 0
 88  2 27  8 11 29.0800000  0  4  3 13 11  9
  -1068206.830 7  83866034.766 7  23923831.644 0  23923833.204 0
  -3474814.722 7  52977668.383 7  20747433.234 0  20747434.789 0
  -2548037.401 7  -1889617.018 7  21907822.379 0  21907822.423 0
 -19525541.324 7 -13356346.330 6  20330425.069 0  20330425.175 0
 88  2 27  8 11 59.0800000  0  4  3 13 11  9
  -1142814.001 7  83807899.305 7  23909635.731 0  23909635.917 0
  -3483715.451 7  52970732.760 7  20745739.713 0  20745740.123 0
  -2486685.110 8  -1841810.035 7  21919497.271 0  21919498.173 0
 -19481552.084 7 -13322068.997 6  20338796.970 0  20338795.796 0
 88  2 27  8 12 29.0800000  0  4  3 13 11  9
  -1217193.596 7  83749941.197 7  23895480.645 0  23895481.053 0
  -3492247.130 8  52964084.696 7  20744116.349 0  20744116.373 0
  -2425207.997 8  -1793905.788 7  21931195.672 0  21931196.768 0
 -19436924.125 7 -13287293.979 7  20347289.290 0  20347289.693 0
 88  2 27  8 12 59.0800000  0  4  3 13 11  9
  -1291346.978 7  83692159.364 7  23881369.260 0  23881370.243 0
  -3500412.729 7  52957721.912 7  20742561.713 0  20742562.767 0
  -2363609.386 7  -1745906.872 7  21942917.662 0  21942918.700 0
 -19391660.164 7 -13252023.366 7  20355903.199 0  20355902.153 0
 88  2 27  8 13 29.0800000  0  4  3 13 11  9
  -1365273.355 7  83634554.402 7  23867301.768 0  23867303.234 0
  -3508213.083 7  52951643.712 7  20741077.307 0  20741078.876 0
  -2301890.012 8  -1697813.844 7  21954662.791 0  21954663.728 0
 -19345760.368 7 -13216257.298 6  20364636.965 0  20364637.482 0
 88  2 27  8 13 59.0800000  0  4  3 13 11  9
  -1438970.457 7  83577128.099 7  23853277.755 0  23853279.131 0
  -3515647.615 7  52945850.584 7  20739663.473 0  20739663.611 0
  -2240049.940 8  -1649626.769 7  21966430.177 0  21966430.557 0
 -19299223.949 7 -13179995.154 7  20373492.559 0  20373492.097 0
 88  2 27  8 14 29.0800000  0  4  3 13 11  9
  -1512438.229 7  83519880.498 7  23839296.726 0  23839297.499 0
  -3522718.301 7  52940340.960 7  20738317.737 0  20738318.662 0
  -2178091.100 8  -1601347.165 8  21978221.044 0  21978220.966 0
 -19252052.435 7 -13143238.142 6  20382469.814 0  20382468.908 0
 88  2 27  8 14 59.0800000  0  4  3 13 11  9
  -1585678.844 7  83462809.926 8  23825360.113 0  23825361.702 0
  -3529428.475 8  52935112.268 6  20737040.455 0  20737041.223 0
  -2116017.858 8  -1552978.406 7  21990032.817 0  21990033.576 0
 -19204249.656 7 -13105989.221 7  20391566.709 0  20391565.198 0
 88  2 27  8 15 29.0800000  0  4  3 13 11  9
  -1658691.055 7  83405917.297 7  23811464.674 0  23811467.469 0
  -3535778.766 7  52930164.004 7  20735831.844 0  20735832.411 0
  -2053831.087 8  -1504521.178 7  22001866.726 0  22001867.014 0
 -19155815.981 7 -13068248.705 7  20400782.777 0  20400782.103 0
 88  2 27  8 15 59.0800000  0  4  3 13 11  9
  -1731473.788 7  83349203.506 7  23797616.776 0  23797618.060 0
  -3541769.684 8  52925495.772 7  20734691.960 0  20734692.370 0
  -1991531.781 8  -1455976.268 8  22013722.279 0  22013722.773 0
 -19106751.624 7 -13030016.749 6  20410118.809 0  20410117.921 0
 88  2 27  8 16 29.0800000  0  4  3 13 11  9
  -1804026.825 7  83292668.684 7  23783808.945 0  23783810.394 0
  -3547402.337 7  52921106.681 7  20733620.159 0  20733621.699 0
  -1929121.283 8  -1407344.700 7  22025597.993 0  22025599.188 0
 -19057057.538 7 -12991294.091 6  20419575.966 0  20419573.415 0
 88  2 27  8 16 59.0800000  0  4  3 13 11  9
  -1876350.477 7  83236312.593 7  23770045.248 0  23770047.813 0
  -3552679.145 8  52916994.903 7  20732615.969 0  20732616.851 0
  -1866601.947 7  -1358628.343 7  22037494.755 0  22037495.837 0
 -19006735.975 7 -12952082.494 7  20429151.238 0  20429150.135 0
 88  2 27  8 17 29.0800000  0  4  3 13 11  9
  -1948444.659 7  83180135.320 7  23756326.668 0  23756329.405 0
  -3557601.830 7  52913159.061 7  20731679.074 0  20731679.427 0
  -1803976.146 7  -1309829.015 7  22049412.431 0  22049413.133 0
 -18955788.468 8 -12912383.132 7  20438847.401 0  20438845.722 0
 88  2 27  8 17 59.0800000  0  4  3 13 11  9
  -2020309.852 7  83124136.495 7  23742651.771 0  23742653.595 0
  -3562172.013 7  52909597.911 6  20730808.617 0  20730809.772 0
  -1741245.310 8  -1260947.845 8  22061349.409 0  22061350.727 0
 -18904216.536 7 -12872197.225 6  20448660.381 0  20448659.925 0
 88  2 27  8 18 29.0800000  0  4  3 13 11  9
  -2091945.736 7  83068316.348 7  23729019.354 0  23729021.192 0
  -3566391.214 7  52906310.219 7  20730005.873 0  20730008.057 0
  -1678411.727 8  -1211986.610 7  22073306.771 0  22073307.252 0
 -18852021.780 7 -12831525.976 6  20458592.180 0  20458592.061 0
 88  2 27  8 18 59.0800000  0  4  3 13 11  9
  -2163352.757 7  83012674.512 7  23715432.113 0  23715433.817 0
  -3570261.135 8  52903294.697 7  20729270.580 0  20729270.933 0
  -1615477.209 7  -1162946.724 8  22085281.805 0  22085283.581 0
 -18799205.820 7 -12790370.687 6  20468643.140 0  20468642.889 0
 88  2 27  8 19 29.0800000  0  4  3 13 11  9
  -2234529.322 7  82957212.277 7  23701888.478 0  23701888.202 0
  -3573781.585 7  52900551.502 7  20728600.210 0  20728601.035 0
  -1552442.056 7  -1113828.445 7  22097276.972 0  22097279.077 0
 -18745769.036 6 -12748731.644 6  20478811.517 0  20478810.890 0
 88  2 27  8 19 59.0800000  0  4  3 13 11  9
  -2305474.570 7  82901930.273 7  23688387.766 0  23688389.232 0
  -3576953.522 7  52898079.883 7  20727997.120 0  20727997.244 0
  -1489307.621 7  -1064632.795 7  22109291.457 0  22109292.910 0
 -18691712.094 7 -12706609.356 7  20489098.088 0  20489097.511 0
 88  2 27  8 20 29.0800000  0  4  3 13 11  9
  -2376191.144 7  82846826.474 6  23674929.838 0  23674931.351 0
  -3579781.837 7  52895876.017 7  20727458.537 0  20727459.677 0
  -1426078.236 7  -1015363.140 7  22121323.856 0  22121325.374 0
 -18637039.297 7 -12664007.173 6  20499502.049 0  20499501.460 0
 88  2 27  8 20 59.0800000  0  4  3 13 11  9
  -2446678.306 7  82791901.416 7  23661517.636 0  23661518.194 0
  -3582266.937 8  52893939.574 7  20726985.246 0  20726986.529 0
  -1362754.773 7   -966020.188 8  22133373.326 0  22133374.787 0
 -18581751.638 7 -12620925.887 7  20510023.573 0  20510022.832 0
 88  2 27  8 21 29.0800000  0  4  3 13 11  9
  -2516934.792 7  82737156.118 7  23648147.291 0  23648148.851 0
  -3584409.450 7  52892270.095 7  20726578.608 0  20726578.488 0
  -1299337.830 7   -916604.376 7  22145441.720 0  22145442.136 0
 -18525849.521 8 -12577365.803 6  20520661.255 0  20520662.193 0
 88  2 27  8 21 59.0800000  0  4  3 13 11  9
  -2586959.917 7  82682591.103 7  23634822.439 0  23634822.725 0
  -3586210.474 7  52890866.713 7  20726235.659 0  20726235.755 0
  -1235828.680 7   -867116.734 8  22157527.150 0  22157528.303 0
 -18469334.244 7 -12533327.923 7  20531415.032 0  20531414.234 0
 88  2 27  8 22 29.0800000  0  4  3 13 11  9
  -2656754.089 7  82628206.039 7  23621540.779 0  23621541.760 0
  -3587672.008 7  52889727.859 7  20725956.860 0  20725957.956 0
  -1172229.422 8   -817558.861 7  22169629.414 0  22169630.216 0
 -18412207.962 6 -12488813.948 7  20542286.127 0  20542285.661 0
 88  2 27  8 22 59.0800000  0  4  3 13 11  9
  -2726318.364 7  82574000.110 6  23608303.529 0  23608305.496 0
  -3588796.385 7  52888851.731 6  20725742.938 0  20725743.863 0
  -1108542.591 8   -767932.749 7  22181748.999 0  22181750.123 0
 -18354473.038 7 -12443825.720 7  20553272.919 0  20553273.300 0
 88  2 27  8 23 29.0800000  0  4  3 13 11  9
  -2795652.397 7  82519973.599 7  23595109.516 0  23595110.099 0
  -3589584.875 7  52888237.336 7  20725593.077 0  20725592.901 0
  -1044769.967 8   -718239.778 7  22193884.568 0  22193884.934 0
 -18296130.811 7 -12398364.242 6  20564374.920 0  20564375.645 0
 88  2 27  8 23 59.0800000  0  4  3 13 11  9
  -2864755.902 8  82466126.726 7  23581960.503 0  23581961.250 0
  -3590039.160 7  52887883.366 7  20725506.636 0  20725507.933 0
   -980912.606 7   -668480.776 7  22206036.363 0  22206036.658 0
 -18237182.809 7 -12352430.752 7  20575592.054 0  20575593.223 0
 88  2 27  8 24 29.0800000  0  4  3 13 11  9
  -2933628.187 7  82412460.024 7  23568853.154 0  23568854.968 0
  -3590159.855 7  52887789.333 7  20725483.827 0  20725484.867 0
   -916971.891 7   -618656.836 6  22218203.863 0  22218203.972 0
 -18177630.737 6 -12306026.541 6  20586925.664 0  20586924.587 0
 88  2 27  8 24 59.0800000  0  4  3 13 11  9
  -3002270.263 8  82358972.705 7  23555791.166 0  23555792.529 0
  -3589949.227 7  52887953.468 7  20725523.178 0  20725524.332 0
   -852949.758 8   -568769.454 7  22230386.731 0  22230387.347 0
 -18117476.616 7 -12259153.215 7  20598370.861 0  20598371.787 0
 88  2 27  8 25 29.0800000  0  4  3 13 11  9
  -3070682.039 8  82305664.845 7  23542772.112 0  23542774.004 0
  -3589409.354 8  52888374.168 7  20725627.049 0  20725627.130 0
   -788848.017 8   -518820.053 6  22242584.724 0  22242585.197 0
 -18056723.114 7 -12211812.830 6  20609932.625 0  20609931.901 0
 88  2 27  8 25 59.0800000  0  4  3 13 11  9
  -3138862.858 7  82252536.947 7  23529798.694 0  23529800.171 0
  -3588540.802 8  52889050.965 7  20725792.019 0  20725792.344 0
   -724667.597 7   -468809.331 7  22254798.542 0  22254799.151 0
 -17995370.456 7 -12164005.589 6  20621608.157 0  20621608.617 0
 88  2 27  8 26 29.0800000  0  4  3 13 11  9
  -3206812.566 7  82199589.140 7  23516867.681 0  23516869.888 0
  -3587345.191 7  52889982.611 6  20726018.834 0  20726019.917 0
   -660410.272 8   -418738.694 6  22267025.181 0  22267026.599 0
 -17933420.486 7 -12115732.898 6  20633397.408 0  20633396.713 0
 88  2 27  8 26 59.0800000  0  4  3 13 11  9
  -3274532.091 8  82146820.695 7  23503981.341 0  23503983.284 0
  -3585824.575 8  52891167.506 7  20726308.424 0  20726309.564 0
   -596078.478 7   -368610.017 7  22279266.653 0  22279269.358 0
 -17870876.557 7 -12066997.372 7  20645299.250 0  20645298.663 0
 88  2 27  8 27 29.0800000  0  4  3 13 11  9
  -3342021.380 7  82094231.648 7  23491138.222 0  23491139.661 0
  -3583980.896 7  52892604.164 7  20726659.229 0  20726660.426 0
   -531673.416 7   -318424.255 7  22291522.905 0  22291523.886 0
 -17807739.899 7 -12017799.992 7  20657312.816 0  20657313.072 0
 88  2 27  8 27 59.0800000  0  4  3 13 11  9
  -3409279.891 8  82041822.448 7  23478339.970 0  23478341.551 0
  -3581814.984 7  52894291.901 7  20727071.520 0  20727072.817 0
   -467196.233 7   -268182.328 7  22303791.614 0  22303794.097 0
 -17744012.438 7 -11968142.241 7  20669439.316 0  20669439.594 0
 88  2 27  8 28 29.0800000  0  4  3 13 11  9
  -3476307.630 7  81989593.058 7  23465584.939 0  23465586.864 0
  -3579328.628 7  52896229.327 7  20727544.854 0  20727545.479 0
   -402648.319 7   -217885.258 7  22316076.420 0  22316076.979 0
 -17679695.538 7 -11918025.183 7  20681678.863 0  20681678.626 0
 88  2 27  8 28 59.0800000  0  4  3 13 11  9
  -3543105.312 7  81937542.931 7  23452873.647 0  23452875.296 0
  -3576524.086 7  52898414.692 6  20728078.115 0  20728078.410 0
   -338032.027 7   -167534.901 7  22328371.007 0  22328373.490 0
 -17614792.202 7 -11867451.168 7  20694029.754 0  20694029.707 0
 88  2 27  8 29 29.0800000  0  4  3 13 11  9
  -3609672.598 7  81885672.339 7  23440206.296 0  23440208.002 0
  -3573402.418 7  52900847.167 7  20728672.132 0  20728673.043 0
   -273348.251 7   -117131.968 7  22340680.482 0  22340681.957 0
 -17549303.751 7 -11816421.221 7  20706491.665 0  20706491.206 0
 88  2 27  8 29 59.0800000  0  4  3 13 11  9
  -3676009.536 8  81833981.241 7  23427582.540 0  23427583.885 0
  -3569964.832 7  52903525.818 7  20729326.464 0  20729326.630 0
   -208598.662 7    -66677.755 7  22353001.899 0  22353003.710 0
 -17483232.270 8 -11764936.966 7  20719064.884 0  20719065.066 0
 88  2 27  8 30 29.0800000  0  4  3 13 11  9
  -3742116.772 7  81782469.133 8  23415002.385 0  23415004.818 0
  -3566214.323 7  52906448.309 7  20730040.449 0  20730040.631 0
   -143785.542 7    -16174.032 7  22365335.350 0  22365336.853 0
 -17416580.500 7 -11713000.523 7  20731748.056 0  20731748.126 0
 88  2 27  8 30 59.0800000  0  4  3 13 11  9
  -3807994.050 8  81731136.215 7  23402466.621 0  23402468.953 0
  -3562151.949 8  52909613.812 7  20730813.146 0  20730813.613 0
    -78909.926 7     34378.402 7  22377681.642 0  22377682.122 0
 -17349349.951 7 -11660613.086 6  20744541.371 0  20744542.115 0
 88  2 27  8 31 29.0800000  0  4  3 13 11  9
  -3873642.108 7  81679981.913 7  23389973.780 0  23389975.816 0
  -3557780.101 7  52913020.455 7  20731645.397 0  20731645.607 0
    -13973.578 8     84978.145 7  22390039.111 0  22390039.598 0
 -17281543.774 7 -11607777.115 7  20757444.153 0  20757444.710 0
 88  2 27  8 31 59.0800000  0  4  3 13 11  9
  -3939059.598 7  81629007.271 7  23377525.449 0  23377526.962 0
  -3553098.707 8  52916668.310 7  20732535.801 0  20732537.156 0
     51023.062 8    135624.891 7  22402406.374 0  22402406.639 0
 -17213162.424 7 -11554492.955 6  20770457.585 0  20770457.505 0
 88  2 27  8 32 29.0800000  0  4  3 13 11  9
  -4004246.877 7  81578212.022 7  23365120.903 0  23365122.731 0
  -3548109.664 7  52920555.869 7  20733485.717 0  20733486.056 0
    116078.529 7    186317.456 7  22414785.921 0  22414787.539 0
 -17144208.105 7 -11500762.322 6  20783577.901 0  20783577.979 0
 88  2 27  8 32 59.0800000  0  4  3 13 11  9
  -4069204.547 7  81527595.679 7  23352759.753 0  23352761.295 0
  -3542815.484 7  52924681.214 7  20734493.271 0  20734493.681 0
    181190.218 8    237053.841 7  22427177.124 0  22427177.390 0
 -17074683.883 7 -11446587.616 6  20796808.864 0  20796808.412 0
 88  2 27  8 33 29.0800000  0  4  3 13 11  9
  -4133931.825 7  81477158.861 8  23340441.328 0  23340443.943 0
  -3537216.341 7  52929044.197 7  20735558.133 0  20735558.915 0
    246358.144 8    287834.036 7  22439577.871 0  22439579.145 0
 -17004590.776 7 -11391969.621 6  20810147.371 0  20810147.463 0
 88  2 27  8 33 59.0800000  0  4  3 13 11  9
  -4198430.116 8  81426900.471 7  23328169.357 0  23328169.948 0
  -3531315.243 7  52933642.455 7  20736680.703 0  20736681.958 0
    311579.630 8    338655.976 7  22451989.836 0  22451990.109 0
 -16933932.310 7 -11336911.080 6  20823593.559 0  20823592.409 0
 88  2 27  8 34 29.0800000  0  4  3 13 11  9
  -4262700.252 8  81376819.867 7  23315938.600 0  23315940.489 0
  -3525114.382 7  52938474.294 7  20737861.011 0  20737861.664 0
    376852.625 8    389518.053 7  22464410.379 0  22464410.795 0
 -16862711.594 7 -11281414.432 7  20837145.304 0  20837145.275 0
 88  2 27  8 34 59.0800000  0  4  3 13 11  9
  -4326741.254 7  81326917.816 8  23303752.452 0  23303754.134 0
  -3518614.195 8  52943539.389 7  20739097.970 0  20739098.093 0
    442177.604 7    440420.640 7  22476841.769 0  22476841.684 0
 -16790928.822 7 -11225479.818 7  20850805.597 0  20850805.295 0
 88  2 27  8 35 29.0800000  0  4  3 13 11  9
  -4390553.196 7  81277194.246 8  23291608.907 0  23291611.042 0
  -3511816.244 7  52948836.488 7  20740391.134 0  20740392.675 0
    507552.596 8    491362.191 6  22489282.417 0  22489281.687 0
 -16718586.773 7 -11169109.397 6  20864572.325 0  20864571.196 0
 88  2 27  8 35 59.0800000  0  4  3 13 11  9
  -4454136.446 7  81227648.857 7  23279510.668 0  23279511.111 0
  -3504722.581 7  52954364.033 6  20741741.650 0  20741743.005 0
    572975.608 7    542341.161 7  22501731.149 0  22501731.393 0
 -16645688.039 7 -11112305.194 7  20878443.495 0  20878442.850 0
 88  2 27  8 36 29.0800000  0  4  3 13 11  9
  -4517491.252 8  81178281.516 7  23267453.839 0  23267455.059 0
  -3497335.140 8  52960120.493 7  20743147.558 0  20743147.481 0
    638445.391 7    593356.577 7  22514189.504 0  22514190.078 0
 -16572234.967 7 -11055069.047 7  20892421.644 0  20892421.654 0
 88  2 27  8 36 59.0800000  0  4  3 13 11  9
  -4580617.744 8  81129092.064 7  23255442.535 0  23255441.522 0
  -3489655.637 7  52966104.533 7  20744608.283 0  20744608.249 0
    703960.783 7    644407.532 7  22526657.011 0  22526657.090 0
 -16498230.046 7 -10997402.879 6  20906504.269 0  20906503.903 0
 88  2 27  8 37 29.0800000  0  4  3 13 11  9
  -4643516.165 7  81080080.318 7  23243472.838 0  23243472.856 0
  -3481685.325 8  52972315.165 7  20746125.144 0  20746125.997 0
    769520.320 7    695492.874 7  22539132.566 0  22539133.132 0
 -16423675.300 7 -10939308.276 7  20920691.422 0  20920691.317 0
 88  2 27  8 37 59.0800000  0  4  3 13 11  9
  -4706186.428 7  81031246.371 7  23231547.000 0  23231547.122 0
  -3473425.757 8  52978751.188 7  20747697.338 0  20747697.919 0
    835122.769 7    746611.658 8  22551615.676 0  22551616.629 0
 -16348573.441 7 -10880787.358 7  20934982.560 0  20934983.367 0
 88  2 27  8 38 29.0800000  0  4  3 13 11  9
  -4768629.538 7  80982589.424 7  23219664.096 0  23219664.239 0
  -3464879.541 7  52985410.587 7  20749322.719 0  20749323.501 0
    900766.246 7    797762.408 7  22564107.430 0  22564108.539 0
 -16272927.114 7 -10821842.173 7  20949377.250 0  20949378.085 0
 88  2 27  8 38 59.0800000  0  4  3 13 11  9
  -4830845.149 8  80934109.739 7  23207824.739 0  23207825.271 0
  -3456047.449 7  52992292.724 6  20751004.059 0  20751004.091 0
    966449.963 7    848944.533 7  22576607.518 0  22576608.205 0
 -16196738.392 7 -10762474.357 7  20963876.365 0  20963876.063 0
 88  2 27  8 39 29.0800000  0  4  3 13 11  9
  -4892833.262 8  80885807.341 7  23196029.092 0  23196029.239 0
  -3446930.698 8  52999396.694 7  20752738.538 0  20752740.465 0
   1032173.080 8    900157.344 7  22589113.215 0  22589114.454 0
 -16120009.183 7 -10702685.361 7  20978477.780 0  20978476.820 0
 88  2 27  8 39 59.0800000  0  4  3 13 11  9
  -4954595.119 7  80837681.224 7  23184275.189 0  23184276.777 0
  -3437531.990 8  53006720.365 7  20754527.119 0  20754527.859 0
   1097933.046 7    951398.874 7  22601627.805 0  22601628.049 0
 -16042743.050 7 -10642478.002 7  20993179.931 0  20993180.574 0
 88  2 27  8 40 29.0800000  0  4  3 13 11  9
  -5016130.827 7  80789731.335 7  23172565.891 0  23172567.075 0
  -3427853.454 8  53014262.080 7  20756369.049 0  20756369.602 0
   1163728.871 8   1002668.354 7  22614147.891 0  22614148.350 0
 -15964942.641 7 -10581854.316 6  21007984.336 0  21007984.665 0
 88  2 27  8 40 59.0800000  0  4  3 13 11  9
  -5077439.441 7  80741958.411 7  23160898.562 0  23160900.323 0
  -3417895.288 8  53022021.694 7  20758264.416 0  20758265.152 0
   1229560.116 8   1053965.415 8  22626675.432 0  22626675.940 0
 -15886608.869 7 -10520815.038 6  21022892.054 0  21022891.280 0
 88  2 27  8 41 29.0800000  0  4  3 13 11  9
  -5138521.438 7  80694362.072 7  23149275.449 0  23149276.805 0
  -3407659.194 8  53029997.871 7  20760212.140 0  20760213.126 0
   1295425.519 7   1105289.103 8  22639209.225 0  22639209.133 0
 -15807744.598 8 -10459362.365 7  21037900.451 0  21037899.248 0
 88  2 27  8 41 59.0800000  0  4  3 13 11  9
  -5199378.577 7  80646940.940 7  23137694.165 0  23137695.771 0
  -3397148.164 8  53038188.299 7  20762213.042 0  20762213.065 0
   1361322.441 8   1156637.358 7  22651748.828 0  22651749.387 0
 -15728353.848 7 -10397499.447 7  21053007.094 0  21053007.022 0
 88  2 27  8 42 29.0800000  0  4  3 13 11  9
  -5260010.231 7  80599695.517 7  23126157.784 0  23126158.323 0
  -3386362.874 8  53046592.428 7  20764263.553 0  20764264.474 0
   1427250.319 8   1208009.719 7  22664294.405 0  22664294.992 0
 -15648438.169 8 -10335227.501 6  21068214.217 0  21068214.531 0
 88  2 27  8 42 59.0800000  0  4  3 13 11  9
  -5320417.199 7  80552625.187 7  23114661.367 0  23114663.013 0
  -3375305.670 8  53055208.446 7  20766369.501 0  20766368.520 0
   1493207.699 7   1259405.076 7  22676845.656 0  22676846.386 0
 -15568000.730 7 -10272548.981 7  21083520.475 0  21083521.003 0
 88  2 27  8 43 29.0800000  0  4  3 13 11  9
  -5380598.684 7  80505730.542 7  23103210.093 0  23103211.313 0
  -3363977.487 8  53064035.610 7  20768524.387 0  20768525.352 0
   1559194.233 8   1310823.148 7  22689402.559 0  22689403.167 0
 -15487043.184 7 -10209465.190 7  21098926.695 0  21098926.723 0
 88  2 27  8 43 59.0800000  0  4  3 13 11  9
  -5440555.736 7  80459010.785 7  23091799.871 0  23091801.327 0
  -3352381.198 7  53073071.677 7  20770731.401 0  20770731.175 0
   1625207.862 7   1362262.339 7  22701964.198 0  22701964.964 0
 -15405568.822 8 -10145978.680 7  21114430.162 0  21114430.719 0
 88  2 27  8 44 29.0800000  0  4  3 13 11  9
  -5500287.941 7  80412466.235 6  23080432.424 0  23080434.567 0
  -3340517.138 8  53082316.417 6  20772988.537 0  20772989.684 0
   1691248.687 7   1413722.710 7  22714531.132 0  22714533.222 0
 -15323579.392 7 -10082090.822 7  21130032.419 0  21130032.604 0
 88  2 27  8 44 59.0800000  0  4  3 13 11  9
  -5559796.447 7  80366095.997 7  23069109.736 0  23069110.147 0
  -3328387.825 7  53091767.832 7  20775296.682 0  20775297.800 0
   1757314.379 7   1465202.476 7  22727102.816 0  22727104.326 0
 -15241078.573 8 -10017804.474 7  21145732.436 0  21145732.665 0
 88  2 27  8 45 29.0800000  0  4  3 13 11  9
  -5619081.867 7  80319899.593 7  23057827.911 0  23057828.702 0
  -3315994.708 7  53101424.802 7  20777655.166 0  20777655.368 0
   1823403.224 7   1516700.262 8  22739680.145 0  22739680.861 0
 -15158069.228 7  -9953121.881 7  21161528.240 0  21161529.355 0
 88  2 27  8 45 59.0800000  0  4  3 13 11  9
  -5678144.693 7  80273876.642 7  23046588.642 0  23046589.751 0
  -3303339.867 7  53111285.734 6  20780063.439 0  20780064.725 0
   1889514.163 7   1568215.280 7  22752260.043 0  22752261.331 0
 -15074554.070 8  -9888045.142 7  21177421.660 0  21177421.173 0
 88  2 27  8 46 29.0800000  0  4  3 13 11  9
  -5736984.825 7  80228027.211 7  23035391.259 0  23035392.740 0
  -3290424.723 8  53121349.489 7  20782521.382 0  20782521.492 0
   1955646.341 8   1619746.841 7  22764845.120 0  22764845.214 0
 -14990535.567 8  -9822576.178 7  21193409.435 0  21193409.978 0
 88  2 27  8 46 59.0800000  0  4  3 13 11  9
  -5795601.102 7  80182352.200 7  23024237.158 0  23024238.027 0
  -3277249.727 8  53131615.721 7  20785028.389 0  20785029.142 0
   2021800.049 8   1671295.179 7  22777433.024 0  22777434.520 0
 -14906014.962 7  -9756715.971 7  21209493.283 0  21209493.396 0
 88  2 27  8 47 29.0800000  0  4  3 13 11  9
  -5853995.867 7  80136849.817 7  23013125.673 0  23013125.845 0
  -3263817.711 7  53142082.237 7  20787584.859 0  20787585.308 0
   2087972.700 7   1722858.278 7  22790025.943 0  22790027.031 0
 -14820996.383 8  -9690467.729 7  21225671.542 0  21225671.470 0
 88  2 27  8 47 59.0800000  0  4  3 13 11  9
  -5912169.094 7  80091520.053 7  23002054.784 0  23002055.424 0
  -3250130.854 7  53152747.319 6  20790189.414 0  20790189.044 0
   2154162.727 7   1774434.934 7  22802621.009 0  22802622.204 0
 -14735482.979 7  -9623833.921 7  21241944.156 0  21241943.726 0
 88  2 27  8 48 29.0800000  0  4  3 13 11  9
  -5970120.814 8  80046362.902 7  22991026.893 0  22991028.857 0
  -3236189.979 8  53163610.339 6  20792841.230 0  20792842.806 0
   2220369.887 8   1826024.944 7  22815219.995 0  22815220.825 0
 -14649476.618 7  -9556815.982 7  21258311.525 0  21258310.580 0
 88  2 27  8 48 59.0800000  0  4  3 13 11  9
  -6027851.776 7  80001377.763 7  22980042.528 0  22980042.839 0
  -3221997.233 7  53174669.619 7  20795541.943 0  20795543.906 0
   2286592.760 8   1877627.175 7  22827821.742 0  22827822.845 0
 -14562980.401 7  -9489416.336 7  21274770.130 0  21274770.545 0
 88  2 27  8 49 29.0800000  0  4  3 13 11  9
  -6085361.980 7  79956564.646 7  22969098.500 0  22969099.444 0
  -3207553.796 8  53185924.251 7  20798290.610 0  20798292.437 0
   2352830.316 7   1929240.855 7  22840425.965 0  22840426.904 0
 -14475997.299 7  -9421637.313 7  21291321.745 0  21291322.617 0
 88  2 27  8 49 59.0800000  0  4  3 13 11  9
  -6142652.259 8  79911922.899 7  22958195.719 0  22958196.799 0
  -3192862.023 7  53197372.382 6  20801085.808 0  20801086.661 0
   2419081.170 7   1980864.881 7  22853033.323 0  22853034.354 0
 -14388530.516 7  -9353481.387 7  21307966.971 0  21307966.269 0
 88  2 27  8 50 29.0800000  0  4  3 13 11  9
  -6199723.331 8  79867451.949 7  22947335.396 0  22947336.187 0
  -3177923.552 8  53209012.767 7  20803929.034 0  20803930.374 0
   2485344.156 8   2032498.392 6  22865642.791 0  22865642.985 0
 -14300582.550 8  -9284950.511 7  21324702.430 0  21324703.130 0
 88  2 27  8 50 59.0800000  0  4  3 13 11  9
  -6256573.752 7  79823152.951 7  22936517.558 0  22936518.391 0
  -3162738.822 7  53220845.029 6  20806818.507 0  20806819.189 0
   2551619.654 7   2084141.631 7  22878254.762 0  22878255.307 0
 -14212155.294 7  -9216046.171 7  21341530.412 0  21341530.612 0
 88  2 27  8 51 29.0800000  0  4  3 13 11  9
  -6313205.727 7  79779024.174 7  22925740.257 0  22925741.687 0
  -3147310.332 8  53232867.233 7  20809754.742 0  20809756.208 0
   2617905.170 7   2135792.690 7  22890868.415 0  22890868.989 0
 -14123252.729 7  -9146771.459 7  21358447.398 0  21358448.126 0
 88  2 27  8 51 59.0800000  0  4  3 13 11  9
  -6369620.129 7  79735064.906 7  22915005.347 0  22915006.141 0
  -3131640.642 8  53245077.392 6  20812735.970 0  20812737.585 0
   2684199.412 8   2187450.544 7  22903484.294 0  22903484.988 0
 -14033878.061 7  -9077128.863 7  21375454.788 0  21375455.389 0
 88  2 27  8 52 29.0800000  0  4  3 13 11  9
  -6425816.004 8  79691275.931 7  22904311.799 0  22904312.614 0
  -3115730.037 8  53257475.273 7  20815764.385 0  20815764.606 0
   2750502.676 7   2239115.418 7  22916100.966 0  22916101.639 0
 -13944033.302 7  -9007119.952 7  21392551.040 0  21392552.212 0
 88  2 27  8 52 59.0800000  0  4  3 13 11  9
  -6481794.115 8  79647656.648 7  22893659.782 0  22893659.796 0
  -3099580.122 7  53270059.632 6  20818837.417 0  20818837.781 0
   2816813.223 7   2290785.971 7  22928718.668 0  22928720.551 0
 -13853721.421 7  -8936747.066 7  21409738.154 0  21409737.753 0
 88  2 27  8 53 29.0800000  0  4  3 13 11  9
  -6537556.110 7  79604205.769 7  22883047.874 0  22883048.582 0
  -3083194.309 8  53282827.805 6  20821955.737 0  20821955.968 0
   2883129.347 8   2342460.861 7  22941337.516 0  22941339.684 0
 -13762946.482 7  -8866013.344 7  21427012.097 0  21427012.683 0
 88  2 27  8 53 59.0800000  0  4  3 13 11  9
  -6593102.002 7  79560923.285 7  22872477.731 0  22872478.171 0
  -3066573.372 7  53295779.189 6  20825118.058 0  20825119.266 0
   2949450.319 7   2394139.537 7  22953959.525 0  22953959.948 0
 -13671711.142 7  -8794920.900 7  21444373.812 0  21444373.368 0
 88  2 27  8 54 29.0800000  0  4  3 13 11  9
  -6648430.176 8  79517810.452 7  22861949.167 0  22861950.079 0
  -3049717.109 7  53308913.939 7  20828325.911 0  20828327.383 0
   3015777.394 8   2445822.987 7  22966581.177 0  22966582.344 0
 -13580015.966 7  -8723470.115 7  21461822.098 0  21461822.326 0
 88  2 27  8 54 59.0800000  0  4  3 13 11  9
  -6703542.508 8  79474865.798 7  22851461.366 0  22851462.608 0
  -3032628.428 8  53322229.804 7  20831577.549 0  20831578.414 0
   3082107.981 8   2497509.149 7  22979203.137 0  22979203.775 0
 -13487865.447 7  -8651664.535 7  21479358.071 0  21479358.571 0
 88  2 27  8 55 29.0800000  0  4  3 13 11  9
  -6758441.628 7  79432087.284 7  22841014.984 0  22841015.027 0
  -3015311.803 8  53335723.283 7  20834872.542 0  20834873.192 0
   3148438.750 7   2549195.468 7  22991825.068 0  22991826.571 0
 -13395264.961 8  -8579508.327 7  21496979.756 0  21496979.254 0
 88  2 27  8 55 59.0800000  0  4  3 13 11  9
  -6813125.676 8  79389476.373 7  22830608.492 0  22830608.721 0
  -2997766.096 8  53349395.276 7  20838211.943 0  20838212.682 0
   3214771.103 7   2600883.005 7  23004447.456 0  23004449.332 0
 -13302215.133 8  -8507001.984 7  21514686.522 0  21514685.362 0
 88  2 27  8 56 29.0800000  0  4  3 13 11  9
  -6867594.283 8  79347033.326 7  22820242.716 0  22820244.398 0
  -2979991.940 8  53363245.282 7  20841593.695 0  20841595.482 0
   3281104.946 7   2652571.703 7  23017070.640 0  23017072.708 0
 -13208718.203 7  -8434147.250 6  21532478.458 0  21532478.414 0
 88  2 27  8 56 59.0800000  0  4  3 13 11  9
  -6921848.956 8  79304756.989 7  22809919.110 0  22809920.165 0
  -2961991.738 8  53377271.423 6  20845019.355 0  20845019.833 0
   3347438.630 8   2704260.295 7  23029693.744 0  23029694.754 0
 -13114778.271 7  -8360947.318 6  21550353.873 0  21550354.201 0
 88  2 27  8 57 29.0800000  0  4  3 13 11  9
  -6975891.255 8  79262646.123 7  22799634.604 0  22799635.605 0
  -2943769.194 8  53391470.805 7  20848487.224 0  20848488.049 0
   3413769.782 8   2755946.910 7  23042316.347 0  23042317.643 0
 -13020399.814 7  -8287405.681 7  21568313.255 0  21568314.384 0
 88  2 27  8 57 59.0800000  0  4  3 13 11  9
  -7029720.800 8  79220701.053 7  22789391.430 0  22789392.105 0
  -2925324.247 7  53405843.507 7  20851997.340 0  20851997.675 0
   3480098.471 8   2807631.603 7  23054938.243 0  23054939.231 0
 -12925583.840 7  -8213523.108 7  21586356.803 0  21586357.560 0
 88  2 27  8 58 29.0800000  0  4  3 13 11  9
  -7083337.636 8  79178921.713 7  22779188.757 0  22779189.337 0
  -2906657.747 7  53420388.833 7  20855549.837 0  20855550.268 0
   3546424.423 7   2859314.166 7  23067559.601 0  23067560.353 0
 -12830333.578 7  -8139302.135 7  21604481.513 0  21604482.185 0
 88  2 27  8 58 59.0800000  0  4  3 13 11  9
  -7136741.740 8  79137308.146 7  22769026.112 0  22769026.810 0
  -2887771.264 7  53435105.586 7  20859143.065 0  20859143.833 0
   3612747.541 7   2910994.505 7  23080180.230 0  23080181.382 0
 -12734651.364 7  -8064744.570 7  21622689.989 0  21622690.403 0
 88  2 27  8 59 29.0800000  0  4  3 13 11  9
  -7189935.996 7  79095858.084 7  22758903.099 0  22758904.809 0
  -2868668.834 7  53449990.600 7  20862778.033 0  20862778.285 0
   3679064.491 7   2962670.043 7  23092799.371 0  23092800.824 0
 -12638542.616 8  -7989854.646 7  21640979.026 0  21640978.725 0
 88  2 27  8 59 59.0800000  0  4  3 13 11  9
  -7242920.491 7  79054571.478 7  22748821.268 0  22748822.767 0
  -2849351.912 8  53465042.758 7  20866454.676 0  20866454.707 0
   3745374.362 7   3014340.073 7  23105418.740 0  23105420.415 0
 -12542010.191 7  -7914634.594 8  21659348.537 0  21659348.794 0
 88  2 27  9  0 29.0800000  0  4  3 13 11  9
  -7295693.952 7  79013449.311 7  22738778.483 0  22738779.116 0
  -2829819.764 8  53480262.616 7  20870171.142 0  20870171.735 0
   3811678.392 7   3066005.567 8  23118036.035 0  23118036.565 0
 -12445055.372 7  -7839085.391 7  21677798.038 0  21677797.765 0
 88  2 27  9  0 59.0800000  0  4  3 13 11  9
  -7348257.437 8  78972490.766 7  22728775.950 0  22728777.320 0
  -2810074.665 7  53495648.417 7  20873927.570 0  20873929.375 0
   3877975.411 7   3117665.588 7  23130652.078 0  23130651.885 0
 -12347681.834 7  -7763209.919 7  21696327.669 0  21696327.783 0
 88  2 27  9  1 29.0800000  0  4  3 13 11  9
  -7400613.114 7  78931694.147 7  22718812.893 0  22718814.120 0
  -2790119.737 8  53511197.716 6  20877725.476 0  20877726.774 0
   3944262.769 6   3169318.058 7  23143265.044 0  23143266.240 0
 -12249893.922 7  -7687011.552 7  21714935.315 0  21714936.430 0
 88  2 27  9  1 59.0800000  0  4  3 13 11  9
  -7452759.933 7  78891060.274 7  22708889.750 0  22708891.575 0
  -2769955.128 7  53526910.402 7  20881562.408 0  20881563.709 0
   4010541.196 7   3220963.587 7  23155878.053 0  23155878.433 0
 -12151693.928 7  -7610492.082 6  21733623.120 0  21733622.946 0
 88  2 27  9  2 29.0800000  0  4  3 13 11  9
  -7504698.747 7  78850588.498 6  22699006.062 0  22699006.617 0
  -2749582.216 7  53542785.394 7  20885439.548 0  20885440.952 0
   4076809.943 7   3272601.572 7  23168488.308 0  23168488.630 0
 -12053084.499 8  -7533653.578 7  21752388.052 0  21752388.222 0
 88  2 27  9  2 59.0800000  0  4  3 13 11  9
  -7556431.209 8  78810277.509 7  22689161.932 0  22689163.388 0
  -2729004.053 8  53558820.340 7  20889355.333 0  20889356.395 0
   4143067.103 7   3324230.527 7  23181096.366 0  23181097.140 0
 -11954070.122 8  -7456499.528 7  21771230.110 0  21771229.508 0
 88  2 27  9  3 29.0800000  0  4  3 13 11  9
  -7607956.617 7  78770127.859 6  22679356.712 0  22679357.700 0
  -2708221.353 8  53575014.645 7  20893310.903 0  20893311.674 0
   4209313.317 8   3375850.945 7  23193703.308 0  23193704.439 0
 -11854652.660 7  -7379031.398 7  21790147.320 0  21790148.149 0
 88  2 27  9  3 59.0800000  0  4  3 13 11  9
  -7659276.222 7  78730138.559 7  22669591.115 0  22669592.166 0
  -2687236.179 8  53591366.725 7  20897303.428 0  20897305.151 0
   4275546.486 7   3427461.202 7  23206306.551 0  23206307.990 0
 -11754836.355 7  -7301252.452 6  21809143.632 0  21809142.056 0
 88  2 27  9  4 29.0800000  0  4  3 13 11  9
  -7710389.562 7  78690310.024 7  22659864.677 0  22659865.700 0
  -2666049.112 8  53607876.142 7  20901335.774 0  20901336.201 0
   4341766.947 7   3479061.566 7  23218907.898 0  23218908.894 0
 -11654623.112 8  -7223164.222 7  21828212.805 0  21828212.905 0
 88  2 27  9  4 59.0800000  0  4  3 13 11  9
  -7761298.012 8  78650641.115 7  22650177.494 0  22650178.585 0
  -2644661.978 7  53624541.458 6  20905405.737 0  20905406.369 0
   4407973.781 7   3530651.293 7  23231506.827 0  23231507.737 0
 -11554016.877 8  -7144769.755 7  21847357.675 0  21847358.118 0
 88  2 27  9  5 29.0800000  0  4  3 13 11  9
  -7812002.826 7  78611130.890 7  22640528.205 0  22640529.024 0
  -2623077.212 8  53641360.751 7  20909513.184 0  20909513.833 0
   4474165.655 8   3582229.369 7  23244102.751 0  23244104.004 0
 -11453021.111 7  -7066071.773 7  21866576.351 0  21866576.365 0
 88  2 27  9  5 59.0800000  0  4  3 13 11  9
  -7862503.583 7  78571779.677 7  22630919.021 0  22630918.559 0
  -2601295.607 7  53658333.440 7  20913657.365 0  20913658.924 0
   4540342.078 7   3633795.407 7  23256695.091 0  23256696.716 0
 -11351638.490 7  -6987072.324 7  21885868.319 0  21885868.247 0
 88  2 27  9  6 29.0800000  0  4  3 13 11  9
  -7912800.855 8  78532587.020 7  22621347.405 0  22621346.529 0
  -2579318.736 8  53675458.271 7  20917840.064 0  20917840.034 0
   4606502.701 8   3685349.123 7  23269285.384 0  23269286.716 0
 -11249872.380 7  -6907774.077 7  21905233.693 0  21905233.177 0
 88  2 27  9  6 59.0800000  0  4  3 13 11  9
  -7962895.691 8  78493552.123 7  22611813.677 0  22611815.040 0
  -2557148.400 7  53692733.867 7  20922058.868 0  20922058.935 0
   4672646.627 7   3736889.837 7  23281872.636 0  23281873.067 0
 -11147726.144 7  -6828179.615 7  21924672.445 0  21924672.673 0
 88  2 27  9  7 29.0800000  0  4  3 13 11  9
  -8012789.319 7  78454673.989 7  22602319.847 0  22602320.734 0
  -2534787.235 7  53710158.158 8  20926314.058 0  20926314.442 0
   4738771.868 8   3788415.986 8  23294456.033 0  23294457.773 0
 -11045204.428 7  -6748292.576 7  21944181.483 0  21944182.184 0
 88  2 27  9  7 59.0800000  0  4  3 13 11  9
  -8062481.758 7  78415952.637 7  22592863.714 0  22592863.038 0
  -2512236.469 7  53727730.180 7  20930604.937 0  20930605.791 0
   4804878.512 7   3839927.673 7  23307035.015 0  23307036.869 0
 -10942308.857 7  -6668114.215 7  21963761.267 0  21963761.953 0
 88  2 27  9  8 29.0800000  0  4  3 13 11  9
  -8111973.878 7  78377387.374 7  22583445.286 0  22583445.368 0
  -2489497.511 7  53745448.851 7  20934932.262 0  20934933.613 0
   4870965.677 7   3891424.163 7  23319611.242 0  23319612.116 0
 -10839043.456 7  -6587647.677 7  21983411.737 0  21983413.268 0
 88  2 27  9  8 59.0800000  0  4  3 13 11  9
  -8161264.207 7  78338979.356 7  22574066.061 0  22574066.727 0
  -2466569.395 8  53763314.917 7  20939295.525 0  20939295.556 0
   4937034.938 7   3942906.695 7  23332183.334 0  23332184.594 0
 -10735408.811 8  -6506893.423 7  22003132.609 0  22003132.951 0
 88  2 27  9  9 29.0800000  0  4  3 13 11  9
  -8210354.659 8  78300727.090 7  22564724.427 0  22564724.584 0
  -2443454.947 8  53781326.168 7  20943693.162 0  20943695.246 0
   5003084.673 7   3994374.020 8  23344752.679 0  23344753.746 0
 -10631410.298 7  -6425855.629 7  22022922.709 0  22022924.139 0
 88  2 27  9  9 59.0800000  0  4  3 13 11  9
  -8259247.195 8  78262629.035 7  22555420.200 0  22555420.193 0
  -2420156.305 8  53799480.954 7  20948127.363 0  20948127.547 0
   5069113.163 7   4045824.787 7  23357317.173 0  23357318.290 0
 -10527051.339 7  -6344536.974 7  22042782.293 0  22042781.920 0
 88  2 27  9 10 29.0800000  0  4  3 13 11  9
  -8307942.393 8  78224684.761 7  22546154.576 0  22546155.163 0
  -2396675.590 7  53817777.618 7  20952595.905 0  20952596.326 0
   5135119.675 8   4097258.423 7  23369878.747 0  23369879.257 0
 -10422335.937 7  -6262940.564 7  22062708.245 0  22062709.689 0
 88  2 27  9 10 59.0800000  0  4  3 13 11  9
  -8356438.740 8  78186895.427 7  22536925.115 0  22536926.049 0
  -2373012.345 8  53836216.520 7  20957098.307 0  20957099.687 0
   5201105.030 7   4148675.580 7  23382434.849 0  23382436.352 0
 -10317265.224 7  -6181067.302 7  22082702.593 0  22082703.408 0
 88  2 27  9 11 29.0800000  0  4  3 13 11  9
  -8404739.257 7  78149258.678 7  22527734.611 0  22527734.797 0
  -2349170.442 7  53854794.622 7  20961635.430 0  20961636.913 0
   5267066.420 8   4200074.073 7  23394987.237 0  23394988.054 0
 -10211845.028 7  -6098921.714 7  22102764.195 0  22102764.481 0
 88  2 27  9 11 59.0800000  0  4  3 13 11  9
  -8452844.970 8  78111773.720 7  22518579.801 0  22518580.613 0
  -2325151.558 8  53873510.639 7  20966206.527 0  20966206.350 0
   5333003.346 7   4251453.491 7  23407534.331 0  23407534.883 0
 -10106078.620 8  -6016506.336 7  22122891.248 0  22122890.603 0
 88  2 27  9 12 29.0800000  0  4  3 13 11  9
  -8500753.682 8  78074442.287 7  22509462.825 0  22509463.458 0
  -2300955.044 8  53892365.068 7  20970810.595 0  20970811.517 0
   5398917.733 7   4302815.339 7  23420077.318 0  23420078.206 0
  -9999966.656 7  -5933821.700 7  22143083.465 0  22143083.306 0
 88  2 27  9 12 59.0800000  0  4  3 13 11  9
  -8548467.262 7  78037262.900 7  22500384.254 0  22500382.916 0
  -2276583.800 7  53911355.647 7  20975448.541 0  20975448.854 0
   5464807.650 7   4354158.141 7  23432616.449 0  23432617.244 0
  -9893514.038 7  -5850871.627 6  22163341.618 0  22163340.558 0
 88  2 27  9 13 29.0800000  0  4  3 13 11  9
  -8595988.201 8  78000233.630 6  22491341.235 0  22491341.128 0
  -2252039.446 7  53930481.119 8  20980118.471 0  20980119.700 0
   5530670.957 7   4405480.192 7  23445148.997 0  23445150.394 0
  -9786725.468 8  -5767659.759 6  22183661.701 0  22183661.901 0
 88  2 27  9 13 59.0800000  0  4  3 13 11  9
  -8643314.356 8  77963356.127 7  22482334.342 0  22482335.194 0
  -2227321.655 8  53949741.741 7  20984822.525 0  20984823.647 0
   5596509.802 7   4456783.166 7  23457677.804 0  23457678.986 0
  -9679601.623 8  -5684186.638 7  22204047.292 0  22204045.918 0
 88  2 27  9 14 29.0800000  0  4  3 13 11  9
  -8690447.544 8  77926629.000 7  22473366.074 0  22473365.688 0
  -2202433.531 8  53969135.080 7  20989558.814 0  20989559.611 0
   5662322.791 7   4508066.010 7  23470201.918 0  23470203.178 0
  -9572146.930 7  -5600455.711 7  22224494.126 0  22224494.640 0
 88  2 27  9 14 59.0800000  0  4  3 13 11  9
  -8737389.761 7  77890050.678 7  22464433.014 0  22464433.039 0
  -2177376.835 8  53988659.780 7  20994327.049 0  20994327.345 0
   5728107.964 7   4559327.171 7  23482720.822 0  23482721.289 0
  -9464366.016 8  -5516470.600 7  22245004.808 0  22245004.807 0
 88  2 27  9 15 29.0800000  0  4  3 13 11  9
  -8784139.998 8  77853621.941 7  22455535.404 0  22455536.470 0
  -2152151.680 7  54008315.745 7  20999127.435 0  20999127.574 0
   5793866.685 8   4610567.735 7  23495233.710 0  23495234.233 0
  -9356260.260 8  -5432232.347 7  22265576.705 0  22265576.274 0
 88  2 27  9 15 59.0800000  0  4  3 13 11  9
  -8830699.194 7  77817342.069 7  22446677.410 0  22446676.680 0
  -2126759.527 8  54028101.833 7  21003959.074 0  21003959.330 0
   5859597.612 7   4661786.639 7  23507741.811 0  23507742.470 0
  -9247833.698 7  -5347744.134 7  22286209.216 0  22286208.928 0
 88  2 27  9 16 29.0800000  0  4  3 13 11  9
  -8877068.313 8  77781210.318 7  22437852.538 0  22437852.659 0
  -2101203.027 8  54048015.991 7  21008822.493 0  21008823.282 0
   5925300.024 7   4712983.314 7  23520245.233 0  23520245.406 0
  -9139089.944 7  -5263008.761 7  22306901.938 0  22306902.195 0
 88  2 27  9 16 59.0800000  0  4  3 13 11  9
  -8923247.825 8  77745226.308 7  22429064.877 0  22429065.699 0
  -2075482.736 8  54068057.780 7  21013717.142 0  21013716.894 0
   5990973.776 8   4764157.658 7  23532741.344 0  23532744.339 0
  -9030032.125 7  -5178028.637 7  22327655.676 0  22327655.275 0
 88  2 27  9 17 29.0800000  0  4  3 13 11  9
  -8969239.007 8  77709389.054 7  22420313.518 0  22420313.697 0
  -2049601.186 8  54088225.217 7  21018641.923 0  21018643.073 0
   6056617.851 8   4815308.882 7  23545233.976 0  23545234.714 0
  -8920664.166 7  -5092806.864 7  22348467.166 0  22348467.695 0
 88  2 27  9 17 59.0800000  0  4  3 13 11  9
  -9015042.882 8  77673697.774 6  22411596.365 0  22411597.403 0
  -2023559.450 7  54108517.481 7  21023597.464 0  21023598.107 0
   6122232.006 7   4866436.781 7  23557720.081 0  23557721.459 0
  -8810989.039 7  -5007345.733 6  22369337.552 0  22369338.367 0
 88  2 27  9 18 29.0800000  0  4  3 13 11  9
  -9060658.460 8  77638153.191 7  22402916.009 0  22402916.259 0
  -1997357.663 7  54128934.459 7  21028583.638 0  21028583.769 0
   6187816.770 7   4917541.794 7  23570200.048 0  23570200.699 0
  -8701009.453 7  -4921647.356 7  22390267.751 0  22390266.748 0
 88  2 27  9 18 59.0800000  0  4  3 13 11  9
  -9106088.157 8  77602753.446 6  22394272.198 0  22394271.927 0
  -1970998.745 8  54149473.870 6  21033599.529 0  21033599.617 0
   6253369.979 7   4968622.223 7  23582674.886 0  23582675.185 0
  -8590729.934 7  -4835715.267 7  22411250.836 0  22411251.623 0
 88  2 27  9 19 29.0800000  0  4  3 13 11  9
  -9151332.345 8  77567498.273 7  22385662.536 0  22385661.313 0
  -1944484.384 7  54170134.415 7  21038644.911 0  21038645.425 0
   6318891.288 8   5019677.787 7  23595142.758 0  23595143.603 0
  -8480154.348 7  -4749552.479 7  22432293.076 0  22432293.290 0
 88  2 27  9 19 59.0800000  0  4  3 13 11  9
  -9196390.746 8  77532387.847 6  22377087.188 0  22377087.588 0
  -1917814.063 8  54190916.489 7  21043720.346 0  21043720.949 0
   6384381.677 7   5070709.246 7  23607605.034 0  23607606.440 0
  -8369284.768 7  -4663160.624 7  22453390.721 0  22453392.022 0
 88  2 27  9 20 29.0800000  0  4  3 13 11  9
  -9241264.243 7  77497421.500 7  22368548.199 0  22368548.592 0
  -1890989.495 7  54211818.748 7  21048825.658 0  21048825.073 0
   6449840.965 7   5121716.483 7  23620061.733 0  23620062.134 0
  -8258124.092 7  -4576541.924 7  22474544.200 0  22474544.439 0
 88  2 27  9 20 59.0800000  0  4  3 13 11  9
  -9285954.057 8  77462598.297 6  22360043.867 0  22360044.583 0
  -1864012.721 7  54232839.611 7  21053958.065 0  21053958.697 0
   6515267.782 8   5172698.417 7  23632512.140 0  23632512.555 0
  -8146676.518 7  -4489699.689 7  22495752.444 0  22495752.909 0
 88  2 27  9 21 29.0800000  0  4  3 13 11  9
  -9330462.133 7  77427916.706 7  22351573.970 0  22351573.812 0
  -1836886.410 8  54253977.006 7  21059120.349 0  21059121.539 0
   6580660.272 7   5223653.608 7  23644956.314 0  23644956.605 0
  -8034947.009 7  -4402637.746 7  22517014.166 0  22517014.294 0
 88  2 27  9 21 59.0800000  0  4  3 13 11  9
  -9374787.784 7  77393377.254 7  22343139.739 0  22343139.939 0
  -1809610.826 8  54275230.725 7  21064310.623 0  21064310.969 0
   6646019.413 7   5274582.800 7  23657392.763 0  23657393.919 0
  -7922937.515 7  -4315357.638 7  22538329.135 0  22538329.049 0
 88  2 27  9 22 29.0800000  0  4  3 13 11  9
  -9418930.261 8  77358980.545 7  22334739.928 0  22334739.578 0
  -1782185.818 8  54296600.846 7  21069529.572 0  21069529.932 0
   6711346.124 7   5325486.723 7  23669823.258 0  23669825.538 0
  -7810650.047 7  -4227860.928 7  22559696.612 0  22559697.198 0
 88  2 27  9 22 59.0800000  0  4  3 13 11  9
  -9462892.484 7  77324724.304 6  22326373.351 0  22326373.987 0
  -1754614.691 7  54318084.835 7  21074775.737 0  21074777.284 0
   6776638.390 7   5376363.812 7  23682248.574 0  23682250.045 0
  -7698089.849 8  -4140151.701 6  22581116.225 0  22581116.718 0
 88  2 27  9 23 29.0800000  0  4  3 13 11  9
  -9506675.735 8  77290607.511 7  22318042.253 0  22318042.718 0
  -1726899.829 7  54339680.835 7  21080050.176 0  21080050.050 0
   6841895.109 7   5427213.185 7  23694666.852 0  23694668.005 0
  -7585261.334 7  -4052233.380 7  22602587.540 0  22602586.991 0
 88  2 27  9 23 59.0800000  0  4  3 13 11  9
  -9550278.047 8  77256631.708 6  22309745.039 0  22309744.818 0
  -1699039.328 7  54361390.316 7  21085351.360 0  21085352.550 0
   6907118.896 7   5478036.924 7  23707078.681 0  23707079.877 0
  -7472164.618 7  -3964106.090 7  22624108.901 0  22624108.793 0
 88  2 27  9 24 29.0800000  0  4  3 13 11  9
  -9593702.380 7  77222794.580 7  22301481.302 0  22301480.787 0
  -1671036.401 7  54383210.771 7  21090680.103 0  21090681.580 0
   6972306.879 7   5528832.764 7  23719483.689 0  23719484.609 0
  -7358805.665 8  -3875774.442 7  22645680.030 0  22645680.344 0
 88  2 27  9 24 59.0800000  0  4  3 13 11  9
  -9636949.652 8  77189095.426 7  22293252.035 0  22293251.836 0
  -1642892.899 8  54405140.780 6  21096035.934 0  21096034.991 0
   7037458.720 7   5579600.400 7  23731882.300 0  23731882.633 0
  -7245187.997 7  -3787241.216 7  22667300.697 0  22667301.237 0
 88  2 27  9 25 29.0800000  0  4  3 13 11  9
  -9680018.291 7  77155535.459 7  22285056.088 0  22285056.253 0
  -1614607.842 8  54427181.077 6  21101417.793 0  21101417.967 0
   7102576.383 8   5630341.430 7  23744273.649 0  23744273.707 0
  -7131312.397 7  -3698506.987 8  22688970.438 0  22688970.623 0
 88  2 27  9 25 59.0800000  0  4  3 13 11  9
  -9722910.736 7  77122112.768 7  22276894.383 0  22276893.953 0
  -1586185.014 7  54449328.731 6  21106826.882 0  21106826.784 0
   7167657.664 7   5681054.108 7  23756657.128 0  23756659.064 0
  -7017184.852 7  -3609576.438 6  22710688.169 0  22710688.776 0
 88  2 27  9 26 29.0800000  0  4  3 13 11  9
  -9765627.983 8  77088826.596 7  22268764.966 0  22268765.052 0
  -1557624.983 8  54471583.307 7  21112261.685 0  21112262.131 0
   7232701.980 7   5731737.967 7  23769035.602 0  23769036.740 0
  -6902808.479 7  -3520452.004 6  22732451.556 0  22732453.723 0
 88  2 27  9 26 59.0800000  0  4  3 13 11  9
  -9808169.316 8  77055677.503 6  22260668.775 0  22260670.571 0
  -1528927.751 8  54493944.784 6  21117722.646 0  21117723.664 0
   7297710.810 7   5782394.198 7  23781406.360 0  23781407.613 0
  -6788185.353 7  -3431135.294 7  22754265.017 0  22754265.185 0
 88  2 27  9 27 29.0800000  0  4  3 13 11  9
  -9850536.729 7  77022663.932 7  22252607.592 0  22252608.557 0
  -1500096.062 8  54516411.038 7  21123208.904 0  21123210.009 0
   7362682.280 7   5833021.308 7  23793769.323 0  23793770.079 0
  -6673320.356 8  -3341630.119 7  22776123.436 0  22776123.256 0
 88  2 27  9 27 59.0800000  0  4  3 13 11  9
  -9892730.791 7  76989785.447 7  22244578.597 0  22244578.890 0
  -1471131.160 8  54538981.094 7  21128720.991 0  21128720.679 0
   7427616.384 8   5883619.316 7  23806125.385 0  23806127.222 0
  -6558216.382 7  -3251938.712 7  22798026.263 0  22798026.154 0
 88  2 27  9 28 29.0800000  0  4  3 13 11  9
  -9934751.941 7  76957041.713 7  22236581.905 0  22236581.268 0
  -1442033.794 7  54561654.367 7  21134258.563 0  21134258.880 0
   7492513.315 7   5934188.343 7  23818476.175 0  23818476.448 0
  -6442877.006 7  -3162063.901 7  22819974.481 0  22819975.750 0
 88  2 27  9 28 59.0800000  0  4  3 13 11  9
  -9976601.055 7  76924432.013 7  22228617.752 0  22228618.439 0
  -1412805.699 8  54584429.510 7  21139820.289 0  21139820.319 0
   7557372.395 7   5984727.895 7  23830818.168 0  23830818.817 0
  -6327305.436 8  -3072008.155 7  22841968.097 0  22841967.262 0
 88  2 27  9 29 29.0800000  0  4  3 13 11  9
 -10018279.442 8  76891955.359 7  22220687.726 0  22220687.956 0
  -1383448.073 8  54607305.582 6  21145407.141 0  21145407.058 0
   7622193.098 7   6035237.509 7  23843152.832 0  23843153.558 0
  -6211505.908 8  -2981774.756 7  22864003.541 0  22864003.633 0
 88  2 27  9 29 59.0800000  0  4  3 13 11  9
 -10059786.928 7  76859611.863 7  22212788.180 0  22212788.895 0
  -1353961.520 8  54630282.116 7  21151017.504 0  21151017.777 0
   7686975.984 6   6085717.647 7  23855480.891 0  23855481.203 0
  -6095480.571 7  -2891365.424 7  22886082.817 0  22886082.394 0
 88  2 27  9 30 29.0800000  0  4  3 13 11  9
 -10101124.325 8  76827400.910 7  22204922.338 0  22204922.553 0
  -1324347.115 8  54653358.280 7  21156653.064 0  21156653.939 0
   7751720.861 7   6136168.194 7  23867801.256 0  23867802.863 0
  -5979233.331 8  -2800783.177 8  22908203.530 0  22908204.288 0
 88  2 27  9 30 59.0800000  0  4  3 13 11  9
 -10142292.356 8  76795321.934 7  22197087.712 0  22197088.227 0
  -1294606.545 8  54676532.744 7  21162312.021 0  21162312.738 0
   7816427.250 7   6186588.751 7  23880114.348 0  23880114.499 0
  -5862767.342 7  -2710030.468 8  22930366.087 0  22930366.787 0
 88  2 27  9 31 29.0800000  0  4  3 13 11  9
 -10183292.556 8  76763373.718 7  22189285.668 0  22189286.248 0
  -1264741.123 8  54699804.513 7  21167995.933 0  21167996.465 0
   7881094.251 7   6236978.617 7  23892420.264 0  23892421.069 0
  -5746086.878 8  -2619110.650 7  22952569.395 0  22952570.228 0
 88  2 27  9 31 59.0800000  0  4  3 13 11  9
 -10224124.864 8  76731556.334 7  22181515.985 0  22181515.591 0
  -1234751.615 7  54723172.947 6  21173703.097 0  21173702.655 0
   7945722.939 7   6287338.629 7  23904718.006 0  23904719.291 0
  -5629194.397 8  -2528025.609 7  22974813.765 0  22974814.840 0
 88  2 27  9 32 29.0800000  0  4  3 13 11  9
 -10264790.053 7  76699869.168 7  22173777.395 0  22173777.917 0
  -1204638.759 8  54746637.508 7  21179432.884 0  21179433.487 0
   8010313.034 7   6337668.548 7  23917009.981 0  23917012.010 0
  -5512093.016 7  -2436777.780 7  22997097.895 0  22997098.331 0
 88  2 27  9 32 59.0800000  0  4  3 13 11  9
 -10305289.040 8  76668311.520 7  22166071.108 0  22166070.786 0
  -1174405.215 8  54770196.118 7  21185186.195 0  21185187.127 0
   8074863.595 7   6387967.670 7  23929292.616 0  23929294.717 0
  -5394787.494 7  -2345370.899 7  23019419.842 0  23019419.755 0
 88  2 27  9 33 29.0800000  0  4  3 13 11  9
 -10345623.541 7  76636882.032 7  22158395.020 0  22158395.771 0
  -1144052.828 7  54793847.326 6  21190961.557 0  21190961.487 0
   8139373.383 7   6438235.021 7  23941569.513 0  23941570.469 0
  -5277282.216 6  -2253808.372 7  23041780.248 0  23041781.467 0
 88  2 27  9 33 59.0800000  0  4  3 13 11  9
 -10385792.847 8  76605581.277 7  22150750.764 0  22150752.102 0
  -1113580.620 8  54817591.889 6  21196760.858 0  21196761.661 0
   8203844.344 7   6488472.104 7  23953836.862 0  23953838.651 0
  -5159578.081 7  -2162090.888 7  23064178.802 0  23064180.075 0
 88  2 27  9 34 29.0800000  0  4  3 13 11  9
 -10425797.961 8  76574408.461 7  22143139.039 0  22143138.867 0
  -1082990.074 8  54841428.674 7  21202581.022 0  21202582.756 0
   8268276.027 7   6538678.595 6  23966097.808 0  23966099.536 0
  -5041679.128 7  -2070221.609 7  23086614.353 0  23086614.173 0
 88  2 27  9 34 59.0800000  0  4  3 13 11  9
 -10465641.024 8  76543361.933 7  22135556.828 0  22135557.972 0
  -1052284.351 7  54865355.227 7  21208424.681 0  21208425.628 0
   8332666.631 7   6588853.080 7  23978351.659 0  23978353.127 0
  -4923590.423 7  -1978204.450 7  23109085.537 0  23109085.705 0
 88  2 27  9 35 29.0800000  0  4  3 13 11  9
 -10505321.238 8  76512442.296 7  22128005.803 0  22128006.539 0
  -1021462.307 7  54889372.386 7  21214289.519 0  21214290.594 0
   8397017.721 7   6638996.773 7  23990597.237 0  23990598.884 0
  -4805313.402 7  -1886040.548 7  23131593.492 0  23131593.191 0
 88  2 27  9 35 59.0800000  0  4  3 13 11  9
 -10544838.731 8  76481649.459 6  22120485.993 0  22120485.993 0
   -990524.590 8  54913479.702 7  21220177.322 0  21220177.625 0
   8461329.668 7   6689109.966 6  24002834.773 0  24002836.348 0
  -4686851.379 7  -1793732.461 6  23154135.683 0  23154135.689 0
 88  2 27  9 36 29.0800000  0  4  3 13 11  9
 -10584196.121 7  76450981.356 7  22112997.005 0  22112997.034 0
   -959474.284 7  54937674.741 6  21226086.260 0  21226086.262 0
   8525600.647 7   6739191.230 7  24015066.088 0  24015066.046 0
  -4568209.322 7  -1701284.101 7  23176712.608 0  23176712.593 0
 88  2 27  9 36 59.0800000  0  4  3 13 11  9
 -10623393.571 7  76420437.903 7  22105537.566 0  22105537.774 0
   -928311.994 7  54961957.044 6  21232016.161 0  21232015.763 0
   8589831.305 7   6789241.087 7  24027287.780 0  24027290.132 0
  -4449390.374 7  -1608697.919 6  23199323.450 0  23199323.932 0
 88  2 27  9 37 29.0800000  0  4  3 13 11  9
 -10662431.201 8  76390018.984 7  22098108.849 0  22098110.380 0
   -897038.363 8  54986326.110 7  21237967.497 0  21237967.528 0
   8654021.801 7   6839259.640 7  24039502.164 0  24039504.737 0
  -4330397.141 8  -1515975.915 7  23221966.884 0  23221966.687 0
 88  2 27  9 37 59.0800000  0  4  3 13 11  9
 -10701310.859 8  76359723.154 8  22090710.274 0  22090711.448 0
   -865655.382 8  55010780.379 7  21243939.596 0  21243940.528 0
   8718171.180 7   6889246.156 7  24051710.491 0  24051711.680 0
  -4211234.039 8  -1423121.549 6  23244643.939 0  23244642.818 0
 88  2 27  9 38 29.0800000  0  4  3 13 11  9
 -10740032.279 7  76329550.652 7  22083342.421 0  22083342.192 0
   -834162.918 8  55035319.969 6  21249931.728 0  21249932.531 0
   8782280.076 7   6939201.129 7  24063909.693 0  24063911.908 0
  -4091903.526 8  -1330136.725 6  23267351.253 0  23267351.492 0
 88  2 27  9 38 59.0800000  0  4  3 13 11  9
 -10778596.212 8  76299500.838 7  22076003.788 0  22076003.823 0
   -802562.711 7  55059943.502 6  21255946.196 0  21255945.283 0
   8846348.458 6   6989124.507 7  24076100.012 0  24076102.389 0
  -3972409.138 8  -1237024.227 7  23290090.295 0  23290089.711 0
 88  2 27  9 39 29.0800000  0  4  3 13 11  9
 -10817004.170 7  76269572.567 6  22068695.196 0  22068694.445 0
   -770855.843 7  55084650.161 7  21261978.923 0  21261979.441 0
   8910375.578 7   7039015.758 7  24088285.463 0  24088286.909 0
  -3852755.282 7  -1143787.463 7  23312859.937 0  23312859.535 0
 88  2 27  9 39 59.0800000  0  4  3 13 11  9
 -10855257.249 8  76239764.996 7  22061415.745 0  22061414.529 0
   -739043.666 7  55109438.870 7  21268032.799 0  21268033.488 0
   8974361.482 7   7088874.883 6  24100462.427 0  24100463.416 0
  -3732945.269 7  -1050429.020 7  23335658.973 0  23335659.097 0
 88  2 27  9 40 29.0800000  0  4  3 13 12  9
 -10893354.312 7  76210078.971 7  22054165.572 0  22054166.059 0
   -707125.919 8  55134309.839 6  21274105.856 0  21274106.752 0
          .193 8         -.117 6  21049382.145 0          .000 0
  -3612981.033 7   -956950.416 7  23358485.036 0  23358487.655 0
 88  2 27  9 40 59.0800000  0  4  3 13 12  9
 -10931297.017 8  76180513.256 7  22046945.412 0  22046945.383 0
   -675104.577 8  55159261.528 7  21280199.315 0  21280200.050 0
     48678.300 8 120499559.744 7  21058670.429 0  21058671.367 0
  -3492866.337 6   -863354.566 7  23381343.331 0  23381344.776 0
 88  2 27  9 41 29.0800000  0  4  3 13 12  9
 -10969085.918 8  76151067.377 7  22039754.499 0  22039754.156 0
   -642980.514 8  55184293.246 7  21286312.477 0  21286313.863 0
     97938.650 8 120537944.419 7  21068043.952 0  21068044.818 0
  -3372604.982 7   -769644.445 7  23404228.544 0  23404229.703 0
 88  2 27  9 41 59.0800000  0  4  3 13 12  9
 -11006722.087 8  76121740.492 7  22032592.405 0  22032593.064 0
   -610754.790 8  55209404.218 7  21292444.886 0  21292445.052 0
    147779.305 8 120576781.276 7  21077527.799 0  21077528.787 0
  -3252200.681 7   -675822.942 7  23427140.799 0  23427140.874 0
 88  2 27  9 42 29.0800000  0  4  3 13 12  9
 -11044206.278 7  76092532.035 7  22025459.917 0  22025459.816 0
   -578428.066 8  55234593.863 7  21298597.660 0  21298597.111 0
    198198.294 8 120616068.787 7  21087122.893 0  21087124.281 0
  -3131656.273 7   -581892.255 7  23450079.815 0  23450080.187 0
 88  2 27  9 42 59.0800000  0  4  3 13 12  9
 -11081539.603 7  76063441.157 7  22018355.818 0  22018356.562 0
   -546001.839 8  55259861.044 7  21304767.168 0  21304768.082 0
    249193.039 8 120655804.942 7  21096825.978 0  21096828.024 0
  -3010975.687 7   -487855.440 7  23473044.806 0  23473045.152 0
 88  2 27  9 43 29.0800000  0  4  3 13 12  9
 -11118722.734 7  76034467.302 7  22011278.892 0  22011280.237 0
   -513477.362 8  55285204.796 7  21310956.899 0  21310956.568 0
    300761.419 8 120695988.074 7  21106640.081 0  21106640.940 0
  -2890162.572 7   -393715.338 7  23496034.970 0  23496034.748 0
 88  2 27  9 43 59.0800000  0  4  3 13 12  9
 -11155755.951 8  76005610.266 7  22004232.759 0  22004232.388 0
   -480855.253 8  55310624.618 7  21317164.219 0  21317164.067 0
    352902.127 7 120736617.193 7  21116561.067 0  21116562.511 0
  -2769219.747 7   -299474.176 7  23519049.159 0  23519049.241 0
 88  2 27  9 44 29.0800000  0  4  3 13 12  9
 -11192639.644 7  75976869.726 7  21997213.543 0  21997214.846 0
   -448136.153 8  55336120.019 7  21323390.389 0  21323391.693 0
    405613.024 8 120777690.597 7  21126591.890 0  21126593.557 0
  -2648150.522 7   -205134.535 7  23542088.322 0  23542088.600 0
 88  2 27  9 44 59.0800000  0  4  3 13 12  9
 -11229375.250 8  75948244.588 7  21990223.059 0  21990223.517 0
   -415321.635 8  55361689.778 7  21329634.154 0  21329635.913 0
    458891.515 8 120819206.302 7  21136730.732 0  21136731.770 0
  -2526958.457 8   -110699.147 7  23565150.504 0  23565150.579 0
 88  2 27  9 45 29.0800000  0  4  3 13 12  9
 -11265962.633 8  75919734.958 7  21983260.606 0  21983261.208 0
   -382411.549 7  55387333.996 7  21335896.605 0  21335898.159 0
    512736.284 8 120861163.247 7  21146977.295 0  21146978.941 0
  -2405646.355 7    -16170.243 7  23588235.198 0  23588235.431 0
 88  2 27  9 45 59.0800000  0  4  3 13 12  9
 -11302404.880 8  75891338.399 7  21976325.257 0  21976326.401 0
   -349409.303 8  55413050.030 7  21342177.646 0  21342178.238 0
    567143.486 8 120903558.448 7  21157331.069 0  21157332.035 0
  -2284219.721 8     78447.928 7  23611341.399 0  23611341.768 0
 88  2 27  9 46 29.0800000  0  4  3 13 12  9
 -11338701.743 7  75863055.142 7  21969418.853 0  21969418.868 0
   -316314.854 8  55438837.917 7  21348475.294 0  21348475.878 0
    622110.875 7 120946390.176 6  21167790.702 0  21167791.340 0
  -2162681.300 7    173153.192 7  23634469.594 0  23634469.708 0
 88  2 27  9 46 59.0800000  0  4  3 13 12  9
 -11374851.524 7  75834886.500 7  21962539.867 0  21962539.466 0
   -283126.700 8  55464698.807 7  21354791.274 0  21354790.464 0
    677639.027 8 120989658.840 7  21178357.920 0  21178358.456 0
  -2041031.515 7    267945.198 7  23657618.389 0  23657619.763 0
 88  2 27  9 47 29.0800000  0  4  3 13 12  9
 -11410855.382 7  75806831.550 7  21955687.796 0  21955688.511 0
   -249846.638 7  55490631.338 6  21361124.154 0  21361123.584 0
    733725.409 8 121033362.503 7  21189030.216 0  21189031.154 0
  -1919274.833 7    362820.532 7  23680788.127 0  23680788.892 0
 88  2 27  9 47 59.0800000  0  4  3 13 12  9
 -11446717.069 8  75778887.389 7  21948863.999 0  21948864.458 0
   -216477.675 8  55516633.108 6  21367473.075 0  21367473.599 0
    790364.713 7 121077497.007 7  21199808.544 0  21199808.738 0
  -1797417.079 7    457774.604 7  23703976.917 0  23703977.790 0
 88  2 27  9 48 29.0800000  0  4  3 13 12  9
 -11482436.284 7  75751054.247 7  21942066.317 0  21942066.876 0
   -183020.126 8  55542703.931 7  21373841.728 0  21373841.219 0
    847555.816 7 121122061.481 7  21210690.743 0  21210691.973 0
  -1675460.709 8    552805.510 7  23727183.976 0  23727185.332 0
 88  2 27  9 48 59.0800000  0  4  3 13 12  9
 -11518012.948 8  75723332.179 7  21935297.240 0  21935297.512 0
   -149474.348 7  55568843.508 8  21380224.086 0  21380223.794 0
    905296.885 8 121167054.511 7  21221679.251 0  21221680.074 0
  -1553408.601 7    647911.038 7  23750410.514 0  23750410.106 0
 88  2 27  9 49 29.0800000  0  4  3 13 12  9
 -11553447.190 8  75695721.089 7  21928553.503 0  21928554.678 0
   -115839.910 8  55595052.157 7  21386625.697 0  21386625.319 0
    963586.287 8 121212474.807 7  21232771.229 0  21232771.824 0
  -1431263.231 7    743089.241 7  23773653.275 0  23773654.609 0
 88  2 27  9 49 59.0800000  0  4  3 13 12  9
 -11588739.502 8  75668220.590 7  21921838.457 0  21921838.458 0
    -82117.956 7  55621329.007 7  21393041.062 0  21393042.549 0
   1022421.623 8 121258320.499 6  21243967.171 0  21243968.022 0
  -1309027.839 7    838337.566 7  23796914.849 0  23796915.281 0
 88  2 27  9 50 29.0800000  0  4  3 13 12  9
 -11623891.762 7  75640829.235 7  21915148.595 0  21915149.311 0
    -48310.923 8  55647672.152 7  21399475.008 0  21399475.407 0
   1081800.010 7 121304589.371 7  21255266.232 0  21255267.634 0
  -1186706.801 7    933652.668 7  23820191.615 0  23820192.026 0
 88  2 27  9 50 59.0800000  0  4  3 13 12  9
 -11658905.111 7  75613546.110 6  21908485.792 0  21908487.009 0
    -14419.561 8  55674081.011 7  21405924.647 0  21405924.245 0
   1141718.358 8 121351278.967 7  21266669.099 0  21266670.272 0
  -1064304.011 7   1029031.452 7  23843484.090 0  23843484.773 0
 88  2 27  9 51 29.0800000  0  4  3 13 12  9
 -11693778.995 8  75586371.665 7  21901849.361 0  21901850.462 0
     19556.669 8  55700555.988 7  21412389.444 0  21412390.268 0
   1202175.306 8 121398388.255 7  21278174.398 0  21278174.234 0
   -941822.071 8   1124471.935 7  23866791.854 0  23866791.059 0
 88  2 27  9 51 59.0800000  0  4  3 13 12  9
 -11728514.143 7  75559305.322 7  21895240.145 0  21895241.018 0
     53616.703 7  55727096.276 7  21418870.750 0  21418870.680 0
   1263168.586 8 121445915.476 7  21289780.449 0  21289780.298 0
   -819263.556 8   1219972.064 7  23890113.583 0  23890113.930 0
 88  2 27  9 52 29.0800000  0  4  3 13 12  9
 -11763111.769 8  75532346.143 8  21888656.114 0  21888656.701 0
     87758.820 8  55753700.521 7  21425366.894 0  21425367.672 0
   1324695.248 8 121493858.308 7  21301487.514 0  21301488.931 0
   -696632.650 7   1315528.621 7  23913448.907 0  23913450.824 0
 88  2 27  9 52 59.0800000  0  4  3 13 12  9
 -11797572.199 7  75505493.867 7  21882098.039 0  21882099.428 0
    121982.654 8  55780368.449 7  21431881.050 0  21431881.288 0
   1386752.749 8 121542214.780 8  21313297.478 0  21313298.615 0
   -573932.327 7   1411139.261 6  23936799.269 0  23936799.376 0
 88  2 27  9 53 29.0800000  0  4  3 13 12  9
 -11831897.595 7  75478746.825 6  21875566.881 0  21875567.797 0
    156286.670 7  55807098.844 7  21438407.995 0  21438409.371 0
   1449337.188 8 121590981.865 7  21325206.532 0  21325208.729 0
   -451167.272 7   1506800.363 7  23960159.945 0  23960160.474 0
 88  2 27  9 53 59.0800000  0  4  3 13 12  9
 -11866088.048 8  75452104.918 7  21869060.563 0  21869060.721 0
    190670.095 8  55833891.119 7  21444950.741 0  21444951.676 0
   1512447.158 8 121640158.441 7  21337215.508 0  21337217.468 0
   -328340.000 7   1602509.911 6  23983532.776 0  23983533.241 0
 88  2 27  9 54 29.0800000  0  4  3 13 12  9
 -11900142.814 8  75425568.754 7  21862579.629 0  21862579.257 0
    225133.945 8  55860746.069 7  21451509.524 0  21451510.084 0
   1576081.515 7 121689743.644 7  21349325.836 0  21349327.002 0
   -205452.406 7   1698266.467 7  24006917.928 0  24006917.058 0
 88  2 27  9 54 59.0800000  0  4  3 13 12  9
 -11934062.653 7  75399137.718 7  21856125.167 0  21856126.070 0
    259677.167 8  55887662.870 7  21458083.342 0  21458083.651 0
   1640237.344 7 121739735.187 7  21361534.031 0  21361535.204 0
    -82508.404 8   1794066.989 7  24030314.233 0  24030313.321 0
 88  2 27  9 55 29.0800000  0  4  3 13 12  9
 -11967849.520 7  75372810.312 7  21849695.904 0  21849696.491 0
    294298.084 8  55914640.200 6  21464670.929 0  21464671.038 0
   1704911.122 7 121790130.319 8  21373840.953 0  21373841.325 0
     40488.118 7   1889908.424 7  24053720.409 0  24053718.877 0
 88  2 27  9 55 59.0800000  0  4  3 13 12  9
 -12001503.938 7  75346586.097 7  21843291.740 0  21843291.325 0
    328995.826 8  55941677.404 7  21471274.449 0  21471274.824 0
   1770100.135 8 121840926.934 7  21386245.727 0  21386247.252 0
    163533.676 7   1985788.071 7  24077133.939 0  24077133.073 0
 88  2 27  9 56 29.0800000  0  4  3 13 12  9
 -12035026.318 7  75320464.786 7  21836912.487 0  21836913.203 0
    363769.999 7  55968774.162 7  21477891.532 0  21477890.721 0
   1835802.023 8 121892123.201 7  21398748.671 0  21398751.110 0
    286625.170 7   2081703.526 7  24100557.654 0  24100558.172 0
 88  2 27  9 56 59.0800000  0  4  3 13 12  9
 -12068418.246 7  75294445.115 7  21830558.991 0  21830558.462 0
    398618.890 7  55995929.149 7  21484522.033 0  21484523.168 0
   1902013.323 8 121943716.405 7  21411348.129 0  21411349.081 0
    409758.918 7   2177651.897 7  24123987.614 0  24123988.590 0
 88  2 27  9 57 29.0800000  0  4  3 13 12  9
 -12101678.927 8  75268527.719 7  21824229.020 0  21824229.793 0
    433543.486 8  56023143.111 7  21491168.133 0  21491170.128 0
   1968732.425 8 121995705.303 7  21424044.934 0  21424044.876 0
    532932.368 7   2273631.183 7  24147427.992 0  24147428.285 0
 88  2 27  9 57 59.0800000  0  4  3 13 12  9
 -12134808.362 8  75242712.595 7  21817925.578 0  21817925.249 0
    468543.129 8  56050415.561 7  21497828.805 0  21497829.608 0
   2035957.815 8 122048088.710 7  21436837.359 0  21436837.438 0
    656143.294 7   2369639.724 7  24170874.230 0  24170874.744 0
 88  2 27  9 58 29.0800000  0  4  3 13 12  9
 -12167808.173 7  75216998.468 6  21811644.658 0  21811645.459 0
    503616.477 7  56077745.436 7  21504502.684 0  21504503.569 0
   2103685.544 7 122100863.547 7  21449725.555 0  21449725.427 0
    779387.210 7   2465673.927 7  24194325.654 0  24194326.673 0
 88  2 27  9 58 59.0800000  0  4  3 13 12  9
 -12200679.812 8  75191384.212 7  21805389.624 0  21805390.168 0
    538762.778 8  56105132.175 7  21511190.378 0  21511192.315 0
   2171912.706 7 122154027.559 7  21462709.281 0  21462710.125 0
    902660.991 8   2561731.423 7  24217785.002 0  24217785.810 0
 88  2 27  9 59 29.0800000  0  4  3 13 12  9
 -12233423.901 8  75165869.343 7  21799158.113 0  21799159.488 0
    573980.423 7  56132574.491 7  21517892.507 0  21517893.124 0
   2240636.718 8 122207578.723 7  21475785.515 0  21475787.110 0
   1025960.645 7   2657809.083 7  24241247.989 0  24241248.350 0
 88  2 27  9 59 59.0800000  0  4  3 13 12  9
 -12266040.651 8  75140453.710 7  21792951.101 0  21792952.503 0
    609269.609 8  56160072.557 7  21524608.330 0  21524608.196 0
   2309854.650 7 122261514.747 7  21488958.071 0  21488958.886 0
   1149283.153 7   2753904.547 7  24264715.679 0  24264715.514 0
 88  2 27 10  0 29.0800000  0  4  3 13 12  9
 -12298529.940 8  75115137.387 7  21786769.602 0  21786769.588 0
    644630.625 7  56187626.585 7  21531337.549 0  21531338.291 0
   2379564.066 7 122315833.757 7  21502223.651 0  21502224.238 0
   1272626.728 7   2850016.421 7  24288187.970 0  24288186.728 0
 88  2 27 10  0 59.0800000  0  4  3 13 12  9
 -12330892.236 7  75089920.025 7  21780610.582 0  21780610.110 0
    680062.879 7  56215236.131 6  21538079.085 0  21538079.384 0
   2449762.804 7 122370534.058 7  21515581.533 0  21515582.871 0
   1395987.808 7   2946141.953 7  24311662.432 0  24311662.743 0
 88  2 27 10  1 29.0800000  0  4  3 13 12  9
 -12363129.399 7  75064800.167 7  21774476.847 0  21774476.761 0
    715564.151 7  56242899.452 7  21544834.677 0  21544836.417 0
   2520446.848 8 122425612.523 7  21529032.346 0  21529033.254 0
   1519362.212 7   3042277.861 7  24335139.145 0  24335140.006 0
 88  2 27 10  1 59.0800000  0  4  3 13 12  9
 -12395242.636 7  75039776.872 7  21768365.877 0  21768365.420 0
    751133.543 8  56270615.862 7  21551603.157 0  21551604.827 0
   2591613.197 8 122481066.815 8  21542574.608 0  21542576.096 0
   1642745.747 7   3138420.852 7  24358617.564 0  24358619.566 0
 88  2 27 10  2 29.0800000  0  4  3 13 12  9
 -12427230.943 7  75014850.930 7  21762278.961 0  21762278.633 0
    786772.212 7  56298386.260 7  21558386.097 0  21558387.026 0
   2663260.095 7 122536895.532 7  21556208.407 0  21556209.766 0
   1766137.305 7   3234570.109 7  24382099.206 0  24382099.692 0
 88  2 27 10  2 59.0800000  0  4  3 13 12  9
 -12459094.758 8  74990022.000 7  21756215.069 0  21756213.996 0
    822479.286 7  56326209.971 6  21565180.857 0  21565180.440 0
   2735384.969 7 122593096.733 7  21569934.006 0  21569934.886 0
   1889533.675 7   3330723.138 7  24405581.939 0  24405580.915 0
 88  2 27 10  3 29.0800000  0  4  3 13 12  9
 -12490835.095 8  74965289.279 6  21750175.403 0  21750174.459 0
    858254.202 8  56354086.516 7  21571987.793 0  21571988.661 0
   2807984.555 8 122649667.820 7  21583748.816 0  21583750.469 0
   2012931.428 7   3426877.227 7  24429061.652 0  24429062.908 0
 88  2 27 10  3 59.0800000  0  4  3 13 12  9
 -12522453.945 7  74940651.221 6  21744158.387 0  21744158.331 0
    894094.937 7  56382014.366 6  21578808.030 0  21578808.164 0
   2881054.881 7 122706605.706 7  21597654.568 0  21597654.697 0
   2136325.686 6   3523028.595 7  24452543.731 0  24452544.035 0
 88  2 27 10  4 29.0800000  0  4  3 13 12  9
 -12553951.033 8  74916108.040 7  21738164.854 0  21738164.725 0
    930001.749 8  56409993.700 7  21585641.034 0  21585641.189 0
   2954593.557 8 122763908.565 7  21611648.486 0  21611649.216 0
   2259714.397 6   3619175.631 6  24476022.940 0  24476024.439 0
 88  2 27 10  4 59.0800000  0  4  3 13 12  9
 -12585326.984 8  74891659.260 7  21732193.671 0  21732193.814 0
    965974.464 7  56438024.392 7  21592486.831 0  21592487.870 0
   3028597.970 8 122821574.311 7  21625730.399 0  21625732.474 0
   2383093.873 7   3715315.513 7  24499502.082 0  24499503.366 0
 88  2 27 10  5 29.0800000  0  4  3 13 12  9
 -12616581.557 7  74867305.056 7  21726246.871 0  21726246.341 0
   1002012.838 8  56466106.242 7  21599344.468 0  21599344.867 0
   3103066.319 8 122879601.587 7  21639901.286 0  21639903.246 0
   2506462.764 7   3811447.101 7  24522977.885 0  24522978.117 0
 88  2 27 10  5 59.0800000  0  4  3 13 12  9
 -12647715.638 8  74843044.751 7  21720321.263 0  21720321.650 0
   1038116.125 8  56494238.667 6  21606214.633 0  21606216.395 0
   3177994.652 8 122937987.276 7  21654159.072 0  21654161.548 0
   2629816.673 7   3907567.038 6  24546451.779 0  24546452.512 0
 88  2 27 10  6 29.0800000  0  4  3 13 12  9
 -12678731.818 7  74818876.307 6  21714419.236 0  21714420.024 0
   1074282.022 7  56522419.882 6  21613096.697 0  21613097.457 0
   3253378.421 7 122996727.855 7  21668504.875 0  21668505.962 0
   2753151.070 7   4003671.780 7  24569921.687 0  24569921.175 0
 88  2 27 10  6 59.0800000  0  4  3 13 12  9
 -12709629.072 8  74794800.517 7  21708539.460 0  21708540.463 0
   1110511.242 7  56550650.451 7  21619991.610 0  21619991.640 0
   3329215.313 7 123055821.515 7  21682935.724 0  21682937.713 0
   2876463.412 8   4099759.324 7  24593387.528 0  24593387.106 0
 88  2 27 10  7 29.0800000  0  4  3 13 12  9
 -12740406.372 8  74770818.226 7  21702683.080 0  21702683.682 0
   1146805.151 8  56578931.410 7  21626898.667 0  21626897.832 0
   3405504.742 7 123115267.814 7  21697453.602 0  21697455.255 0
   2999752.741 8   4195828.925 7  24616848.680 0  24616849.652 0
 88  2 27 10  7 59.0800000  0  4  3 13 12  9
 -12771065.614 7  74746927.907 7  21696848.364 0  21696849.252 0
   1183162.212 8  56607261.578 7  21633816.772 0  21633816.488 0
   3482242.437 8 123175063.404 7  21712056.562 0  21712057.729 0
   3123015.215 7   4291877.614 6  24640304.429 0  24640304.264 0
 88  2 27 10  8 29.0800000  0  4  3 13 12  9
 -12801607.604 7  74723128.961 7  21691036.442 0  21691036.944 0
   1219581.581 7  56635640.316 6  21640746.718 0  21640747.002 0
   3559425.406 7 123235205.976 7  21726743.181 0  21726745.242 0
   3246247.051 7   4387902.435 6  24663754.537 0  24663755.706 0
 88  2 27 10  8 59.0800000  0  4  3 13 12  9
 -12832034.598 8  74699419.628 7  21685246.185 0  21685246.128 0
   1256061.057 8  56664065.876 7  21647688.525 0  21647689.053 0
   3637048.924 8 123295691.823 7  21741514.611 0  21741516.264 0
   3369443.536 8   4483899.734 7  24687198.113 0  24687199.683 0
 88  2 27 10  9 29.0800000  0  4  3 13 12  9
 -12862345.625 8  74675800.649 7  21679478.393 0  21679478.808 0
   1292601.485 7  56692538.947 6  21654642.724 0  21654642.143 0
   3715110.958 8 123356519.362 7  21756369.642 0  21756371.016 0
   3492602.615 8   4579867.841 7  24710634.470 0  24710635.915 0
 88  2 27 10  9 59.0800000  0  4  3 13 12  9
 -12892539.800 7  74652272.733 6  21673733.424 0  21673733.582 0
   1329203.987 7  56721060.380 7  21661607.059 0  21661606.803 0
   3793610.028 7 123417687.447 7  21771307.437 0  21771309.133 0
   3615722.933 7   4675805.768 7  24734064.173 0  24734064.509 0
 88  2 27 10 10 29.0800000  0  4  3 13 12  9
 -12922619.136 7  74628834.301 7  21668009.533 0  21668009.647 0
   1365866.445 7  56749628.519 7  21668583.470 0  21668583.951 0
   3872541.567 8 123479192.522 7  21786327.996 0  21786328.527 0
   3738799.916 7   4771709.925 7  24757484.425 0  24757484.296 0
 88  2 27 10 10 59.0800000  0  4  3 13 12  9
 -12952585.328 7  74605484.015 7  21662306.862 0  21662306.576 0
   1402587.875 8  56778242.624 6  21675571.371 0  21675570.721 0
   3951901.592 8 123541031.485 7  21801429.318 0  21801430.813 0
   3861829.696 7   4867577.269 7  24780895.283 0  24780897.597 0
 88  2 27 10 11 29.0800000  0  4  3 13 12  9
 -12982435.930 8  74582223.825 7  21656626.570 0  21656626.285 0
   1439370.611 8  56806904.495 7  21682570.122 0  21682571.369 0
   4031689.413 8 123603203.801 7  21816611.865 0  21816614.705 0
   3984811.315 7   4963407.095 7  24804299.233 0  24804299.912 0
 88  2 27 10 11 59.0800000  0  4  3 13 12  9
 -13012172.431 7  74559052.537 7  21650967.299 0  21650967.715 0
   1476213.117 8  56835612.946 7  21689581.941 0  21689582.157 0
   4111901.169 8 123665706.448 7  21831876.775 0  21831878.156 0
   4107741.370 7   5059196.762 7  24827691.668 0  24827691.127 0
 88  2 27 10 12 29.0800000  0  4  3 13 12  9
 -13041796.892 7  74535968.540 7  21645329.692 0  21645330.294 0
   1513113.228 7  56864366.275 6  21696603.222 0  21696604.723 0
   4192532.453 8 123728536.018 7  21847220.615 0  21847221.059 0
   4230615.371 7   5154942.732 7  24851073.153 0  24851074.697 0
 88  2 27 10 12 59.0800000  0  4  3 13 12  9
 -13071310.133 7  74512971.229 6  21639714.193 0  21639714.537 0
   1550070.373 8  56893164.062 7  21703636.072 0  21703636.947 0
   4273579.922 8 123791689.854 7  21862643.199 0  21862643.928 0
   4353429.463 7   5250642.003 7  24874444.965 0  24874444.431 0
 88  2 27 10 13 29.0800000  0  4  3 13 12  9
 -13100709.921 8  74490062.309 7  21634118.312 0  21634119.614 0
   1587086.751 8  56922007.994 7  21710680.791 0  21710680.174 0
   4355042.585 7 123855167.246 7  21878144.576 0  21878145.749 0
   4476183.296 6   5346294.338 7  24897804.277 0  24897803.457 0
 88  2 27 10 13 59.0800000  0  4  3 13 12  9
 -13129997.844 7  74467240.550 6  21628546.212 0  21628545.784 0
   1624161.105 8  56950897.113 7  21717736.110 0  21717735.712 0
   4436916.674 8 123918965.215 7  21893724.611 0  21893726.235 0
   4598873.181 6   5441896.804 6  24921149.456 0  24921150.811 0
 88  2 27 10 14 29.0800000  0  3  3 13 12
 -13159175.265 7  74444504.913 7  21622994.489 0  21622994.246 0
   1661292.141 8  56979830.395 7  21724801.811 0  21724802.206 0
   4519198.137 8 123983080.624 8  21909382.001 0  21909383.689 0
 88  2 27 10 14 59.0800000  0  3  3 13 12
 -13188242.531 7  74421855.109 7  21617462.569 0  21617463.199 0
   1698479.516 8  57008807.571 7  21731879.001 0  21731878.541 0
   4601883.488 8 124047510.750 7  21925116.868 0  21925118.092 0
 88  2 27 10 15 29.0800000  0  3  3 13 12
 -13217199.704 7  74399291.082 7  21611950.669 0  21611952.615 0
   1735723.994 7  57037829.232 7  21738965.686 0  21738965.777 0
   4684970.472 7 124112253.830 8  21940927.188 0  21940929.885 0
 88  2 27 10 15 59.0800000  0  3  3 13 12
 -13246047.139 8  74376812.571 7  21606462.535 0  21606463.037 0
   1773025.167 8  57066895.087 7  21746062.619 0  21746064.077 0
   4768455.578 7 124177307.134 8  21956813.182 0  21956816.545 0
 88  2 27 10 16 29.0800000  0  3  3 13 12
 -13274785.817 7  74354418.808 7  21600993.719 0  21600993.033 0
   1810382.077 8  57096004.362 7  21753172.285 0  21753172.558 0
   4852335.482 7 124242668.076 8  21972775.115 0  21972778.148 0
 88  2 27 10 16 59.0800000  0  3  3 13 12
 -13303416.390 7  74332109.272 6  21595544.965 0  21595545.381 0
   1847794.205 8  57125156.666 7  21760291.451 0  21760292.247 0
   4936606.522 7 124308333.785 8  21988812.035 0  21988814.310 0
 88  2 27 10 17 29.0800000  0  3  3 13 12
 -13331938.366 7  74309884.368 6  21590118.491 0  21590118.849 0
   1885261.512 7  57154351.979 7  21767420.771 0  21767421.992 0
   5021266.008 7 124374302.184 7  22004923.256 0  22004924.672 0
 88  2 27 10 17 59.0800000  0  3  3 13 12
 -13360353.303 7  74287742.862 7  21584711.118 0  21584710.833 0
   1922783.846 7  57183590.139 7  21774561.476 0  21774562.082 0
   5106310.137 7 124440570.312 7  22021105.407 0  22021107.718 0
 88  2 27 10 18 29.0800000  0  3  3 13 12
 -13388660.477 7  74265685.338 7  21579324.709 0  21579323.680 0
   1960361.425 7  57212871.376 7  21781712.083 0  21781713.301 0
   5191736.756 7 124507136.475 8  22037361.472 0  22037363.332 0
 88  2 27 10 18 59.0800000  0  3  3 13 12
 -13416860.212 7  74243711.529 6  21573958.119 0  21573957.876 0
   1997994.102 7  57242195.534 7  21788873.008 0  21788874.720 0
   5277542.553 7 124573998.112 7  22053689.692 0  22053691.781 0
 88  2 27 10 19 29.0800000  0  3  3 13 12
 -13444954.433 7  74221819.944 7  21568611.818 0  21568611.876 0
   2035679.960 7  57271561.124 7  21796044.292 0  21796045.070 0
   5363723.188 8 124641151.831 7  22070090.473 0  22070090.874 0
 88  2 27 10 19 59.0800000  0  3  3 13 12
 -13472942.691 7  74200010.933 7  21563285.794 0  21563286.052 0
   2073420.617 8  57300969.426 7  21803226.519 0  21803227.383 0
   5450275.784 7 124708595.387 8  22086560.625 0  22086561.699 0
 88  2 27 10 20 29.0800000  0  3  3 13 12
 -13500825.525 7  74178284.051 6  21557978.872 0  21557978.944 0
   2111214.615 7  57330419.289 7  21810417.986 0  21810419.634 0
   5537196.741 8 124776325.990 7  22103101.515 0  22103102.531 0
 88  2 27 10 20 59.0800000  0  3  3 13 12
 -13528603.071 7  74156639.232 7  21552694.702 0  21552693.558 0
   2149062.042 8  57359910.771 8  21817621.069 0  21817621.872 0
   5624483.081 7 124844341.308 7  22119711.647 0  22119712.914 0
 88  2 27 10 21 29.0800000  0  3  3 13 12
 -13556275.306 8  74135076.458 7  21547427.445 0  21547428.920 0
   2186963.212 7  57389444.154 7  21824832.752 0  21824833.727 0
   5712131.867 7 124912639.047 7  22136391.257 0  22136391.537 0
 88  2 27 10 21 59.0800000  0  3  3 13 12
 -13583842.641 7  74113595.421 7  21542181.853 0  21542182.398 0
   2224918.654 7  57419019.817 7  21832056.923 0  21832057.050 0
   5800140.023 8 124981216.814 7  22153137.828 0  22153139.295 0
 88  2 27 10 22 29.0800000  0  3  3 13 12
 -13611306.559 7  74092194.971 7  21536954.920 0  21536956.423 0
   2262926.786 8  57448636.523 7  21839288.950 0  21839288.687 0
   5888503.211 8 125050071.230 7  22169953.104 0  22169954.356 0
 88  2 27 10 22 59.0800000  0  3  3 13 12
 -13638667.826 7  74070874.498 7  21531748.649 0  21531749.193 0
   2300986.674 8  57478293.571 7  21846531.440 0  21846532.157 0
   5977217.598 7 125119199.312 7  22186834.724 0  22186835.396 0
 88  2 27 10 23 29.0800000  0  3  3 13 12
 -13665924.917 8  74049635.230 6  21526562.097 0  21526563.228 0
   2339100.226 7  57507992.434 7  21853783.389 0  21853784.964 0
   6066281.781 8 125188599.949 7  22203782.767 0  22203784.413 0
 88  2 27 10 23 59.0800000  0  3  3 13 12
 -13693079.449 7  74028475.844 7  21521394.589 0  21521395.921 0
   2377266.179 8  57537732.152 8  21861045.697 0  21861047.359 0
   6155691.260 7 125258269.672 7  22220796.941 0  22220798.479 0
 88  2 27 10 24 29.0800000  0  3  3 13 12
 -13720132.477 7  74007395.579 7  21516247.673 0  21516247.359 0
   2415483.432 7  57567511.841 7  21868318.877 0  21868319.294 0
   6245442.024 8 125328205.314 7  22237875.857 0  22237877.273 0
 88  2 27 10 24 59.0800000  0  3  3 13 12
 -13747082.466 6  73986395.590 7  21511118.815 0  21511118.286 0
   2453753.505 7  57597332.660 7  21875601.909 0  21875602.090 0
   6335531.844 7 125398405.158 7  22255020.029 0  22255021.138 0
 88  2 27 10 25 29.0800000  0  3  3 13 12
 -13773931.277 7  73965474.435 7  21506010.248 0  21506009.332 0
   2492074.720 8  57627193.350 7  21882893.756 0  21882894.992 0
   6425956.304 7 125468865.756 7  22272226.447 0  22272228.028 0
 88  2 27 10 25 59.0800000  0  3  3 13 12
 -13800679.672 8  73944631.538 7  21500919.137 0  21500919.839 0
   2530446.895 8  57657093.757 7  21890196.624 0  21890196.146 0
   6516711.730 7 125539584.254 7  22289495.932 0  22289498.393 0
 88  2 27 10 26 29.0800000  0  3  3 13 12
 -13827326.111 7  73923868.097 7  21495847.902 0  21495848.719 0
   2568871.939 8  57687035.342 7  21897507.812 0  21897507.996 0
   6607796.210 8 125610559.147 8  22306829.057 0  22306831.669 0
 88  2 27 10 26 59.0800000  0  3  3 13 12
 -13853870.812 7  73903183.915 7  21490797.288 0  21490797.173 0
   2607350.332 8  57717018.505 7  21904830.405 0  21904830.389 0
   6699207.073 8 125681788.368 7  22324224.542 0  22324226.374 0
 88  2 27 10 27 29.0800000  0  3  3 13 12
 -13880315.460 7  73882577.698 7  21485765.202 0  21485765.232 0
   2645879.342 8  57747041.120 7  21912161.365 0  21912161.897 0
   6790938.807 8 125753267.630 7  22341679.997 0  22341682.702 0
 88  2 27 10 27 59.0800000  0  3  3 13 12
 -13906660.263 8  73862049.295 7  21480752.335 0  21480752.149 0
   2684459.476 8  57777103.556 6  21919503.169 0  21919503.861 0
   6882988.438 8 125824994.605 7  22359196.652 0  22359198.677 0
 88  2 27 10 28 29.0800000  0  3  3 13 12
 -13932905.054 7  73841598.811 7  21475756.667 0  21475757.468 0
   2723091.420 8  57807206.373 7  21926856.355 0  21926854.833 0
   6975352.982 7 125896966.947 7  22376772.883 0  22376775.287 0
 88  2 27 10 28 59.0800000  0  3  3 13 12
 -13959049.884 8  73821226.220 7  21470782.877 0  21470783.879 0
   2761775.165 8  57837349.548 7  21934216.310 0  21934217.273 0
   7068029.440 7 125969182.362 7  22394409.206 0  22394410.830 0
 88  2 27 10 29 29.0800000  0  3  3 13 12
 -13985096.045 8  73800930.517 7  21465825.787 0  21465825.974 0
   2800509.501 8  57867532.149 7  21941587.569 0  21941587.721 0
   7161012.806 8 126041636.920 7  22412102.945 0  22412105.628 0
 88  2 27 10 29 59.0800000  0  3  3 13 12
 -14011044.374 7  73780711.052 7  21460888.887 0  21460889.302 0
   2839293.583 8  57897753.525 7  21948967.781 0  21948968.141 0
   7254299.415 8 126114327.756 7  22429855.086 0  22429857.161 0
 88  2 27 10 30 29.0800000  0  3  3 13 12
 -14036893.669 7  73760568.748 8  21455968.914 0  21455970.861 0
   2878129.723 8  57928015.442 7  21956358.301 0  21956357.293 0
   7347887.324 8 126187253.403 7  22447664.643 0  22447666.539 0
 88  2 27 10 30 59.0800000  0  3  3 13 12
 -14062642.117 7  73740505.027 7  21451069.290 0  21451070.163 0
   2917018.892 8  57958318.688 7  21963758.306 0  21963758.787 0
   7441775.247 7 126260412.816 7  22465530.350 0  22465532.431 0
 88  2 27 10 31 29.0800000  0  3  3 13 12
 -14088292.930 8  73720517.391 7  21446188.682 0  21446189.355 0
   2955958.847 7  57988661.514 7  21971168.164 0  21971168.964 0
   7535956.787 8 126333801.017 7  22483453.300 0  22483455.152 0
 88  2 27 10 31 59.0800000  0  3  3 13 12
 -14113847.327 7  73700604.886 7  21441325.502 0  21441325.632 0
   2994948.737 8  58019043.250 7  21978587.706 0  21978588.623 0
   7630427.669 7 126407414.684 7  22501430.411 0  22501431.927 0
 88  2 27 10 32 29.0800000  0  3  3 13 12
 -14139303.724 7  73680768.737 7  21436481.097 0  21436481.197 0
   3033990.025 8  58049465.032 7  21986017.657 0  21986016.880 0
   7725185.911 8 126481252.260 7  22519462.482 0  22519463.706 0
 88  2 27 10 32 59.0800000  0  3  3 13 12
 -14164661.382 7  73661009.530 7  21431655.851 0  21431656.138 0
   3073083.345 8  58079927.353 7  21993456.523 0  21993456.965 0
   7820229.436 7 126555312.152 7  22537548.543 0  22537548.365 0
 88  2 27 10 33 29.0800000  0  3  3 13 12
 -14189921.455 7  73641326.365 7  21426849.151 0  21426850.425 0
   3112227.861 7  58110429.569 7  22000905.316 0  22000905.637 0
   7915553.384 7 126629590.543 6  22555688.185 0  22555689.294 0
 88  2 27 10 33 59.0800000  0  3  3 13 12
 -14215085.520 7  73621718.013 7  21422060.823 0  21422060.508 0
   3151423.206 7  58140971.401 6  22008364.019 0  22008365.015 0
   8011153.194 7 126704083.874 6  22573879.962 0  22573881.614 0
 88  2 27 10 34 29.0800000  0  3  3 13 12
 -14240152.565 7  73602185.255 7  21417290.095 0  21417290.539 0
   3190670.279 8  58171553.529 7  22015832.591 0  22015833.183 0
   8107026.423 7 126778790.277 7  22592124.061 0  22592125.413 0
 88  2 27 10 34 59.0800000  0  3  3 13 12
 -14265122.357 7  73582728.278 7  21412538.571 0  21412539.000 0
   3229968.921 8  58202175.835 7  22023310.946 0  22023311.153 0
   8203169.833 8 126853707.201 7  22610418.685 0  22610420.838 0
 88  2 27 10 35 29.0800000  0  3  3 13 12
 -14289995.806 8  73563346.383 7  21407804.861 0  21407806.178 0
   3269318.391 8  58232837.745 7  22030798.528 0  22030798.835 0
   8299578.959 8 126928831.191 7  22628766.225 0  22628766.797 0
 88  2 27 10 35 59.0800000  0  3  3 13 12
 -14314773.392 7  73544039.172 6  21403089.939 0  21403090.441 0
   3308718.744 7  58263539.329 7  22038296.463 0  22038296.808 0
   8396250.519 8 127004159.672 7  22647161.672 0  22647163.475 0
 88  2 27 10 36 29.0800000  0  3  3 13 12
 -14339454.501 8  73524807.148 7  21398393.648 0  21398393.505 0
   3348170.659 7  58294281.061 7  22045803.101 0  22045804.412 0
   8493181.166 8 127079690.027 7  22665606.721 0  22665608.253 0
 88  2 27 10 36 59.0800000  0  3  3 13 12
 -14364038.404 7  73505650.862 7  21393715.458 0  21393715.545 0
   3387675.649 7  58325064.185 7  22053321.118 0  22053321.839 0
   8590369.000 8 127155420.803 7  22684101.617 0  22684102.927 0
 88  2 27 10 37 29.0800000  0  3  3 13 12
 -14388526.642 7  73486569.119 7  21389055.470 0  21389055.413 0
   3427231.979 8  58355887.307 7  22060848.404 0  22060850.091 0
   8687809.164 8 127231348.203 7  22702644.370 0  22702644.857 0
 88  2 27 10 37 59.0800000  0  3  3 13 12
 -14412919.476 7  73467561.728 7  21384414.283 0  21384413.368 0
   3466839.876 7  58386750.569 7  22068384.025 0  22068386.364 0
   8785498.040 8 127307469.391 7  22721232.898 0  22721234.665 0
 88  2 27 10 38 29.0800000  0  3  3 13 12
 -14437217.768 7  73448627.989 7  21379789.266 0  21379790.210 0
   3506498.631 7  58417653.499 6  22075933.094 0  22075932.902 0
   8883431.008 7 127383780.785 8  22739868.968 0  22739870.192 0
 88  2 27 10 38 59.0800000  0  3  3 13 12
 -14461419.801 7  73429769.272 6  21375184.411 0  21375185.628 0
   3546210.023 7  58448597.429 7  22083488.974 0  22083490.127 0
   8981606.552 8 127460281.199 7  22758551.794 0  22758552.610 0
 88  2 27 10 39 29.0800000  0  3  3 13 12
 -14485526.855 8  73410984.576 7  21370597.313 0  21370596.555 0
   3585973.656 7  58479582.089 6  22091055.381 0  22091056.163 0
   9080020.064 8 127536967.053 7  22777278.670 0  22777279.307 0
 88  2 27 10 39 59.0800000  0  3  3 13 12
 -14509538.905 7  73392273.896 7  21366027.472 0  21366027.716 0
   3625789.096 8  58510607.106 7  22098632.793 0  22098633.152 0
   9178668.157 8 127613835.674 8  22796051.029 0  22796052.080 0
 88  2 27 10 40 29.0800000  0  3  3 13 12
 -14533455.066 7  73373637.931 7  21361476.935 0  21361476.048 0
   3665657.367 8  58541673.263 7  22106218.528 0  22106220.326 0
   9277548.299 7 127690885.112 7  22814867.638 0  22814868.261 0
 88  2 27 10 40 59.0800000  0  3  3 13 12
 -14557276.047 7  73355076.134 7  21356943.983 0  21356943.668 0
   3705578.206 8  58572780.399 7  22113816.126 0  22113817.126 0
   9376656.226 7 127768112.055 7  22833726.817 0  22833728.026 0
 88  2 27 10 41 29.0800000  0  3  3 13 12
 -14581002.555 7  73336587.945 7  21352429.490 0  21352428.374 0
   3745550.947 7  58603927.995 7  22121422.925 0  22121422.776 0
   9475987.652 7 127845513.164 7  22852628.616 0  22852629.876 0
 88  2 27 10 41 59.0800000  0  3  3 13 12
 -14604633.817 7  73318173.979 7  21347931.667 0  21347931.882 0
   3785577.818 7  58635117.749 7  22129040.177 0  22129040.515 0
   9575540.725 8 127923086.968 7  22871573.114 0  22871574.774 0
 88  2 27 10 42 29.0800000  0  3  3 13 12
 -14628170.070 7  73299834.043 7  21343453.763 0  21343453.019 0
   3825657.760 7  58666348.864 7  22136666.769 0  22136666.467 0
   9675310.816 7 128000829.900 7  22890558.693 0  22890560.174 0
 88  2 27 10 42 59.0800000  0  3  3 13 12
 -14651612.007 8  73281567.604 7  21338992.401 0  21338992.815 0
   3865790.070 7  58697620.787 7  22144302.544 0  22144304.488 0
   9775293.950 8 128078738.834 7  22909584.096 0  22909587.394 0
 88  2 27 10 43 29.0800000  0  3  3 13 12
 -14674958.965 7  73263375.188 7  21334550.284 0  21334549.697 0
   3905975.913 7  58728934.420 7  22151950.202 0  22151951.281 0
   9875487.357 8 128156811.621 7  22928651.209 0  22928651.760 0
 88  2 27 10 43 59.0800000  0  3  3 13 12
 -14698210.694 8  73245256.952 7  21330124.837 0  21330124.780 0
   3946216.081 8  58760290.391 7  22159607.588 0  22159608.881 0
   9975887.926 8 128235045.828 7  22947757.493 0  22947759.203 0
 88  2 27 10 44 29.0800000  0  3  3 13 12
 -14721367.337 8  73227212.821 6  21325717.949 0  21325718.121 0
   3986510.212 7  58791688.403 7  22167275.426 0  22167276.301 0
  10076492.328 8 128313438.862 7  22966901.604 0  22966902.555 0
 88  2 27 10 44 59.0800000  0  3  3 13 12
 -14744429.071 7  73209242.631 7  21321330.049 0  21321330.179 0
   4026858.701 8  58823128.771 7  22174954.086 0  22174955.565 0
  10177296.322 8 128391987.441 7  22986083.957 0  22986084.107 0
 88  2 27 10 45 29.0800000  0  3  3 13 12
 -14767396.625 7  73191345.840 7  21316958.247 0  21316959.551 0
   4067261.257 8  58854611.279 7  22182642.769 0  22182642.638 0
  10278295.781 7 128470688.315 7  23005303.341 0  23005304.185 0
 88  2 27 10 45 59.0800000  0  3  3 13 12
 -14790269.309 7  73173522.976 7  21312606.208 0  21312606.351 0
   4107718.641 8  58886136.515 7  22190341.407 0  22190342.447 0
  10379487.891 8 128549539.307 7  23024559.085 0  23024560.080 0
 88  2 27 10 46 29.0800000  0  3  3 13 12
 -14813046.522 7  73155774.501 7  21308272.210 0  21308271.897 0
   4148231.211 7  58917704.746 7  22198050.295 0  22198050.572 0
  10480869.770 8 128628538.154 7  23043851.397 0  23043852.784 0
 88  2 27 10 46 59.0800000  0  3  3 13 12
 -14835729.545 7  73138099.424 7  21303955.228 0  21303956.158 0
   4188798.092 8  58949315.292 7  22205770.609 0  22205770.343 0
  10582437.038 7 128707681.472 7  23063178.679 0  23063181.041 0
 88  2 27 10 47 29.0800000  0  3  3 13 12
 -14858319.016 7  73120497.237 7  21299657.118 0  21299657.477 0
   4229419.054 8  58980967.986 7  22213499.873 0  22213500.246 0
  10684185.533 8 128786965.996 7  23082541.056 0  23082542.844 0
 88  2 27 10 47 59.0800000  0  3  3 13 12
 -14880812.428 8  73102969.905 7  21295376.580 0  21295376.911 0
   4270097.241 8  59012665.269 7  22221240.781 0  22221241.244 0
  10786113.419 8 128866390.299 7  23101937.259 0  23101938.625 0
 88  2 27 10 48 29.0800000  0  3  3 13 12
 -14903210.591 7  73085516.800 7  21291114.702 0  21291114.203 0
   4310831.602 8  59044406.331 7  22228992.418 0  22228993.335 0
  10888216.434 7 128945951.055 7  23121367.075 0  23121368.326 0
 88  2 27 10 48 59.0800000  0  3  3 13 12
 -14925515.070 7  73068136.684 7  21286869.594 0  21286870.726 0
   4351620.743 8  59076190.070 7  22236753.734 0  22236754.634 0
  10990489.864 8 129025644.624 7  23140828.456 0  23140830.488 0
 88  2 27 10 49 29.0800000  0  3  3 13 12
 -14947725.414 7  73050829.928 7  21282644.863 0  21282643.790 0
   4392465.097 8  59108016.839 7  22244526.258 0  22244527.212 0
  11092930.499 7 129105468.472 7  23160322.069 0  23160324.015 0
 88  2 27 10 49 59.0800000  0  3  3 13 12
 -14969839.296 8  73033598.345 7  21278435.600 0  21278435.657 0
   4433367.367 7  59139888.729 6  22252309.876 0  22252309.827 0
  11195536.100 7 129185420.863 7  23179847.512 0  23179849.323 0
 88  2 27 10 50 29.0800000  0  3  3 13 12
 -14991856.496 7  73016442.061 7  21274245.382 0  21274245.611 0
   4474327.995 7  59171806.087 7  22260103.749 0  22260105.869 0
  11298304.173 7 129265499.854 7  23199404.336 0  23199406.311 0
 88  2 27 10 50 59.0800000  0  3  3 13 12
 -15013779.307 8  72999359.353 7  21270074.138 0  21270073.909 0
   4515345.156 8  59203767.518 6  22267909.800 0  22267909.094 0
  11401229.031 7 129345701.019 7  23218989.979 0  23218991.803 0
 88  2 27 10 51 29.0800000  0  3  3 13 12
 -15035608.006 7  72982349.975 7  21265920.365 0  21265920.866 0
   4556418.178 8  59235772.466 7  22275725.098 0  22275726.789 0
  11504306.220 8 129426020.890 7  23238604.705 0  23238606.758 0
 88  2 27 10 51 59.0800000  0  3  3 13 12
 -15057340.316 7  72965415.710 7  21261784.422 0  21261785.195 0
   4597549.642 7  59267822.957 6  22283552.863 0  22283553.283 0
  11607534.407 7 129506458.434 7  23258248.915 0  23258250.002 0
 88  2 27 10 52 29.0800000  0  3  3 13 12
 -15078975.593 8  72948557.054 7  21257667.667 0  21257667.754 0
   4638741.095 8  59299920.180 7  22291391.589 0  22291391.834 0
  11710911.074 8 129587011.668 7  23277920.634 0  23277923.131 0
 88  2 27 10 52 59.0800000  0  3  3 13 12
 -15100515.794 7  72931772.496 7  21253568.441 0  21253569.516 0
   4679990.701 8  59332062.739 7  22299240.481 0  22299242.386 0
  11814430.378 8 129667676.044 7  23297619.885 0  23297621.187 0
 88  2 27 10 53 29.0800000  0  3  3 13 12
 -15121960.888 8  72915062.028 7  21249488.018 0  21249488.219 0
   4721298.456 8  59364250.592 6  22307101.794 0  22307102.572 0
  11918088.567 8 129748448.647 7  23317345.428 0  23317346.051 0
 88  2 27 10 53 59.0800000  0  3  3 13 12
 -15143309.341 7  72898426.866 7  21245426.197 0  21245425.496 0
   4762666.127 8  59396485.127 6  22314973.095 0  22314974.127 0
  12021883.822 8 129829328.074 6  23337097.601 0  23337096.535 0
 88  2 27 10 54 29.0800000  0  3  3 13 12
 -15164561.901 7  72881866.433 7  21241381.203 0  21241380.688 0
   4804093.117 8  59428765.894 7  22322856.805 0  22322857.490 0
  12125811.350 7 129910310.551 7  23356873.757 0  23356875.588 0
 88  2 27 10 54 59.0800000  0  3  3 13 12
 -15185718.385 7  72865380.855 7  21237355.140 0  21237354.568 0
   4845580.231 8  59461093.506 7  22330751.963 0  22330751.936 0
  12229867.905 7 129991393.556 7  23376674.888 0  23376676.555 0
 88  2 27 10 55 29.0800000  0  3  3 13 12
 -15206777.429 7  72848971.208 7  21233347.865 0  21233347.766 0
   4887128.483 8  59493468.762 7  22338657.817 0  22338658.591 0
  12334051.199 7 130072575.327 7  23396499.615 0  23396501.461 0
 88  2 27 10 55 59.0800000  0  3  3 13 12
 -15227739.171 7  72832637.385 7  21229359.092 0  21229358.477 0
   4928737.676 7  59525891.508 7  22346575.136 0  22346576.060 0
  12438357.164 7 130153852.672 7  23416348.011 0  23416350.586 0
 88  2 27 10 56 29.0800000  0  3  3 13 12
 -15248604.604 7  72816378.605 7  21225387.590 0  21225387.361 0
   4970407.429 8  59558361.438 6  22354505.497 0  22354505.617 0
  12542781.495 7 130235222.223 7  23436220.524 0  23436222.842 0
 88  2 27 10 56 59.0800000  0  3  3 13 12
 -15269372.860 7  72800195.547 6  21221435.806 0  21221436.279 0
   5012139.060 8  59590879.587 7  22362445.972 0  22362446.843 0
  12647321.481 7 130316681.948 7  23456113.449 0  23456116.089 0
 88  2 27 10 57 29.0800000  0  3  3 13 12
 -15290044.132 8  72784088.079 7  21217502.796 0  21217502.911 0
   5053932.537 7  59623445.914 7  22370400.467 0  22370399.577 0
  12751973.066 8 130398228.615 7  23476028.261 0  23476030.306 0
 88  2 27 10 57 59.0800000  0  3  3 13 12
 -15310617.082 7  72768057.199 7  21213587.701 0  21213587.658 0
   5095789.015 7  59656061.346 7  22378365.074 0  22378365.380 0
  12856733.985 7 130479860.472 7  23495963.763 0  23495964.449 0
 88  2 27 10 58 29.0800000  0  3  3 13 12
 -15331092.129 7  72752102.612 6  21209691.680 0  21209691.323 0
   5137708.368 7  59688725.783 6  22386341.200 0  22386341.298 0
  12961599.814 7 130561574.073 7  23515919.291 0  23515920.070 0
 88  2 27 10 58 59.0800000  0  3  3 13 12
 -15351468.828 7  72736224.660 7  21205813.316 0  21205814.390 0
   5179690.862 8  59721439.417 6  22394330.594 0  22394330.360 0
  13066567.123 8 130643366.776 7  23535893.392 0  23535895.152 0
 88  2 27 10 59 29.0800000  0  3  3 13 12
 -15371747.648 7  72720422.985 7  21201955.273 0  21201954.457 0
   5221736.707 8  59754202.393 7  22402331.493 0  22402331.631 0
  13171631.818 7 130725235.360 6  23555887.147 0  23555887.855 0
 88  2 27 10 59 59.0800000  0  3  3 13 12
 -15391927.869 7  72704698.139 7  21198114.871 0  21198114.729 0
   5263846.625 8  59787015.313 7  22410344.154 0  22410345.759 0
  13276791.063 8 130807177.628 7  23575898.166 0  23575899.525 0
 88  2 27 11  0 29.0800000  0  3  3 13 12
 -15412008.742 7  72689050.714 7  21194293.344 0  21194294.203 0
   5306021.434 7  59819878.807 6  22418370.950 0  22418370.014 0
  13382041.639 8 130889191.066 7  23595926.878 0  23595928.058 0
 88  2 27 11  0 59.0800000  0  3  3 13 12
 -15431989.649 8  72673481.171 6  21190490.562 0  21190491.135 0
   5348261.560 7  59852793.175 7  22426407.783 0  22426409.112 0
  13487380.003 8 130971272.896 7  23615971.717 0  23615973.220 0
 88  2 27 11  1 29.0800000  0  3  3 13 12
 -15451871.190 8  72657989.060 7  21186708.485 0  21186708.271 0
   5390567.097 7  59885758.530 7  22434458.821 0  22434460.036 0
  13592802.577 8 131053420.356 7  23636032.797 0  23636033.698 0
 88  2 27 11  1 59.0800000  0  3  3 13 12
 -15471653.009 7  72642574.654 7  21182944.094 0  21182943.007 0
   5432937.998 7  59918774.814 7  22442522.158 0  22442523.351 0
  13698305.771 8 131135630.648 7  23656109.280 0  23656111.355 0
 88  2 27 11  2 29.0800000  0  3  3 13 12
 -15491335.621 8  72627237.553 7  21179197.390 0  21179196.832 0
   5475375.177 7  59951842.746 7  22450596.553 0  22450598.676 0
  13803885.385 7 131217900.473 7  23676199.765 0  23676202.119 0
 88  2 27 11  2 59.0800000  0  3  3 13 12
 -15510917.412 7  72611979.003 7  21175472.707 0  21175471.634 0
   5517879.395 7  59984962.892 6  22458686.069 0  22458686.114 0
  13909539.608 7 131300228.434 7  23696304.889 0  23696307.479 0
 88  2 27 11  3 29.0800000  0  3  3 13 12
 -15530397.009 7  72596800.106 7  21171764.509 0  21171763.779 0
   5560452.296 7  60018136.587 6  22466786.993 0  22466787.019 0
  14015265.217 7 131382612.036 7  23716424.936 0  23716426.267 0
 88  2 27 11  3 59.0800000  0  3  3 13 12
 -15549776.169 7  72581699.450 7  21168076.872 0  21168077.188 0
   5603092.367 7  60051362.613 6  22474901.692 0  22474902.850 0
  14121056.729 7 131465046.968 7  23736556.503 0  23736558.141 0
 88  2 27 11  4 29.0800000  0  3  3 13 12
 -15569054.791 8  72566677.145 7  21164409.112 0  21164408.511 0
   5645799.862 7  60084641.174 6  22483027.600 0  22483027.237 0
  14226911.315 7 131547531.042 6  23756699.482 0  23756700.082 0
 88  2 27 11  4 59.0800000  0  3  3 13 12
 -15588231.885 7  72551733.955 7  21160760.297 0  21160760.097 0
   5688575.881 8  60117973.126 7  22491167.421 0  22491168.112 0
  14332825.583 7 131630061.644 7  23776853.578 0  23776857.070 0
 88  2 27 11  5 29.0800000  0  3  3 13 12
 -15607305.432 7  72536871.456 7  21157129.239 0  21157129.970 0
   5731422.165 7  60151359.832 7  22499321.184 0  22499321.275 0
  14438797.814 7 131712637.400 7  23797020.839 0  23797022.220 0
 88  2 27 11  5 59.0800000  0  3  3 13 12
 -15626275.783 8  72522089.358 7  21153520.003 0  21153520.046 0
   5774338.702 8  60184801.285 7  22507488.188 0  22507489.266 0
  14544823.618 8 131795254.898 7  23817197.902 0  23817198.317 0
 88  2 27 11  6 29.0800000  0  3  3 13 12
 -15645143.349 7  72507387.370 7  21149929.469 0  21149929.240 0
   5817325.596 8  60218297.563 7  22515668.385 0  22515669.477 0
  14650899.202 7 131877911.193 7  23837382.656 0  23837384.108 0
 88  2 27 11  6 59.0800000  0  3  3 13 12
 -15663907.253 7  72492766.133 7  21146358.724 0  21146358.610 0
   5860383.215 7  60251848.939 7  22523861.889 0  22523863.984 0
  14757021.475 8 131960603.872 7  23857577.162 0  23857578.214 0
 88  2 27 11  7 29.0800000  0  3  3 13 12
 -15682566.631 7  72478226.361 7  21142808.586 0  21142807.499 0
   5903513.399 7  60285456.861 7  22532070.006 0  22532070.134 0
  14863187.502 8 132043330.643 7  23877778.257 0  23877781.255 0
 88  2 27 11  7 59.0800000  0  3  3 13 12
 -15701121.740 7  72463767.833 7  21139276.962 0  21139276.133 0
   5946714.980 8  60319120.415 7  22540290.430 0  22540292.052 0
  14969393.017 8 132126088.173 8  23897988.596 0  23897990.313 0
 88  2 27 11  8 29.0800000  0  3  3 13 12
 -15719572.975 7  72449390.237 8  21135765.429 0  21135766.145 0
   5989987.864 7  60352839.552 7  22548525.159 0  22548525.822 0
  15075634.061 8 132208873.406 7  23918206.240 0  23918208.050 0
 88  2 27 11  8 59.0800000  0  3  3 13 12
 -15737918.086 7  72435095.351 6  21132273.943 0  21132274.645 0
   6033334.911 8  60386616.469 7  22556774.230 0  22556774.307 0
  15181908.562 8 132291684.707 7  23938430.966 0  23938431.739 0
 88  2 27 11  9 29.0800000  0  3  3 13 12
 -15756158.010 7  72420882.421 7  21128804.465 0  21128803.836 0
   6076754.752 8  60420450.100 8  22565036.214 0  22565037.010 0
  15288212.668 8 132374519.079 7  23958660.343 0  23958660.501 0
 88  2 27 11  9 59.0800000  0  3  3 13 12
 -15774291.794 8  72406752.199 7  21125354.662 0  21125352.345 0
   6120249.175 8  60454341.866 7  22573313.023 0  22573313.654 0
  15394542.919 8 132457373.806 7  23978892.404 0  23978894.564 0
 88  2 27 11 10 29.0800000  0  3  3 13 12
 -15792317.981 7  72392705.803 7  21121922.717 0  21121924.521 0
   6163818.916 8  60488292.297 7  22581604.524 0  22581604.740 0
  15500896.555 7 132540246.780 7  23999130.151 0  23999133.250 0
 88  2 27 11 10 59.0800000  0  3  3 13 12
 -15810236.632 7  72378743.233 7  21118513.509 0  21118513.152 0
   6207464.382 8  60522301.758 7  22589909.429 0  22589910.822 0
  15607270.212 7 132623135.321 7  24019373.638 0  24019375.584 0
 88  2 27 11 11 29.0800000  0  3  3 13 12
 -15828049.067 8  72364863.410 7  21115123.061 0  21115124.650 0
   6251184.465 8  60556369.348 7  22598229.591 0  22598229.213 0
  15713658.556 7 132706035.309 7  24039618.712 0  24039620.293 0
 88  2 27 11 11 59.0800000  0  3  3 13 12
 -15845753.147 7  72351068.021 7  21111754.906 0  21111755.350 0
   6294981.815 8  60590497.144 7  22606563.648 0  22606563.674 0
  15820060.222 7 132788945.716 7  24059865.103 0  24059868.008 0
 88  2 27 11 12 29.0800000  0  3  3 13 12
 -15863348.046 7  72337357.724 7  21108407.614 0  21108407.056 0
   6338856.233 8  60624685.000 7  22614912.732 0  22614913.546 0
  15926471.998 7 132871863.967 7  24080114.019 0  24080116.374 0
 88  2 27 11 12 59.0800000  0  3  3 13 12
 -15880834.232 8  72323732.111 7  21105078.266 0  21105078.853 0
   6382808.058 8  60658933.164 7  22623276.884 0  22623277.462 0
  16032889.259 7 132954786.512 7  24100367.608 0  24100368.038 0
 88  2 27 11 13 29.0800000  0  3  3 13 12
 -15898210.398 7  72310192.233 7  21101771.898 0  21101773.115 0
   6426837.851 8  60693242.098 8  22631655.493 0  22631655.937 0
  16139309.720 7 133037711.527 6  24120616.460 0  24120619.508 0
 88  2 27 11 13 59.0800000  0  3  3 13 12
 -15915476.072 7  72296738.471 7  21098487.080 0  21098486.408 0
   6470946.665 7  60727612.596 7  22640048.889 0  22640048.948 0
  16245729.733 7 133120636.228 7  24140868.933 0  24140870.406 0
 88  2 27 11 14 29.0800000  0  3  3 13 12
 -15932631.233 7  72283370.820 7  21095222.023 0  21095222.338 0
   6515134.244 8  60762044.477 7  22648457.650 0  22648457.999 0
  16352145.279 8 133203557.438 6  24161118.163 0  24161119.645 0
 88  2 27 11 14 59.0800000  0  3  3 13 12
 -15949674.721 7  72270090.177 7  21091979.646 0  21091978.616 0
   6559401.687 8  60796538.577 7  22656881.132 0  22656881.659 0
  16458553.944 7 133286473.328 7  24181367.473 0  24181368.775 0
 88  2 27 11 15 29.0800000  0  3  3 13 12
 -15966604.921 7  72256897.825 7  21088757.445 0  21088758.018 0
   6603751.068 7  60831096.547 7  22665320.758 0  22665321.507 0
  16564953.493 8 133369382.035 7  24201614.887 0  24201615.367 0
 88  2 27 11 15 59.0800000  0  3  3 13 12
 -15983422.346 7  72243793.331 7  21085557.623 0  21085557.338 0
   6648181.434 7  60865717.610 7  22673775.090 0  22673775.617 0
  16671339.593 8 133452280.298 6  24221859.869 0  24221861.242 0
 88  2 27 11 16 29.0800000  0  3  3 13 12
 -16000126.975 7  72230776.737 7  21082378.736 0  21082379.066 0
   6692693.076 8  60900401.995 7  22682246.092 0  22682245.235 0
  16777708.579 8 133535165.245 7  24242100.521 0  24242103.913 0
 88  2 27 11 16 59.0800000  0  3  3 13 12
 -16016718.281 7  72217848.449 6  21079220.297 0  21079220.798 0
   6737286.712 7  60935150.272 7  22690731.651 0  22690732.397 0
  16884056.941 8 133618034.127 7  24262338.684 0  24262339.750 0
 88  2 27 11 17 29.0800000  0  3  3 13 12
 -16033195.020 7  72205009.427 7  21076085.654 0  21076085.511 0
   6781963.737 7  60969963.522 7  22699233.268 0  22699234.179 0
  16990382.496 8 133700885.230 7  24282571.560 0  24282572.526 0
 88  2 27 11 17 59.0800000  0  3  3 13 12
 -16049556.167 7  72192260.487 7  21072971.744 0  21072971.774 0
   6826725.101 7  61004842.505 7  22707751.161 0  22707751.757 0
  17096681.130 7 133783715.319 7  24302798.440 0  24302799.542 0
 88  2 27 11 18 29.0800000  0  3  3 13 12
 -16065802.440 8  72179601.057 6  21069879.900 0  21069880.044 0
   6871570.098 8  61039786.642 7  22716284.642 0  22716284.933 0
  17202949.335 8 133866521.723 7  24323021.643 0  24323022.030 0
 88  2 27 11 18 59.0800000  0  3  3 13 12
 -16081932.855 7  72167031.902 7  21066810.979 0  21066810.980 0
   6916499.814 7  61074796.813 6  22724834.781 0  22724834.936 0
  17309183.863 8 133949301.898 7  24343237.613 0  24343237.792 0
 88  2 27 11 19 29.0800000  0  3  3 13 12
 -16097945.772 7  72154554.300 7  21063763.136 0  21063763.951 0
   6961515.716 8  61109874.118 6  22733400.485 0  22733401.531 0
  17415382.591 7 134032054.143 8  24363444.947 0  24363448.560 0
 88  2 27 11 19 59.0800000  0  3  3 13 12
 -16113840.474 7  72142168.817 7  21060738.745 0  21060738.846 0
   7006618.264 7  61145018.968 6  22741982.885 0  22741984.292 0
  17521541.911 8 134114775.689 7  24383647.959 0  24383649.090 0
 88  2 27 11 20 29.0800000  0  3  3 13 12
 -16129617.406 7  72129875.104 7  21057736.634 0  21057737.063 0
   7051807.337 7  61180231.227 7  22750582.022 0  22750584.100 0
  17627657.717 8 134197463.342 7  24403842.028 0  24403843.366 0
 88  2 27 11 20 59.0800000  0  3  3 13 12
 -16145276.544 7  72117673.169 7  21054757.246 0  21054757.517 0
   7097082.874 7  61215510.864 7  22759198.138 0  22759199.166 0
  17733726.342 7 134280114.236 7  24424023.341 0  24424027.226 0
 88  2 27 11 21 29.0800000  0  3  3 13 12
 -16160814.945 7  72105565.334 6  21051799.936 0  21051800.094 0
   7142447.101 7  61250859.605 7  22767830.963 0  22767831.401 0
  17839746.779 6 134362727.560 7  24444202.071 0  24444201.605 0
 88  2 27 11 21 59.0800000  0  3  3 13 12
 -16176232.788 7  72093551.434 7  21048866.437 0  21048866.996 0
   7187900.531 7  61286277.865 6  22776479.886 0  22776481.201 0
  17945715.327 7 134445300.418 7  24464362.835 0  24464366.656 0
 88  2 27 11 22 29.0800000  0  3  3 13 12
 -16191529.913 7  72081631.597 7  21045954.917 0  21045955.132 0
   7233443.029 7  61321765.520 7  22785146.635 0  22785147.645 0
  18051627.789 6 134527829.588 7  24484516.924 0  24484520.531 0
 88  2 27 11 22 59.0800000  0  3  3 13 12
 -16206704.853 7  72069806.970 8  21043067.122 0  21043067.824 0
   7279076.344 8  61357323.945 7  22793830.122 0  22793831.697 0
  18157481.849 7 134610313.287 6  24504662.679 0  24504664.145 0
 88  2 27 11 23 29.0800000  0  3  3 13 12
 -16221756.769 7  72058078.205 7  21040203.467 0  21040203.324 0
   7324800.882 7  61392953.463 6  22802532.135 0  22802532.338 0
  18263274.337 7 134692748.983 7  24524795.297 0  24524796.078 0
 88  2 27 11 23 59.0800000  0  3  3 13 12
 -16236686.560 7  72046444.605 7  21037362.991 0  21037363.149 0
   7370615.920 7  61428653.494 6  22811249.342 0  22811249.877 0
  18369000.373 7 134775132.878 7  24544913.915 0  24544915.409 0
 88  2 27 11 24 29.0800000  0  3  3 13 12
 -16251491.970 7  72034907.920 7  21034545.412 0  21034544.840 0
   7416522.991 7  61464425.238 6  22819985.773 0  22819986.161 0
  18474658.351 8 134857463.797 7  24565018.766 0  24565020.189 0
 88  2 27 11 24 59.0800000  0  2  3 13
 -16266172.351 7  72023468.670 7  21031750.855 0  21031752.143 0
   7462523.342 7  61500269.679 6  22828739.199 0  22828739.484 0
 88  2 27 11 25 29.0800000  0  2  3 13
 -16280727.732 8  72012126.823 8  21028981.640 0  21028981.340 0
   7508616.435 7  61536186.366 6  22837510.759 0  22837511.877 0
 88  2 27 11 25 59.0800000  0  2  3 13
 -16295156.858 7  72000883.352 7  21026236.207 0  21026235.893 0
   7554803.260 8  61572176.107 7  22846299.848 0  22846300.161 0
 88  2 27 11 26 29.0800000  0  2  3 13
 -16309458.231 7  71989739.426 7  21023514.413 0  21023513.884 0
   7601085.635 7  61608240.295 7  22855107.284 0  22855107.032 0
 88  2 27 11 26 59.0800000  0  2  3 13
 -16323632.026 7  71978694.908 7  21020816.758 0  21020817.145 0
   7647463.203 7  61644378.672 7  22863932.486 0  22863932.345 0
 88  2 27 11 27 29.0800000  0  2  3 13
 -16337675.923 7  71967751.613 6  21018145.261 0  21018145.648 0
   7693938.068 8  61680592.837 7  22872775.917 0  22872777.161 0
 88  2 27 11 27 59.0800000  0  2  3 13
 -16351591.132 7  71956908.597 6  21015496.901 0  21015496.243 0
   7740509.075 8  61716881.930 7  22881638.738 0  22881639.320 0
 88  2 27 11 28 29.0800000  0  2  3 13
 -16365377.334 8  71946166.116 6  21012873.440 0  21012874.055 0
   7787176.947 7  61753246.515 7  22890519.731 0  22890518.953 0
 88  2 27 11 28 59.0800000  0  2  3 13
 -16379031.074 7  71935526.841 7  21010275.663 0  21010274.876 0
   7833944.609 8  61789688.859 7  22899418.807 0  22899419.149 0
 88  2 27 11 29 29.0800000  0  2  3 13
 -16392552.357 8  71924990.779 7  21007702.355 0  21007701.827 0
   7880811.186 8  61826208.255 7  22908336.525 0  22908337.714 0
 88  2 27 11 29 59.0800000  0  2  3 13
 -16405940.428 7  71914558.512 7  21005155.062 0  21005155.363 0
   7927777.975 8  61862805.755 7  22917275.030 0  22917275.272 0
 88  2 27 11 30 29.0800000  0  2  3 13
 -16419195.587 8  71904229.809 7  21002632.767 0  21002631.794 0
   7974844.250 7  61899480.774 8  22926230.721 0  22926231.427 0
 88  2 27 11 30 59.0800000  0  2  3 13
 -16432316.072 8  71894006.068 7  21000134.940 0  21000134.869 0
   8022012.005 8  61936234.856 7  22935207.417 0  22935207.198 0
 88  2 27 11 31 29.0800000  0  2  3 13
 -16445301.077 8  71883887.887 7  20997664.200 0  20997665.188 0
   8069281.697 8  61973068.371 7  22944202.286 0  22944203.440 0
 88  2 27 11 31 59.0800000  0  2  3 13
 -16458150.727 7  71873875.161 7  20995220.004 0  20995218.631 0
   8116652.985 8  62009981.065 7  22953216.673 0  22953217.001 0
 88  2 27 11 32 29.0800000  0  2  3 13
 -16470863.267 8  71863969.296 7  20992799.976 0  20992800.034 0
   8164127.727 7  62046974.360 8  22962250.156 0  22962250.283 0
 88  2 27 11 32 59.0800000  0  2  3 13
 -16483436.132 7  71854172.262 7  20990408.138 0  20990407.079 0
   8211707.527 8  62084049.518 7  22971305.431 0  22971305.974 0
 88  2 27 11 33 29.0800000  0  2  3 13
 -16495870.792 7  71844482.918 7  20988041.197 0  20988040.969 0
   8259390.689 7  62121205.215 7  22980378.339 0  22980379.314 0
 88  2 27 11 33 59.0800000  0  2  3 13
 -16508166.408 7  71834901.917 7  20985701.744 0  20985701.158 0
   8307178.599 7  62158442.525 7  22989472.525 0  22989472.341 0
 88  2 27 11 34 29.0800000  0  2  3 13
 -16520320.548 7  71825431.162 7  20983388.420 0  20983388.879 0
   8355073.116 7  62195762.923 7  22998585.595 0  22998586.688 0
 88  2 27 11 34 59.0800000  0  2  3 13
 -16532333.506 7  71816070.423 7  20981102.770 0  20981102.299 0
   8403073.995 7  62233166.185 7  23007720.577 0  23007721.809 0
 88  2 27 11 35 29.0800000  0  2  3 13
 -16544202.914 7  71806821.531 6  20978844.222 0  20978844.137 0
   8451183.011 7  62270653.705 8  23016875.694 0  23016876.290 0
 88  2 27 11 35 59.0800000  0  2  3 13
 -16555928.830 7  71797684.459 7  20976612.460 0  20976613.105 0
   8499400.262 7  62308225.572 7  23026050.702 0  23026052.220 0
 88  2 27 11 36 29.0800000  0  2  3 13
 -16567510.574 7  71788659.727 8  20974407.070 0  20974409.088 0
   8547725.292 7  62345881.422 8  23035246.236 0  23035247.114 0
 88  2 27 11 36 59.0800000  0  2  3 13
 -16578946.517 7  71779748.595 7  20972232.230 0  20972233.719 0
   8596160.105 7  62383622.819 7  23044463.016 0  23044463.851 0
 88  2 27 11 37 29.0800000  0  2  3 13
 -16590235.496 7  71770952.003 7  20970083.820 0  20970084.593 0
   8644705.782 7  62421450.598 7  23053701.309 0  23053702.549 0
 88  2 27 11 37 59.0800000  0  2  3 13
 -16601376.638 7  71762270.602 7  20967963.670 0  20967963.913 0
   8693363.451 6  62459365.636 7  23062959.933 0  23062961.748 0
 88  2 27 11 38 29.0800000  0  2  3 13
 -16612369.423 8  71753704.796 7  20965872.367 0  20965872.396 0
   8742132.293 7  62497367.324 8  23072240.188 0  23072242.046 0
 88  2 27 11 38 59.0800000  0  2  3 13
 -16623213.038 7  71745255.230 7  20963808.381 0  20963808.582 0
   8791013.911 7  62535456.888 7  23081541.045 0  23081543.451 0
 88  2 27 11 39 29.0800000  0  2  3 13
 -16633905.712 7  71736923.278 6  20961774.487 0  20961774.902 0
   8840008.529 7  62573634.493 7  23090865.609 0  23090866.716 0
 88  2 27 11 39 59.0800000  0  2  3 13
 -16644446.221 7  71728709.895 7  20959768.281 0  20959768.925 0
   8889117.343 7  62611901.094 7  23100211.561 0  23100212.787 0
 88  2 27 11 40 29.0800000  0  2  3 13
 -16654834.303 8  71720615.297 7  20957791.123 0  20957792.540 0
   8938340.765 7  62650257.006 7  23109577.847 0  23109578.703 0
 88  2 27 11 40 59.0800000  0  2  3 13
 -16665069.085 7  71712640.134 6  20955843.198 0  20955843.513 0
   8987680.239 8  62688703.343 7  23118967.231 0  23118966.858 0
 88  2 27 11 41 29.0800000  0  2  3 13
 -16675149.486 8  71704785.285 7  20953926.039 0  20953925.653 0
   9037135.354 7  62727239.799 6  23128378.083 0  23128379.247 0
 88  2 27 11 41 59.0800000  0  2  3 13
 -16685074.513 8  71697051.510 7  20952036.667 0  20952036.954 0
   9086707.420 7  62765867.372 6  23137811.204 0  23137811.384 0
 88  2 27 11 42 29.0800000  0  2  3 13
 -16694843.541 7  71689439.276 6  20950177.502 0  20950177.102 0
   9136396.373 8  62804586.045 6  23147267.823 0  23147267.517 0
 88  2 27 11 42 59.0800000  0  2  3 13
 -16704454.693 7  71681950.082 7  20948349.060 0  20948349.046 0
   9186204.128 8  62843397.270 7  23156745.252 0  23156746.276 0
 88  2 27 11 43 29.0800000  0  2  3 13
 -16713906.492 7  71674585.040 7  20946551.339 0  20946551.354 0
   9236131.239 8  62882301.511 7  23166246.309 0  23166245.620 0
 88  2 27 11 43 59.0800000  0  2  3 13
 -16723198.457 7  71667344.548 7  20944781.621 0  20944782.509 0
   9286177.920 8  62921298.905 7  23175769.269 0  23175770.055 0
 88  2 27 11 44 29.0800000  0  2  3 13
 -16732329.011 7  71660229.847 7  20943045.201 0  20943044.800 0
   9336345.235 8  62960390.323 6  23185316.230 0  23185316.672 0
 88  2 27 11 44 59.0800000  0  2  3 13
 -16741297.068 8  71653241.738 7  20941338.443 0  20941338.200 0
   9386634.136 7  62999576.456 7  23194886.075 0  23194886.231 0
 88  2 27 11 45 29.0800000  0  2  3 13
 -16750102.466 7  71646380.390 7  20939662.079 0  20939663.625 0
   9437044.124 8  63038856.962 7  23204478.292 0  23204477.857 0
 88  2 27 11 45 59.0800000  0  2  3 13
 -16758743.915 8  71639646.794 7  20938018.181 0  20938017.753 0
   9487576.325 8  63078232.702 6  23214093.822 0  23214094.601 0
 88  2 27 11 46 29.0800000  0  2  3 13
 -16767219.923 7  71633042.116 8  20936405.378 0  20936404.620 0
   9538232.079 7  63117704.711 7  23223733.832 0  23223735.179 0
 88  2 27 11 46 59.0800000  0  2  3 13
 -16775528.764 8  71626567.698 7  20934823.512 0  20934824.771 0
   9589012.506 7  63157273.873 7  23233397.005 0  23233397.551 0
 88  2 27 11 47 29.0800000  0  2  3 13
 -16783669.445 7  71620224.328 7  20933274.155 0  20933275.172 0
   9639918.475 8  63196940.861 7  23243084.353 0  23243084.380 0
 88  2 27 11 47 59.0800000  0  2  3 13
 -16791642.811 7  71614011.306 7  20931757.438 0  20931758.025 0
   9690948.553 8  63236704.551 7  23252795.441 0  23252795.485 0
 88  2 27 11 48 29.0800000  0  2  3 13
 -16799446.316 7  71607930.665 7  20930272.531 0  20930272.617 0
   9742104.975 7  63276566.685 7  23262529.644 0  23262530.115 0
 88  2 27 11 48 59.0800000  0  2  3 13
 -16807078.845 7  71601983.231 6  20928819.261 0  20928820.320 0
   9793388.333 8  63316527.733 7  23272288.410 0  23272289.663 0
 88  2 27 11 49 29.0800000  0  2  3 13
 -16814538.481 7  71596170.537 7  20927401.248 0  20927401.421 0
   9844799.953 8  63356588.735 6  23282071.232 0  23282072.365 0
 88  2 27 11 49 59.0800000  0  2  3 13
 -16821823.624 7  71590493.807 7  20926014.673 0  20926014.374 0
   9896340.856 7  63396750.468 7  23291879.794 0  23291880.779 0
 88  2 27 11 50 29.0800000  0  2  3 13
 -16828935.380 7  71584952.177 7  20924660.337 0  20924660.724 0
   9948010.379 7  63437012.403 7  23301711.525 0  23301713.202 0
 88  2 27 11 50 59.0800000  0  2  3 13
 -16835872.152 7  71579546.915 7  20923341.158 0  20923341.188 0
   9999808.750 7  63477374.760 7  23311568.978 0  23311569.789 0
 88  2 27 11 51 29.0800000  0  2  3 13
 -16842631.286 7  71574280.057 6  20922055.120 0  20922054.333 0
  10051738.136 7  63517839.194 7  23321450.784 0  23321451.559 0
 88  2 27 11 51 59.0800000  0  2  3 13
 -16849212.578 7  71569151.777 7  20920801.792 0  20920802.709 0
  10103798.606 7  63558405.784 7  23331357.489 0  23331358.292 0
 88  2 27 11 52 29.0800000  0  2  3 13
 -16855614.453 7  71564163.299 7  20919583.579 0  20919583.994 0
  10155991.141 7  63599075.282 7  23341288.859 0  23341289.948 0
 88  2 27 11 52 59.0800000  0  2  3 13
 -16861836.636 7  71559314.856 7  20918400.810 0  20918401.340 0
  10208316.180 7  63639848.010 7  23351246.876 0  23351247.626 0
 88  2 27 11 53 29.0800000  0  2  3 13
 -16867877.757 7  71554607.489 7  20917250.581 0  20917251.253 0
  10260773.938 7  63680724.169 7  23361229.416 0  23361229.361 0
 88  2 27 11 53 59.0800000  0  2  3 13
 -16873735.283 7  71550043.191 7  20916135.751 0  20916136.138 0
  10313366.667 7  63721705.484 7  23371237.533 0  23371238.970 0
 88  2 27 11 54 29.0800000  0  2  3 13
 -16879407.800 7  71545623.062 7  20915056.867 0  20915056.939 0
  10366094.808 7  63762792.341 7  23381270.205 0  23381272.619 0
 88  2 27 11 54 59.0800000  0  2  3 13
 -16884895.886 7  71541346.626 6  20914011.895 0  20914012.454 0
  10418957.771 7  63803984.229 7  23391330.269 0  23391330.203 0
 88  2 27 11 55 29.0800000  0  2  3 13
 -16890197.615 7  71537215.412 7  20913003.226 0  20913002.540 0
  10471957.521 7  63845282.707 7  23401415.821 0  23401416.938 0
 88  2 27 11 55 59.0800000  0  2  3 13
 -16895311.683 7  71533230.438 6  20912030.230 0  20912029.200 0
  10525093.911 7  63886687.675 7  23411527.247 0  23411529.224 0
 88  2 27 11 56 29.0800000  0  2  3 13
 -16900236.857 7  71529392.642 7  20911092.649 0  20911093.379 0
  10578367.312 8  63928199.396 7  23421664.290 0  23421666.027 0
 88  2 27 11 56 59.0800000  0  2  3 13
 -16904972.436 7  71525702.584 7  20910191.642 0  20910190.383 0
  10631778.741 7  63969818.688 7  23431829.040 0  23431830.075 0
 88  2 27 11 57 29.0800000  0  2  3 13
 -16909516.477 7  71522161.770 6  20909327.325 0  20909327.826 0
  10685329.017 7  64011546.173 7  23442019.395 0  23442020.624 0
 88  2 27 11 57 59.0800000  0  2  3 13
 -16913867.516 8  71518771.373 7  20908499.766 0  20908499.667 0
  10739019.395 8  64053382.821 7  23452236.759 0  23452237.462 0
 88  2 27 11 58 29.0800000  0  2  3 13
 -16918025.415 7  71515531.444 6  20907708.583 0  20907707.653 0
  10792849.588 8  64095328.409 7  23462480.399 0  23462481.553 0
 88  2 27 11 58 59.0800000  0  2  3 13
 -16921987.862 7  71512443.824 7  20906953.887 0  20906953.616 0
  10846820.891 8  64137383.962 7  23472750.597 0  23472750.770 0
 88  2 27 11 59 29.0800000  0  2  3 13
 -16925753.901 8  71509509.259 6  20906237.641 0  20906236.325 0
  10900933.666 8  64179549.756 7  23483047.634 0  23483048.860 0
 88  2 27 11 59 59.0800000  0  2  3 13
 -16929321.544 7  71506729.283 7  20905558.326 0  20905558.269 0
  10955189.105 8  64221826.712 7  23493372.365 0  23493372.652 0
 88  2 27 12  0 29.0800000  0  2  3 13
 -16932689.994 7  71504104.517 6  20904916.859 0  20904916.760 0
  11009587.883 8  64264215.361 6  23503723.963 0  23503725.095 0
 88  2 27 12  0 59.0800000  0  2  3 13
 -16935858.311 7  71501635.708 7  20904314.529 0  20904315.116 0
  11064129.947 7  64306715.670 6  23514103.386 0  23514103.799 0
 88  2 27 12  1 29.0800000  0  2  3 13
 -16938825.275 8  71499323.790 7  20903749.187 0  20903749.674 0
  11118816.572 8  64349328.607 8  23524508.802 0  23524511.894 0
 88  2 27 12  1 59.0800000  0  2  3 13
 -16941589.858 7  71497169.575 7  20903223.511 0  20903223.525 0
  11173648.354 7  64392054.675 7  23534943.920 0  23534944.612 0
 88  2 27 12  2 29.0800000  0  2  3 13
 -16944150.185 8  71495174.521 7  20902736.483 0  20902736.669 0
  11228625.905 8  64434894.309 6  23545405.617 0  23545406.002 0
 88  2 27 12  2 59.0800000  0  2  3 13
 -16946504.864 7  71493339.713 7  20902288.548 0  20902287.962 0
  11283750.067 8  64477848.208 6  23555895.113 0  23555895.119 0
 88  2 27 12  3 29.0800000  0  2  3 13
 -16948653.583 7  71491665.387 7  20901879.377 0  20901879.521 0
  11339020.180 8  64520915.824 7  23566412.592 0  23566414.132 0
